GEFSSGP_prec_meanprecacc_150.txt.gz
Total_Precipitation_Accumulation
0.00 0.00 0.00 0.00 0.00 0.00 0.01 0.03 0.10 0.23 0.25 0.20 0.23 0.29 0.29 0.32 0.46 0.91 0.53 0.29 0.15 0.06 0.04 0.05 0.05 0.06 0.08 0.07 0.06 0.07 0.10 0.14 0.15 0.14 0.12 0.11 0.10 0.10 0.11 0.12 0.16 0.22 0.27 0.26 0.23 0.23 0.23 0.23 0.18
0.00 0.00 0.00 0.00 0.00 0.00 0.02 0.04 0.11 0.18 0.22 0.23 0.27 0.33 0.35 0.28 0.20 0.19 0.20 0.20 0.13 0.07 0.06 0.05 0.05 0.06 0.08 0.08 0.09 0.10 0.12 0.15 0.19 0.19 0.18 0.15 0.12 0.12 0.13 0.13 0.16 0.21 0.25 0.23 0.19 0.17 0.16 0.13 0.10
0.00 0.00 0.00 0.00 0.00 0.00 0.05 0.09 0.12 0.17 0.24 0.27 0.35 0.41 0.40 0.38 0.28 0.24 0.24 0.21 0.13 0.09 0.06 0.05 0.04 0.06 0.09 0.10 0.12 0.13 0.16 0.19 0.22 0.25 0.26 0.20 0.14 0.12 0.15 0.18 0.19 0.20 0.24 0.26 0.21 0.15 0.11 0.08 0.08
0.00 0.00 0.00 0.00 0.00 0.00 0.03 0.08 0.12 0.19 0.25 0.27 0.28 0.37 0.38 0.42 0.36 0.31 0.29 0.27 0.17 0.14 0.13 0.09 0.08 0.08 0.10 0.12 0.13 0.17 0.19 0.23 0.28 0.32 0.31 0.23 0.16 0.15 0.18 0.22 0.25 0.25 0.28 0.33 0.29 0.25 0.17 0.12 0.10
0.00 0.00 0.00 0.00 0.00 0.00 0.02 0.05 0.09 0.14 0.19 0.23 0.27 0.40 0.51 0.57 0.49 0.43 0.39 0.36 0.28 0.25 0.23 0.18 0.14 0.10 0.12 0.12 0.12 0.16 0.21 0.26 0.33 0.37 0.32 0.25 0.19 0.17 0.19 0.25 0.27 0.30 0.33 0.32 0.28 0.24 0.19 0.17 0.17
0.00 0.00 0.00 0.00 0.00 0.01 0.02 0.04 0.06 0.12 0.16 0.20 0.31 0.49 0.74 0.76 0.67 0.60 0.51 0.44 0.34 0.30 0.24 0.18 0.16 0.14 0.19 0.23 0.18 0.17 0.21 0.26 0.33 0.39 0.35 0.27 0.22 0.23 0.27 0.29 0.32 0.35 0.31 0.27 0.25 0.21 0.18 0.21 0.26
0.00 0.00 0.00 0.00 0.00 0.01 0.03 0.04 0.08 0.11 0.19 0.25 0.37 0.56 0.82 0.86 0.70 0.63 0.61 0.53 0.39 0.35 0.29 0.23 0.22 0.18 0.19 0.19 0.19 0.21 0.23 0.26 0.32 0.37 0.40 0.33 0.26 0.33 0.38 0.37 0.39 0.41 0.35 0.29 0.27 0.26 0.22 0.27 0.33
0.00 0.00 0.00 0.00 0.01 0.01 0.04 0.06 0.09 0.15 0.28 0.37 0.49 0.53 0.92 1.09 0.88 0.78 0.72 0.76 0.74 0.78 0.80 0.55 0.41 0.29 0.21 0.18 0.20 0.22 0.24 0.27 0.30 0.31 0.32 0.32 0.32 0.34 0.38 0.35 0.36 0.36 0.29 0.25 0.25 0.26 0.25 0.22 0.20
0.00 0.00 0.00 0.00 0.01 0.03 0.04 0.07 0.09 0.18 0.37 0.43 0.50 0.54 0.83 0.88 0.89 1.01 1.02 1.20 1.20 1.28 1.40 1.05 0.65 0.46 0.40 0.34 0.28 0.28 0.25 0.29 0.27 0.25 0.28 0.33 0.43 0.52 0.53 0.38 0.37 0.33 0.29 0.26 0.26 0.24 0.21 0.17 0.15
0.00 0.00 0.00 0.00 0.01 0.02 0.03 0.07 0.15 0.18 0.33 0.38 0.42 0.48 0.67 0.84 0.95 1.15 1.32 1.91 1.80 1.58 1.51 1.31 0.89 0.89 0.89 0.71 0.60 0.47 0.36 0.35 0.31 0.39 0.37 0.47 0.75 0.85 0.67 0.64 0.50 0.44 0.42 0.37 0.35 0.32 0.27 0.21 0.21
0.00 0.00 0.00 0.01 0.02 0.02 0.04 0.09 0.18 0.24 0.35 0.38 0.44 0.58 0.73 0.91 0.98 1.15 1.45 1.99 2.12 1.73 1.40 1.15 1.03 0.94 1.04 0.99 0.93 0.81 0.72 0.73 0.68 0.72 0.70 0.82 0.89 0.77 0.69 0.80 0.72 0.67 0.59 0.56 0.58 0.46 0.37 0.36 0.39
0.00 0.00 0.01 0.01 0.03 0.04 0.09 0.16 0.19 0.26 0.42 0.51 0.49 0.61 0.82 0.92 0.91 1.19 1.71 1.77 1.70 1.56 1.44 1.35 1.34 1.20 1.17 1.35 1.34 1.26 1.21 1.10 0.96 0.95 0.92 1.09 1.22 1.16 1.18 1.20 1.15 1.23 1.17 1.04 0.90 0.73 0.62 0.54 0.46
0.01 0.01 0.01 0.02 0.03 0.05 0.14 0.26 0.19 0.20 0.28 0.38 0.44 0.57 0.76 0.89 1.08 1.41 1.70 1.83 1.78 1.75 1.61 1.51 1.54 1.45 1.34 1.54 1.68 1.54 1.46 1.31 1.17 1.13 1.16 1.23 1.29 1.34 1.47 1.47 1.58 1.57 1.47 1.26 1.09 0.89 0.87 0.80 0.69
0.01 0.01 0.02 0.03 0.04 0.08 0.08 0.14 0.10 0.16 0.21 0.28 0.33 0.48 0.67 0.83 1.13 1.41 1.60 1.82 1.96 2.13 1.89 1.62 1.57 1.48 1.42 1.50 1.61 1.60 1.49 1.48 1.50 1.46 1.40 1.36 1.44 1.63 1.69 1.70 1.66 1.57 1.45 1.42 1.39 1.25 1.22 1.14 1.07
0.02 0.02 0.03 0.04 0.04 0.05 0.04 0.07 0.09 0.14 0.18 0.20 0.28 0.44 0.68 0.99 1.09 1.26 1.50 1.87 2.10 2.31 2.23 1.94 1.78 1.70 1.66 1.60 1.58 1.52 1.54 1.69 1.66 1.75 1.78 1.59 1.50 1.59 1.71 1.88 1.82 1.70 1.66 1.63 1.55 1.53 1.52 1.41 1.32
0.03 0.02 0.03 0.05 0.04 0.03 0.03 0.09 0.13 0.15 0.15 0.17 0.24 0.35 0.59 0.95 0.90 0.94 1.25 1.78 2.44 2.74 2.61 2.06 1.73 1.83 1.91 1.97 1.92 1.94 1.91 1.98 1.94 1.81 1.88 1.85 1.86 1.80 1.80 1.85 1.78 1.70 1.69 1.84 1.87 1.83 1.79 1.69 1.62
0.04 0.03 0.03 0.04 0.03 0.02 0.04 0.12 0.15 0.17 0.18 0.17 0.25 0.40 0.54 0.60 0.63 0.76 1.14 1.84 2.60 3.25 2.99 2.33 2.02 2.11 2.18 2.25 2.41 2.58 2.64 2.53 2.46 2.35 2.25 2.15 2.21 2.18 2.15 2.21 2.13 2.04 2.10 2.10 1.94 1.99 2.02 2.04 1.93
0.02 0.02 0.02 0.03 0.03 0.04 0.07 0.15 0.18 0.21 0.22 0.24 0.27 0.41 0.43 0.50 0.58 0.77 1.19 1.91 2.64 3.36 3.19 2.72 2.44 2.54 2.51 2.49 2.68 2.83 2.90 2.90 2.97 3.00 2.87 2.68 2.61 2.63 2.73 2.79 2.72 2.53 2.49 2.49 2.50 2.43 2.18 2.02 1.93
0.00 0.01 0.02 0.03 0.04 0.06 0.11 0.19 0.24 0.29 0.28 0.35 0.42 0.48 0.47 0.50 0.59 0.91 1.37 1.95 2.43 2.66 2.67 2.74 2.71 2.74 2.80 2.80 2.88 3.07 3.24 3.30 3.30 3.40 3.43 3.28 3.20 3.23 3.35 3.33 3.24 2.99 2.80 2.70 2.64 2.54 2.34 2.09 1.92
0.01 0.01 0.02 0.04 0.06 0.08 0.15 0.28 0.37 0.43 0.43 0.46 0.58 0.57 0.51 0.52 0.62 0.96 1.34 1.73 2.10 2.40 2.58 2.69 2.63 2.82 3.06 3.39 3.80 4.13 4.32 4.23 4.13 4.08 4.00 3.87 3.77 3.68 3.61 3.58 3.39 3.15 2.96 2.75 2.57 2.48 2.38 2.21 2.05
0.02 0.01 0.04 0.07 0.08 0.12 0.19 0.40 0.48 0.51 0.57 0.60 0.62 0.65 0.62 0.57 0.69 0.94 1.13 1.39 1.70 2.05 2.35 2.55 2.74 3.14 3.59 4.09 4.77 5.23 5.13 4.80 4.65 4.40 4.30 4.09 3.82 3.74 3.75 3.50 3.30 3.10 2.90 2.73 2.53 2.45 2.40 2.22 2.08
0.02 0.02 0.04 0.06 0.07 0.14 0.17 0.43 0.64 0.68 0.79 0.76 0.71 0.66 0.65 0.60 0.63 0.79 1.01 1.22 1.44 1.83 2.22 2.56 2.93 3.43 4.03 4.51 4.97 5.28 5.32 5.12 4.90 4.47 4.11 3.72 3.40 3.22 3.13 3.03 2.85 2.73 2.58 2.44 2.29 2.26 2.20 2.07 1.91
0.01 0.02 0.03 0.03 0.04 0.10 0.16 0.32 0.69 0.85 0.91 0.90 0.77 0.67 0.56 0.52 0.53 0.60 0.75 0.97 1.26 1.68 2.12 2.49 2.85 3.40 3.95 4.46 4.83 5.04 5.17 5.07 4.76 4.16 3.58 3.21 2.92 2.71 2.50 2.32 2.22 2.19 2.10 1.90 1.74 1.69 1.67 1.60 1.53
0.01 0.01 0.03 0.05 0.07 0.14 0.15 0.31 0.79 1.07 1.01 0.87 0.80 0.73 0.61 0.53 0.54 0.57 0.65 0.80 1.08 1.44 1.82 2.20 2.54 3.19 3.83 4.35 4.73 4.97 5.01 4.75 4.22 3.63 3.12 2.82 2.59 2.37 2.17 2.03 1.85 1.74 1.61 1.44 1.26 1.20 1.23 1.28 1.29
0.01 0.03 0.13 0.19 0.21 0.24 0.20 0.36 0.78 0.90 0.88 0.87 0.79 0.71 0.61 0.55 0.53 0.52 0.61 0.70 0.96 1.30 1.62 1.98 2.35 2.79 3.26 3.65 3.88 4.03 4.06 3.87 3.59 3.23 2.82 2.49 2.29 2.08 1.83 1.59 1.43 1.33 1.26 1.17 1.06 0.96 0.95 1.03 1.07
0.02 0.05 0.15 0.24 0.27 0.30 0.38 0.69 1.02 0.90 0.83 0.82 0.77 0.66 0.57 0.53 0.53 0.56 0.63 0.72 0.85 1.08 1.38 1.75 2.05 2.34 2.56 2.72 2.90 2.90 2.85 2.78 2.65 2.35 2.02 1.76 1.54 1.41 1.24 1.07 1.00 0.94 0.94 0.93 0.90 0.83 0.78 0.82 0.92
0.03 0.05 0.06 0.11 0.15 0.31 0.60 0.84 1.13 1.04 1.04 0.91 0.79 0.70 0.62 0.59 0.57 0.63 0.71 0.75 0.85 0.98 1.18 1.38 1.52 1.71 1.78 1.73 1.74 1.78 1.80 1.77 1.65 1.49 1.27 1.04 0.86 0.77 0.71 0.65 0.64 0.58 0.61 0.67 0.70 0.72 0.73 0.74 0.76
0.04 0.04 0.07 0.15 0.24 0.40 0.63 0.95 1.31 1.37 1.27 1.02 0.82 0.68 0.59 0.59 0.61 0.65 0.72 0.78 0.84 0.89 1.06 1.17 1.18 1.17 1.20 1.22 1.21 1.18 1.19 1.18 1.15 1.09 0.98 0.85 0.72 0.61 0.52 0.49 0.49 0.45 0.43 0.46 0.52 0.56 0.61 0.67 0.68
0.08 0.08 0.09 0.16 0.23 0.41 0.70 1.15 1.27 1.46 1.38 1.18 1.05 0.81 0.70 0.67 0.69 0.73 0.72 0.69 0.70 0.72 0.76 0.83 0.87 0.93 0.94 0.93 0.94 0.92 0.85 0.79 0.77 0.79 0.77 0.70 0.61 0.54 0.47 0.42 0.42 0.40 0.37 0.37 0.39 0.42 0.45 0.53 0.57
0.08 0.09 0.13 0.25 0.31 0.36 0.64 1.31 1.28 1.56 1.54 1.34 1.16 0.92 0.85 0.83 0.79 0.74 0.69 0.65 0.64 0.68 0.71 0.71 0.73 0.74 0.77 0.76 0.74 0.73 0.65 0.59 0.59 0.58 0.57 0.53 0.50 0.48 0.47 0.45 0.43 0.39 0.35 0.33 0.33 0.35 0.35 0.38 0.41

GEFSSGP_prec_meanprecacc_156.txt.gz
Total_Precipitation_Accumulation
0.00 0.00 0.00 0.00 0.00 0.00 0.01 0.04 0.10 0.24 0.25 0.20 0.23 0.29 0.31 0.34 0.50 0.99 0.59 0.33 0.17 0.07 0.05 0.05 0.06 0.07 0.08 0.08 0.08 0.09 0.11 0.15 0.16 0.15 0.13 0.11 0.11 0.11 0.11 0.12 0.16 0.23 0.27 0.26 0.24 0.23 0.24 0.24 0.19
0.00 0.00 0.00 0.00 0.00 0.00 0.02 0.05 0.11 0.19 0.22 0.23 0.27 0.33 0.35 0.28 0.21 0.21 0.23 0.24 0.15 0.08 0.07 0.06 0.06 0.07 0.10 0.09 0.11 0.11 0.14 0.16 0.20 0.20 0.19 0.15 0.12 0.12 0.13 0.14 0.16 0.22 0.25 0.23 0.20 0.17 0.16 0.14 0.10
0.00 0.00 0.00 0.00 0.00 0.01 0.06 0.11 0.13 0.17 0.24 0.27 0.35 0.41 0.40 0.39 0.30 0.27 0.26 0.23 0.15 0.11 0.07 0.05 0.05 0.07 0.10 0.11 0.13 0.15 0.18 0.21 0.24 0.27 0.27 0.21 0.14 0.13 0.16 0.18 0.19 0.21 0.24 0.26 0.22 0.16 0.11 0.09 0.09
0.00 0.00 0.00 0.00 0.00 0.00 0.04 0.12 0.16 0.19 0.25 0.27 0.28 0.39 0.40 0.44 0.39 0.35 0.31 0.28 0.19 0.16 0.14 0.10 0.09 0.09 0.11 0.13 0.15 0.20 0.23 0.26 0.31 0.34 0.32 0.24 0.17 0.16 0.19 0.23 0.25 0.26 0.29 0.33 0.29 0.25 0.18 0.13 0.10
0.00 0.00 0.00 0.00 0.00 0.01 0.02 0.07 0.12 0.16 0.20 0.23 0.29 0.46 0.55 0.59 0.51 0.45 0.40 0.38 0.31 0.27 0.24 0.18 0.14 0.11 0.13 0.14 0.14 0.18 0.23 0.28 0.34 0.38 0.34 0.27 0.21 0.19 0.21 0.26 0.28 0.31 0.33 0.33 0.29 0.25 0.19 0.17 0.18
0.00 0.00 0.00 0.00 0.00 0.01 0.03 0.08 0.09 0.14 0.17 0.21 0.33 0.51 0.78 0.80 0.70 0.63 0.53 0.47 0.37 0.32 0.26 0.19 0.17 0.15 0.20 0.24 0.20 0.19 0.22 0.27 0.35 0.40 0.36 0.28 0.23 0.25 0.29 0.30 0.33 0.36 0.32 0.28 0.26 0.22 0.19 0.21 0.27
0.00 0.00 0.00 0.01 0.01 0.01 0.04 0.09 0.11 0.13 0.20 0.26 0.39 0.60 0.88 0.90 0.72 0.65 0.63 0.55 0.42 0.37 0.32 0.26 0.24 0.20 0.20 0.20 0.20 0.23 0.24 0.27 0.33 0.38 0.41 0.34 0.27 0.34 0.39 0.39 0.40 0.43 0.37 0.31 0.29 0.28 0.24 0.28 0.34
0.00 0.00 0.00 0.01 0.01 0.02 0.05 0.07 0.11 0.18 0.31 0.39 0.52 0.59 0.96 1.11 0.90 0.80 0.75 0.78 0.77 0.82 0.85 0.61 0.48 0.36 0.27 0.22 0.22 0.24 0.26 0.29 0.32 0.33 0.34 0.33 0.34 0.37 0.40 0.37 0.38 0.37 0.31 0.27 0.27 0.29 0.27 0.24 0.22
0.00 0.00 0.00 0.00 0.01 0.04 0.05 0.08 0.11 0.20 0.39 0.45 0.54 0.57 0.86 0.89 0.90 1.04 1.07 1.27 1.27 1.35 1.47 1.14 0.74 0.56 0.48 0.41 0.33 0.32 0.29 0.32 0.31 0.29 0.31 0.37 0.53 0.64 0.65 0.45 0.41 0.36 0.31 0.28 0.28 0.26 0.23 0.18 0.17
0.00 0.00 0.00 0.01 0.01 0.04 0.05 0.09 0.16 0.19 0.35 0.42 0.49 0.55 0.69 0.87 0.97 1.21 1.41 2.00 1.90 1.68 1.62 1.41 0.99 0.99 1.01 0.81 0.69 0.57 0.45 0.44 0.41 0.49 0.45 0.57 0.92 1.02 0.79 0.74 0.56 0.48 0.44 0.40 0.37 0.35 0.30 0.24 0.26
0.00 0.00 0.01 0.01 0.02 0.05 0.07 0.11 0.19 0.26 0.38 0.43 0.51 0.68 0.77 0.95 1.04 1.23 1.53 2.06 2.19 1.80 1.47 1.23 1.13 1.06 1.18 1.15 1.05 0.93 0.86 0.91 0.86 0.86 0.83 0.98 1.05 0.90 0.78 0.92 0.82 0.74 0.64 0.64 0.68 0.54 0.44 0.46 0.50
0.00 0.01 0.01 0.02 0.05 0.07 0.12 0.17 0.21 0.34 0.53 0.60 0.57 0.66 0.87 0.97 0.96 1.24 1.76 1.82 1.77 1.66 1.50 1.41 1.41 1.31 1.30 1.50 1.48 1.40 1.36 1.25 1.10 1.08 1.05 1.24 1.36 1.28 1.29 1.32 1.27 1.35 1.29 1.19 1.04 0.88 0.73 0.65 0.58
0.01 0.02 0.02 0.03 0.04 0.07 0.19 0.29 0.23 0.30 0.43 0.51 0.53 0.60 0.79 0.92 1.11 1.46 1.73 1.87 1.83 1.82 1.66 1.56 1.60 1.55 1.48 1.70 1.85 1.70 1.64 1.46 1.30 1.26 1.28 1.36 1.41 1.47 1.59 1.59 1.69 1.67 1.57 1.37 1.21 1.00 0.99 0.91 0.80
0.01 0.02 0.02 0.03 0.04 0.10 0.13 0.17 0.14 0.24 0.33 0.42 0.42 0.53 0.70 0.85 1.16 1.45 1.66 1.86 2.00 2.17 1.93 1.66 1.63 1.55 1.50 1.60 1.73 1.75 1.66 1.67 1.65 1.59 1.51 1.49 1.60 1.76 1.82 1.83 1.78 1.67 1.53 1.51 1.48 1.33 1.31 1.23 1.15
0.02 0.02 0.04 0.05 0.04 0.06 0.05 0.09 0.13 0.17 0.28 0.32 0.36 0.50 0.72 1.03 1.12 1.31 1.54 1.90 2.13 2.34 2.27 1.98 1.84 1.78 1.74 1.68 1.68 1.66 1.70 1.87 1.83 1.89 1.90 1.71 1.62 1.69 1.81 1.97 1.90 1.77 1.72 1.69 1.60 1.59 1.58 1.47 1.38
0.04 0.03 0.04 0.06 0.05 0.03 0.04 0.14 0.18 0.19 0.20 0.26 0.29 0.39 0.64 1.01 0.95 0.98 1.30 1.82 2.49 2.79 2.65 2.10 1.77 1.92 2.02 2.08 2.04 2.10 2.10 2.19 2.10 1.95 2.02 1.95 1.94 1.87 1.87 1.91 1.86 1.76 1.74 1.90 1.94 1.90 1.86 1.75 1.68
0.04 0.05 0.06 0.05 0.04 0.03 0.06 0.22 0.28 0.22 0.23 0.23 0.29 0.44 0.57 0.65 0.66 0.80 1.18 1.88 2.65 3.28 3.02 2.36 2.06 2.15 2.26 2.33 2.50 2.70 2.77 2.71 2.60 2.47 2.39 2.25 2.29 2.23 2.20 2.27 2.20 2.09 2.15 2.16 2.02 2.06 2.10 2.11 2.01
0.04 0.04 0.10 0.07 0.05 0.05 0.08 0.18 0.25 0.30 0.31 0.34 0.32 0.44 0.46 0.54 0.62 0.79 1.21 1.93 2.66 3.38 3.20 2.74 2.47 2.57 2.56 2.56 2.77 2.94 3.00 2.98 3.04 3.08 2.98 2.76 2.65 2.67 2.76 2.84 2.78 2.58 2.55 2.56 2.58 2.50 2.26 2.10 2.01
0.04 0.02 0.05 0.07 0.06 0.08 0.12 0.20 0.29 0.40 0.37 0.44 0.47 0.51 0.50 0.53 0.62 0.94 1.40 1.97 2.45 2.68 2.68 2.75 2.73 2.77 2.83 2.85 2.94 3.19 3.36 3.38 3.35 3.45 3.48 3.32 3.24 3.27 3.38 3.37 3.30 3.04 2.86 2.77 2.71 2.61 2.41 2.18 2.00
0.06 0.03 0.04 0.09 0.09 0.10 0.18 0.29 0.38 0.48 0.48 0.53 0.62 0.60 0.55 0.54 0.64 1.01 1.38 1.76 2.11 2.42 2.60 2.71 2.66 2.85 3.10 3.44 3.85 4.19 4.42 4.37 4.22 4.15 4.05 3.90 3.80 3.72 3.64 3.62 3.43 3.19 3.02 2.81 2.64 2.56 2.46 2.29 2.13
0.06 0.03 0.06 0.10 0.12 0.14 0.22 0.44 0.50 0.55 0.63 0.67 0.67 0.70 0.68 0.60 0.71 0.98 1.17 1.41 1.71 2.06 2.37 2.57 2.76 3.16 3.62 4.13 4.81 5.26 5.18 4.87 4.73 4.47 4.36 4.13 3.86 3.78 3.79 3.55 3.35 3.15 2.95 2.79 2.59 2.52 2.48 2.29 2.17
0.03 0.03 0.06 0.08 0.10 0.15 0.19 0.47 0.70 0.73 0.84 0.85 0.80 0.72 0.69 0.63 0.64 0.80 1.03 1.24 1.46 1.86 2.26 2.60 2.96 3.46 4.07 4.56 5.03 5.33 5.37 5.17 4.95 4.52 4.16 3.77 3.43 3.24 3.17 3.09 2.89 2.77 2.64 2.49 2.35 2.34 2.27 2.13 1.98
0.02 0.03 0.06 0.06 0.07 0.12 0.18 0.36 0.74 0.90 0.97 0.99 0.87 0.74 0.61 0.55 0.56 0.63 0.78 0.99 1.28 1.70 2.14 2.53 2.88 3.46 4.01 4.53 4.88 5.10 5.23 5.13 4.81 4.19 3.62 3.24 2.94 2.73 2.53 2.36 2.26 2.24 2.14 1.96 1.79 1.76 1.73 1.65 1.57
0.01 0.02 0.05 0.08 0.11 0.19 0.18 0.34 0.85 1.14 1.11 1.00 0.96 0.83 0.66 0.56 0.57 0.60 0.68 0.81 1.10 1.45 1.84 2.22 2.58 3.25 3.88 4.41 4.78 5.02 5.06 4.80 4.26 3.67 3.16 2.84 2.61 2.38 2.19 2.06 1.89 1.79 1.67 1.50 1.33 1.25 1.26 1.31 1.32
0.02 0.04 0.15 0.23 0.28 0.30 0.22 0.38 0.83 0.94 0.93 0.97 0.92 0.79 0.66 0.59 0.56 0.55 0.63 0.71 0.98 1.31 1.63 1.99 2.37 2.83 3.30 3.69 3.92 4.06 4.09 3.91 3.62 3.26 2.86 2.52 2.31 2.10 1.86 1.62 1.45 1.36 1.29 1.20 1.11 1.00 0.98 1.04 1.10
0.03 0.08 0.23 0.31 0.33 0.35 0.42 0.73 1.08 0.95 0.89 0.91 0.89 0.73 0.62 0.56 0.56 0.58 0.65 0.74 0.86 1.09 1.39 1.75 2.07 2.36 2.59 2.76 2.94 2.93 2.88 2.81 2.69 2.39 2.06 1.80 1.57 1.44 1.27 1.09 1.02 0.96 0.95 0.94 0.93 0.87 0.81 0.85 0.95
0.03 0.07 0.08 0.13 0.16 0.35 0.65 0.90 1.21 1.11 1.09 0.97 0.86 0.75 0.66 0.62 0.60 0.65 0.72 0.77 0.86 0.99 1.19 1.39 1.54 1.74 1.80 1.75 1.76 1.81 1.83 1.80 1.69 1.54 1.32 1.09 0.90 0.80 0.73 0.68 0.66 0.61 0.64 0.69 0.73 0.76 0.77 0.77 0.79
0.04 0.05 0.07 0.16 0.27 0.43 0.67 1.03 1.44 1.49 1.36 1.09 0.86 0.71 0.61 0.61 0.63 0.67 0.74 0.81 0.87 0.91 1.09 1.19 1.20 1.20 1.23 1.25 1.23 1.21 1.22 1.21 1.18 1.13 1.02 0.88 0.75 0.63 0.54 0.51 0.52 0.47 0.46 0.49 0.55 0.60 0.64 0.70 0.70
0.08 0.08 0.10 0.18 0.25 0.45 0.76 1.27 1.40 1.55 1.46 1.26 1.09 0.83 0.71 0.68 0.71 0.75 0.74 0.72 0.73 0.75 0.79 0.85 0.89 0.95 0.96 0.95 0.96 0.95 0.88 0.82 0.80 0.83 0.81 0.73 0.64 0.57 0.50 0.45 0.44 0.43 0.40 0.40 0.43 0.44 0.47 0.55 0.58
0.08 0.09 0.13 0.26 0.32 0.38 0.68 1.41 1.36 1.64 1.62 1.41 1.21 0.95 0.87 0.84 0.80 0.75 0.71 0.67 0.67 0.71 0.73 0.73 0.75 0.75 0.78 0.78 0.77 0.77 0.69 0.64 0.62 0.61 0.61 0.56 0.53 0.52 0.50 0.48 0.46 0.42 0.37 0.36 0.36 0.36 0.36 0.39 0.42

GEFSSGP_prec_meanprecacc_162.txt.gz
Total_Precipitation_Accumulation
0.00 0.00 0.00 0.00 0.00 0.00 0.03 0.08 0.13 0.26 0.28 0.22 0.24 0.30 0.32 0.37 0.52 1.02 0.66 0.36 0.18 0.07 0.05 0.05 0.06 0.08 0.09 0.08 0.08 0.09 0.12 0.15 0.16 0.15 0.13 0.11 0.11 0.11 0.11 0.13 0.16 0.23 0.27 0.27 0.24 0.23 0.24 0.24 0.19
0.00 0.00 0.00 0.00 0.00 0.01 0.07 0.11 0.17 0.24 0.25 0.24 0.28 0.34 0.36 0.29 0.23 0.26 0.33 0.28 0.16 0.09 0.07 0.06 0.06 0.08 0.10 0.10 0.11 0.12 0.14 0.16 0.20 0.21 0.19 0.16 0.13 0.12 0.13 0.14 0.16 0.22 0.26 0.24 0.20 0.17 0.16 0.14 0.10
0.00 0.00 0.00 0.00 0.00 0.01 0.10 0.16 0.21 0.26 0.28 0.28 0.36 0.43 0.47 0.48 0.36 0.35 0.37 0.26 0.16 0.12 0.07 0.06 0.05 0.07 0.10 0.12 0.14 0.15 0.18 0.22 0.25 0.27 0.27 0.21 0.15 0.13 0.16 0.19 0.19 0.21 0.25 0.26 0.22 0.16 0.12 0.09 0.09
0.00 0.00 0.00 0.00 0.00 0.01 0.05 0.17 0.24 0.25 0.28 0.28 0.30 0.46 0.59 0.56 0.46 0.41 0.37 0.30 0.20 0.16 0.14 0.10 0.10 0.09 0.12 0.14 0.16 0.20 0.24 0.28 0.33 0.35 0.33 0.25 0.17 0.16 0.20 0.24 0.25 0.26 0.29 0.34 0.29 0.25 0.18 0.13 0.11
0.00 0.00 0.00 0.00 0.00 0.01 0.06 0.18 0.24 0.23 0.23 0.25 0.30 0.51 0.63 0.68 0.59 0.49 0.44 0.40 0.32 0.27 0.24 0.18 0.15 0.12 0.14 0.14 0.15 0.19 0.24 0.29 0.36 0.39 0.34 0.27 0.21 0.19 0.21 0.27 0.29 0.31 0.34 0.33 0.29 0.25 0.19 0.18 0.18
0.00 0.00 0.00 0.00 0.01 0.03 0.07 0.14 0.17 0.20 0.22 0.23 0.36 0.56 0.83 0.93 0.77 0.66 0.55 0.49 0.38 0.32 0.26 0.19 0.17 0.15 0.20 0.25 0.21 0.20 0.23 0.28 0.36 0.41 0.37 0.29 0.24 0.25 0.30 0.31 0.34 0.37 0.34 0.29 0.26 0.22 0.19 0.21 0.27
0.00 0.00 0.00 0.01 0.01 0.05 0.10 0.16 0.23 0.21 0.28 0.31 0.45 0.65 0.95 1.00 0.77 0.68 0.66 0.57 0.43 0.38 0.33 0.26 0.25 0.21 0.21 0.22 0.21 0.24 0.25 0.28 0.34 0.39 0.42 0.35 0.29 0.36 0.41 0.41 0.42 0.45 0.39 0.33 0.30 0.29 0.24 0.28 0.35
0.00 0.00 0.00 0.01 0.02 0.05 0.12 0.20 0.31 0.34 0.41 0.50 0.63 0.66 1.03 1.17 0.94 0.85 0.78 0.81 0.80 0.85 0.87 0.63 0.50 0.38 0.29 0.24 0.24 0.26 0.27 0.30 0.33 0.34 0.35 0.35 0.35 0.39 0.43 0.39 0.40 0.40 0.33 0.29 0.29 0.30 0.28 0.25 0.23
0.00 0.00 0.00 0.00 0.02 0.07 0.12 0.16 0.21 0.29 0.44 0.52 0.62 0.64 0.94 0.94 0.96 1.11 1.12 1.35 1.35 1.40 1.50 1.17 0.77 0.61 0.60 0.47 0.34 0.34 0.31 0.34 0.33 0.31 0.34 0.40 0.54 0.66 0.67 0.47 0.45 0.40 0.34 0.31 0.31 0.28 0.25 0.20 0.18
0.00 0.00 0.00 0.01 0.02 0.07 0.13 0.19 0.26 0.25 0.40 0.49 0.56 0.62 0.79 0.96 1.04 1.28 1.49 2.10 1.98 1.75 1.69 1.52 1.06 1.08 1.22 0.92 0.71 0.59 0.49 0.48 0.44 0.53 0.48 0.61 0.94 1.05 0.81 0.77 0.61 0.54 0.49 0.44 0.41 0.39 0.33 0.27 0.27
0.00 0.00 0.01 0.02 0.04 0.07 0.12 0.21 0.31 0.38 0.49 0.55 0.61 0.80 0.87 1.07 1.13 1.33 1.63 2.16 2.29 1.95 1.56 1.29 1.19 1.11 1.25 1.22 1.09 0.97 0.90 0.96 0.94 0.92 0.87 1.02 1.09 0.95 0.84 0.98 0.86 0.78 0.69 0.68 0.72 0.59 0.48 0.48 0.55
0.01 0.01 0.02 0.04 0.08 0.11 0.19 0.29 0.36 0.49 0.66 0.77 0.82 0.90 1.03 1.08 1.04 1.32 1.83 1.88 1.85 1.77 1.58 1.47 1.46 1.36 1.35 1.56 1.56 1.47 1.43 1.32 1.17 1.15 1.10 1.28 1.40 1.34 1.37 1.40 1.34 1.39 1.32 1.24 1.09 0.93 0.77 0.69 0.65
0.01 0.02 0.03 0.06 0.13 0.14 0.25 0.38 0.35 0.43 0.52 0.59 0.67 0.76 0.91 1.04 1.22 1.55 1.82 1.95 1.92 1.91 1.72 1.61 1.65 1.63 1.55 1.78 1.94 1.78 1.74 1.54 1.37 1.32 1.34 1.42 1.48 1.54 1.67 1.67 1.78 1.73 1.61 1.42 1.26 1.07 1.05 0.97 0.86
0.02 0.04 0.06 0.07 0.13 0.20 0.19 0.25 0.24 0.34 0.41 0.51 0.54 0.66 0.84 0.98 1.27 1.55 1.73 1.92 2.05 2.20 1.95 1.71 1.69 1.59 1.55 1.66 1.81 1.81 1.74 1.77 1.73 1.67 1.59 1.58 1.69 1.87 1.90 1.91 1.87 1.74 1.59 1.55 1.52 1.39 1.36 1.28 1.20
0.03 0.05 0.09 0.10 0.11 0.17 0.14 0.19 0.26 0.26 0.34 0.40 0.44 0.61 0.86 1.17 1.24 1.39 1.61 1.95 2.16 2.36 2.29 2.01 1.87 1.82 1.78 1.73 1.72 1.71 1.78 1.99 1.96 1.99 2.00 1.83 1.75 1.86 1.94 2.06 2.00 1.87 1.78 1.74 1.65 1.64 1.61 1.50 1.41
0.06 0.06 0.09 0.12 0.12 0.10 0.11 0.23 0.31 0.32 0.28 0.32 0.35 0.46 0.75 1.14 1.07 1.10 1.38 1.87 2.53 2.81 2.68 2.14 1.80 1.96 2.05 2.10 2.07 2.14 2.19 2.31 2.23 2.07 2.15 2.10 2.08 2.00 2.00 1.99 1.91 1.83 1.79 1.94 1.98 1.94 1.89 1.78 1.70
0.08 0.07 0.08 0.09 0.11 0.10 0.11 0.29 0.38 0.35 0.36 0.33 0.38 0.53 0.67 0.76 0.80 0.96 1.31 1.95 2.70 3.33 3.07 2.40 2.10 2.18 2.29 2.35 2.53 2.73 2.83 2.82 2.73 2.58 2.51 2.37 2.43 2.37 2.32 2.37 2.26 2.13 2.18 2.20 2.05 2.10 2.14 2.14 2.03
0.10 0.08 0.13 0.10 0.09 0.10 0.14 0.24 0.31 0.43 0.41 0.45 0.45 0.59 0.60 0.63 0.71 0.91 1.38 2.09 2.72 3.42 3.25 2.79 2.50 2.61 2.59 2.59 2.79 2.97 3.04 3.03 3.10 3.14 3.09 2.89 2.78 2.78 2.85 2.92 2.85 2.64 2.60 2.61 2.62 2.53 2.29 2.13 2.03
0.11 0.09 0.09 0.10 0.11 0.14 0.19 0.27 0.36 0.47 0.44 0.51 0.62 0.66 0.60 0.60 0.68 1.01 1.50 2.10 2.55 2.73 2.73 2.79 2.77 2.80 2.86 2.87 2.95 3.20 3.38 3.40 3.37 3.48 3.54 3.40 3.31 3.32 3.43 3.42 3.35 3.10 2.91 2.81 2.75 2.64 2.45 2.21 2.01
0.14 0.10 0.08 0.12 0.13 0.16 0.27 0.36 0.45 0.53 0.52 0.58 0.69 0.68 0.63 0.61 0.70 1.06 1.46 1.83 2.18 2.47 2.64 2.75 2.68 2.86 3.12 3.45 3.86 4.20 4.43 4.39 4.24 4.18 4.10 3.95 3.85 3.75 3.66 3.65 3.47 3.23 3.06 2.86 2.68 2.60 2.49 2.31 2.15
0.13 0.09 0.09 0.13 0.17 0.19 0.30 0.55 0.60 0.61 0.70 0.74 0.73 0.78 0.79 0.69 0.76 1.02 1.22 1.50 1.82 2.14 2.42 2.61 2.78 3.17 3.63 4.14 4.82 5.27 5.19 4.89 4.76 4.51 4.40 4.16 3.88 3.81 3.81 3.58 3.39 3.18 2.99 2.82 2.63 2.55 2.50 2.31 2.19
0.08 0.06 0.08 0.10 0.13 0.19 0.23 0.55 0.79 0.80 0.93 0.98 0.89 0.83 0.81 0.76 0.73 0.86 1.07 1.28 1.52 1.93 2.30 2.62 2.98 3.47 4.07 4.56 5.04 5.34 5.38 5.18 4.97 4.55 4.18 3.80 3.46 3.27 3.19 3.11 2.92 2.80 2.67 2.52 2.38 2.36 2.29 2.16 2.01
0.05 0.05 0.08 0.08 0.09 0.15 0.23 0.41 0.81 0.98 1.04 1.07 0.98 0.89 0.75 0.69 0.67 0.71 0.84 1.03 1.31 1.73 2.17 2.55 2.90 3.47 4.02 4.54 4.90 5.11 5.24 5.14 4.83 4.21 3.64 3.27 2.97 2.76 2.55 2.38 2.28 2.27 2.18 1.99 1.83 1.78 1.76 1.69 1.61
0.05 0.05 0.08 0.12 0.14 0.23 0.22 0.38 0.90 1.20 1.18 1.09 1.08 1.03 0.85 0.70 0.68 0.70 0.77 0.88 1.16 1.50 1.87 2.24 2.59 3.26 3.90 4.43 4.80 5.04 5.09 4.83 4.29 3.70 3.20 2.88 2.63 2.40 2.20 2.07 1.91 1.81 1.70 1.53 1.37 1.29 1.29 1.34 1.35
0.06 0.08 0.18 0.26 0.30 0.34 0.25 0.42 0.87 0.99 1.01 1.10 1.06 0.97 0.85 0.73 0.68 0.67 0.77 0.81 1.05 1.37 1.66 2.02 2.40 2.85 3.33 3.73 3.95 4.10 4.13 3.94 3.65 3.29 2.88 2.54 2.33 2.12 1.87 1.63 1.47 1.38 1.32 1.23 1.14 1.04 1.02 1.08 1.12
0.05 0.09 0.24 0.34 0.36 0.38 0.45 0.78 1.16 1.06 1.01 1.03 1.02 0.88 0.79 0.74 0.73 0.72 0.77 0.83 0.92 1.13 1.43 1.79 2.11 2.41 2.64 2.80 2.97 2.97 2.91 2.84 2.72 2.41 2.08 1.82 1.59 1.46 1.29 1.11 1.05 0.99 0.99 0.98 0.96 0.90 0.85 0.88 0.97
0.03 0.07 0.09 0.15 0.18 0.38 0.70 0.96 1.31 1.26 1.24 1.09 0.99 0.92 0.83 0.78 0.77 0.78 0.82 0.84 0.91 1.03 1.24 1.45 1.59 1.78 1.84 1.79 1.80 1.86 1.88 1.84 1.72 1.57 1.35 1.12 0.92 0.82 0.76 0.70 0.70 0.64 0.66 0.72 0.76 0.78 0.79 0.80 0.81
0.04 0.05 0.08 0.19 0.30 0.48 0.73 1.12 1.58 1.63 1.49 1.20 0.97 0.84 0.71 0.71 0.77 0.82 0.85 0.89 0.93 0.96 1.14 1.25 1.24 1.23 1.25 1.28 1.26 1.23 1.24 1.24 1.21 1.15 1.05 0.92 0.79 0.67 0.57 0.55 0.55 0.50 0.47 0.50 0.56 0.61 0.66 0.73 0.73
0.08 0.09 0.10 0.20 0.28 0.50 0.83 1.37 1.51 1.66 1.54 1.38 1.23 0.93 0.80 0.77 0.79 0.85 0.83 0.80 0.79 0.79 0.84 0.89 0.93 0.97 0.98 0.97 0.97 0.96 0.90 0.84 0.83 0.88 0.86 0.78 0.69 0.60 0.53 0.47 0.46 0.45 0.41 0.41 0.45 0.46 0.49 0.57 0.61
0.09 0.10 0.14 0.28 0.36 0.42 0.73 1.47 1.40 1.71 1.69 1.48 1.32 1.03 0.94 0.89 0.86 0.82 0.77 0.71 0.70 0.74 0.77 0.76 0.77 0.78 0.80 0.80 0.78 0.79 0.71 0.66 0.65 0.65 0.65 0.61 0.57 0.56 0.54 0.50 0.48 0.43 0.38 0.36 0.37 0.38 0.37 0.40 0.44

GEFSSGP_prec_meanprecacc_168.txt.gz
Total_Precipitation_Accumulation
0.00 0.00 0.00 0.00 0.00 0.00 0.03 0.09 0.16 0.31 0.35 0.29 0.28 0.32 0.34 0.38 0.54 1.04 0.69 0.38 0.20 0.09 0.06 0.06 0.08 0.08 0.09 0.08 0.08 0.09 0.12 0.15 0.16 0.15 0.13 0.12 0.11 0.11 0.12 0.13 0.17 0.24 0.28 0.27 0.24 0.23 0.24 0.24 0.19
0.00 0.00 0.00 0.00 0.00 0.01 0.07 0.12 0.20 0.28 0.30 0.32 0.33 0.38 0.37 0.31 0.26 0.29 0.36 0.29 0.17 0.10 0.08 0.07 0.07 0.09 0.10 0.10 0.11 0.12 0.15 0.17 0.21 0.21 0.19 0.16 0.13 0.12 0.13 0.14 0.17 0.23 0.26 0.24 0.20 0.17 0.16 0.14 0.11
0.00 0.00 0.00 0.00 0.00 0.01 0.10 0.19 0.25 0.29 0.32 0.35 0.44 0.48 0.49 0.50 0.37 0.37 0.39 0.27 0.18 0.13 0.08 0.06 0.06 0.08 0.11 0.13 0.15 0.17 0.19 0.22 0.25 0.27 0.27 0.21 0.15 0.13 0.17 0.19 0.19 0.21 0.25 0.27 0.22 0.16 0.12 0.10 0.10
0.00 0.00 0.00 0.00 0.00 0.01 0.06 0.19 0.28 0.30 0.34 0.32 0.34 0.50 0.61 0.58 0.48 0.44 0.39 0.32 0.21 0.17 0.15 0.11 0.11 0.11 0.13 0.16 0.18 0.22 0.25 0.28 0.33 0.35 0.33 0.25 0.18 0.16 0.20 0.24 0.26 0.26 0.29 0.34 0.29 0.26 0.18 0.13 0.11
0.00 0.00 0.00 0.00 0.00 0.02 0.08 0.22 0.30 0.28 0.27 0.27 0.33 0.53 0.65 0.71 0.62 0.51 0.45 0.41 0.32 0.28 0.25 0.20 0.16 0.13 0.15 0.16 0.16 0.21 0.25 0.29 0.36 0.40 0.35 0.28 0.22 0.20 0.22 0.28 0.30 0.32 0.34 0.34 0.29 0.25 0.19 0.18 0.18
0.00 0.00 0.00 0.00 0.01 0.04 0.09 0.18 0.23 0.25 0.26 0.26 0.37 0.58 0.86 0.96 0.80 0.68 0.57 0.49 0.39 0.33 0.27 0.20 0.18 0.16 0.21 0.26 0.22 0.21 0.24 0.29 0.36 0.41 0.38 0.30 0.25 0.27 0.32 0.32 0.36 0.38 0.34 0.30 0.27 0.23 0.20 0.22 0.27
0.00 0.00 0.00 0.01 0.02 0.07 0.13 0.20 0.29 0.27 0.34 0.37 0.47 0.66 0.97 1.03 0.80 0.69 0.67 0.58 0.44 0.39 0.33 0.27 0.25 0.21 0.21 0.22 0.22 0.26 0.26 0.29 0.35 0.39 0.43 0.36 0.30 0.37 0.43 0.42 0.43 0.46 0.40 0.34 0.31 0.30 0.26 0.30 0.36
0.00 0.00 0.00 0.01 0.02 0.07 0.15 0.25 0.37 0.41 0.49 0.56 0.67 0.69 1.05 1.19 0.97 0.88 0.80 0.84 0.82 0.86 0.88 0.63 0.50 0.39 0.30 0.25 0.26 0.28 0.29 0.31 0.34 0.35 0.36 0.35 0.36 0.40 0.44 0.41 0.42 0.42 0.35 0.31 0.31 0.31 0.29 0.27 0.26
0.00 0.00 0.00 0.01 0.03 0.09 0.15 0.19 0.25 0.33 0.49 0.57 0.65 0.67 1.00 1.05 1.09 1.19 1.17 1.38 1.37 1.42 1.52 1.19 0.78 0.62 0.62 0.49 0.36 0.36 0.32 0.35 0.34 0.32 0.35 0.41 0.55 0.67 0.68 0.49 0.48 0.44 0.37 0.34 0.35 0.32 0.27 0.22 0.21
0.00 0.00 0.00 0.01 0.03 0.07 0.16 0.23 0.30 0.30 0.45 0.54 0.59 0.66 0.87 1.10 1.22 1.40 1.55 2.14 2.01 1.77 1.71 1.54 1.08 1.10 1.23 0.93 0.72 0.60 0.50 0.50 0.46 0.54 0.50 0.62 0.95 1.06 0.82 0.79 0.64 0.57 0.52 0.47 0.45 0.43 0.37 0.29 0.30
0.00 0.00 0.01 0.02 0.05 0.08 0.13 0.24 0.35 0.43 0.53 0.58 0.64 0.84 0.98 1.25 1.29 1.44 1.70 2.21 2.32 1.97 1.59 1.31 1.20 1.12 1.26 1.23 1.10 0.99 0.92 0.98 0.97 0.96 0.90 1.04 1.10 0.97 0.85 0.99 0.88 0.81 0.72 0.71 0.75 0.63 0.51 0.51 0.58
0.01 0.01 0.02 0.04 0.09 0.12 0.21 0.31 0.42 0.55 0.71 0.81 0.85 0.92 1.09 1.19 1.20 1.47 1.92 1.93 1.89 1.79 1.60 1.48 1.47 1.37 1.36 1.57 1.57 1.49 1.45 1.35 1.21 1.20 1.14 1.31 1.43 1.37 1.39 1.42 1.36 1.41 1.35 1.27 1.11 0.95 0.79 0.71 0.68
0.01 0.03 0.04 0.08 0.14 0.16 0.27 0.41 0.39 0.50 0.58 0.65 0.71 0.79 0.95 1.11 1.31 1.64 1.90 2.00 1.97 1.94 1.74 1.62 1.67 1.64 1.56 1.80 1.96 1.79 1.76 1.58 1.40 1.36 1.38 1.46 1.52 1.57 1.70 1.71 1.80 1.75 1.63 1.43 1.27 1.08 1.07 0.99 0.89
0.02 0.05 0.07 0.09 0.16 0.23 0.22 0.27 0.27 0.39 0.45 0.56 0.58 0.72 0.89 1.06 1.37 1.65 1.84 2.00 2.11 2.24 1.98 1.73 1.72 1.62 1.58 1.69 1.84 1.84 1.77 1.81 1.77 1.71 1.64 1.62 1.73 1.91 1.95 1.96 1.91 1.78 1.62 1.57 1.54 1.40 1.37 1.30 1.22
0.04 0.05 0.12 0.13 0.14 0.22 0.19 0.24 0.30 0.30 0.39 0.45 0.49 0.67 0.93 1.25 1.33 1.50 1.72 2.02 2.23 2.43 2.34 2.05 1.91 1.86 1.82 1.77 1.76 1.74 1.82 2.03 2.00 2.04 2.06 1.89 1.81 1.91 1.99 2.10 2.03 1.90 1.81 1.78 1.69 1.67 1.64 1.53 1.44
0.08 0.07 0.11 0.14 0.15 0.15 0.17 0.32 0.37 0.38 0.35 0.38 0.41 0.51 0.81 1.20 1.14 1.18 1.46 1.95 2.61 2.90 2.76 2.22 1.86 2.01 2.10 2.14 2.11 2.17 2.22 2.35 2.28 2.13 2.21 2.15 2.13 2.04 2.03 2.02 1.94 1.86 1.81 1.98 2.04 1.99 1.93 1.81 1.72
0.11 0.09 0.10 0.11 0.13 0.13 0.15 0.39 0.49 0.45 0.43 0.39 0.43 0.58 0.72 0.83 0.88 1.05 1.40 2.04 2.80 3.44 3.17 2.50 2.17 2.23 2.33 2.39 2.56 2.76 2.86 2.85 2.76 2.60 2.56 2.42 2.46 2.40 2.35 2.40 2.30 2.17 2.21 2.24 2.10 2.14 2.17 2.17 2.05
0.11 0.10 0.15 0.11 0.10 0.12 0.16 0.29 0.45 0.56 0.51 0.53 0.51 0.64 0.66 0.70 0.79 1.01 1.48 2.18 2.86 3.54 3.36 2.87 2.58 2.69 2.65 2.64 2.84 3.00 3.07 3.08 3.13 3.16 3.11 2.92 2.81 2.81 2.88 2.94 2.87 2.67 2.63 2.64 2.66 2.57 2.33 2.16 2.06
0.12 0.13 0.12 0.13 0.12 0.15 0.21 0.29 0.42 0.54 0.49 0.56 0.66 0.71 0.65 0.65 0.75 1.09 1.60 2.23 2.69 2.86 2.85 2.90 2.87 2.91 2.96 2.93 2.99 3.23 3.41 3.43 3.40 3.50 3.55 3.41 3.33 3.35 3.45 3.44 3.38 3.14 2.96 2.84 2.78 2.67 2.48 2.24 2.04
0.14 0.15 0.16 0.19 0.16 0.18 0.29 0.39 0.50 0.58 0.56 0.62 0.74 0.73 0.67 0.65 0.75 1.14 1.53 1.93 2.30 2.60 2.75 2.84 2.77 2.96 3.22 3.54 3.92 4.25 4.47 4.42 4.27 4.20 4.11 3.96 3.85 3.77 3.68 3.67 3.49 3.26 3.12 2.91 2.72 2.62 2.52 2.34 2.17
0.14 0.10 0.15 0.21 0.22 0.22 0.32 0.57 0.65 0.66 0.74 0.78 0.78 0.83 0.83 0.73 0.81 1.09 1.30 1.59 1.91 2.26 2.53 2.68 2.88 3.29 3.74 4.21 4.88 5.32 5.22 4.91 4.79 4.53 4.41 4.17 3.89 3.81 3.82 3.60 3.41 3.20 3.01 2.86 2.65 2.58 2.52 2.33 2.22
0.09 0.07 0.10 0.14 0.16 0.21 0.25 0.57 0.83 0.84 0.99 1.04 0.93 0.87 0.86 0.82 0.79 0.95 1.17 1.38 1.62 2.02 2.40 2.72 3.09 3.61 4.20 4.64 5.09 5.38 5.41 5.20 4.99 4.56 4.19 3.81 3.46 3.28 3.20 3.14 2.94 2.82 2.68 2.54 2.39 2.37 2.31 2.19 2.03
0.06 0.06 0.09 0.10 0.11 0.17 0.24 0.42 0.83 1.01 1.07 1.14 1.02 0.94 0.81 0.75 0.75 0.81 0.95 1.13 1.41 1.82 2.26 2.63 2.97 3.55 4.10 4.60 4.95 5.16 5.27 5.17 4.85 4.23 3.65 3.28 2.98 2.77 2.57 2.40 2.31 2.29 2.20 2.01 1.84 1.79 1.77 1.70 1.63
0.06 0.06 0.09 0.14 0.15 0.24 0.23 0.39 0.91 1.21 1.20 1.13 1.12 1.07 0.90 0.77 0.77 0.79 0.87 0.98 1.26 1.59 1.94 2.29 2.64 3.30 3.93 4.46 4.84 5.09 5.13 4.87 4.33 3.73 3.22 2.91 2.67 2.44 2.24 2.11 1.95 1.84 1.72 1.55 1.39 1.30 1.31 1.35 1.36
0.07 0.09 0.19 0.27 0.31 0.34 0.26 0.42 0.88 1.00 1.02 1.12 1.08 1.00 0.89 0.80 0.76 0.76 0.88 0.93 1.15 1.45 1.73 2.06 2.43 2.88 3.36 3.77 4.00 4.16 4.19 4.00 3.69 3.34 2.92 2.57 2.36 2.16 1.92 1.67 1.50 1.41 1.34 1.25 1.17 1.07 1.04 1.10 1.14
0.05 0.09 0.25 0.35 0.37 0.38 0.46 0.79 1.17 1.06 1.02 1.05 1.04 0.90 0.82 0.80 0.82 0.82 0.90 0.95 1.01 1.21 1.48 1.84 2.14 2.44 2.68 2.86 3.04 3.03 2.99 2.92 2.77 2.45 2.12 1.86 1.63 1.50 1.33 1.15 1.08 1.03 1.01 1.00 0.98 0.92 0.87 0.89 0.99
0.04 0.07 0.10 0.15 0.18 0.38 0.70 0.96 1.31 1.27 1.26 1.11 1.01 0.94 0.86 0.83 0.84 0.87 0.91 0.93 1.00 1.11 1.30 1.50 1.64 1.83 1.89 1.85 1.86 1.91 1.92 1.89 1.77 1.61 1.39 1.16 0.97 0.86 0.79 0.73 0.72 0.67 0.69 0.74 0.77 0.79 0.80 0.82 0.83
0.05 0.06 0.08 0.20 0.30 0.48 0.73 1.13 1.58 1.64 1.50 1.21 0.98 0.87 0.75 0.75 0.85 0.91 0.95 1.01 1.07 1.08 1.23 1.31 1.29 1.27 1.30 1.32 1.30 1.27 1.27 1.28 1.25 1.19 1.09 0.96 0.82 0.70 0.60 0.57 0.57 0.52 0.50 0.52 0.57 0.62 0.68 0.74 0.75
0.09 0.09 0.11 0.21 0.29 0.50 0.83 1.38 1.52 1.67 1.55 1.40 1.27 0.96 0.83 0.81 0.85 0.94 0.92 0.91 0.90 0.89 0.92 0.95 0.98 1.01 1.02 1.00 1.00 0.99 0.92 0.87 0.86 0.90 0.88 0.81 0.71 0.62 0.56 0.50 0.49 0.48 0.44 0.43 0.46 0.48 0.51 0.58 0.62
0.09 0.10 0.14 0.29 0.36 0.42 0.74 1.48 1.42 1.72 1.70 1.51 1.36 1.06 0.96 0.92 0.90 0.86 0.81 0.75 0.73 0.76 0.80 0.80 0.81 0.81 0.84 0.83 0.80 0.80 0.72 0.67 0.66 0.66 0.66 0.62 0.59 0.58 0.56 0.53 0.51 0.46 0.41 0.39 0.39 0.39 0.39 0.42 0.46

GEFSSGP_prec_meanprecacc_174.txt.gz
Total_Precipitation_Accumulation
0.00 0.00 0.00 0.00 0.00 0.00 0.03 0.09 0.16 0.32 0.37 0.29 0.29 0.33 0.34 0.39 0.55 1.06 0.70 0.39 0.22 0.11 0.08 0.07 0.09 0.10 0.10 0.10 0.09 0.10 0.12 0.16 0.17 0.16 0.14 0.12 0.11 0.11 0.12 0.14 0.18 0.24 0.29 0.28 0.25 0.24 0.24 0.25 0.20
0.00 0.00 0.00 0.00 0.00 0.01 0.07 0.12 0.21 0.30 0.31 0.33 0.34 0.39 0.38 0.31 0.26 0.30 0.38 0.31 0.19 0.12 0.11 0.08 0.09 0.10 0.12 0.12 0.14 0.14 0.16 0.18 0.21 0.21 0.19 0.16 0.13 0.12 0.14 0.15 0.17 0.23 0.27 0.25 0.21 0.18 0.17 0.15 0.11
0.00 0.00 0.00 0.00 0.00 0.01 0.11 0.19 0.26 0.30 0.33 0.36 0.45 0.49 0.50 0.50 0.38 0.38 0.40 0.29 0.20 0.16 0.12 0.09 0.08 0.11 0.14 0.16 0.18 0.21 0.21 0.24 0.26 0.28 0.28 0.22 0.15 0.14 0.17 0.20 0.20 0.22 0.26 0.28 0.23 0.17 0.13 0.10 0.10
0.00 0.00 0.00 0.00 0.00 0.01 0.06 0.19 0.28 0.31 0.35 0.33 0.35 0.50 0.62 0.59 0.50 0.46 0.41 0.34 0.24 0.21 0.20 0.16 0.16 0.16 0.19 0.19 0.21 0.26 0.28 0.30 0.34 0.36 0.34 0.26 0.19 0.18 0.21 0.25 0.27 0.27 0.30 0.35 0.30 0.27 0.19 0.14 0.12
0.00 0.00 0.00 0.00 0.00 0.02 0.08 0.22 0.31 0.29 0.28 0.28 0.33 0.54 0.66 0.73 0.64 0.53 0.47 0.44 0.36 0.32 0.31 0.26 0.22 0.19 0.21 0.20 0.20 0.24 0.28 0.32 0.38 0.42 0.37 0.30 0.24 0.22 0.24 0.30 0.31 0.34 0.36 0.35 0.31 0.27 0.20 0.19 0.19
0.00 0.00 0.00 0.00 0.01 0.04 0.10 0.18 0.23 0.25 0.27 0.27 0.38 0.59 0.88 0.99 0.83 0.71 0.60 0.53 0.43 0.37 0.33 0.26 0.21 0.19 0.26 0.31 0.28 0.27 0.29 0.33 0.40 0.45 0.41 0.33 0.28 0.29 0.34 0.35 0.38 0.41 0.37 0.32 0.30 0.27 0.22 0.24 0.29
0.00 0.00 0.00 0.01 0.02 0.08 0.14 0.21 0.30 0.28 0.35 0.38 0.48 0.67 0.99 1.07 0.84 0.73 0.70 0.62 0.50 0.46 0.40 0.33 0.31 0.26 0.26 0.27 0.27 0.30 0.30 0.33 0.38 0.43 0.46 0.39 0.33 0.40 0.46 0.45 0.46 0.48 0.43 0.37 0.35 0.34 0.29 0.33 0.38
0.00 0.00 0.00 0.01 0.03 0.08 0.16 0.26 0.38 0.42 0.50 0.58 0.68 0.70 1.07 1.22 1.00 0.91 0.85 0.91 0.91 0.96 0.95 0.68 0.56 0.45 0.35 0.29 0.29 0.31 0.32 0.34 0.37 0.38 0.39 0.39 0.39 0.43 0.47 0.44 0.45 0.45 0.39 0.34 0.34 0.36 0.34 0.30 0.28
0.00 0.00 0.00 0.01 0.03 0.09 0.15 0.20 0.26 0.34 0.50 0.60 0.68 0.69 1.01 1.06 1.11 1.25 1.26 1.47 1.45 1.49 1.56 1.21 0.82 0.66 0.65 0.51 0.37 0.37 0.34 0.36 0.36 0.35 0.38 0.44 0.59 0.70 0.71 0.52 0.52 0.47 0.41 0.38 0.38 0.35 0.31 0.25 0.24
0.00 0.00 0.00 0.01 0.03 0.08 0.16 0.24 0.30 0.31 0.46 0.56 0.61 0.68 0.90 1.12 1.23 1.42 1.59 2.18 2.04 1.81 1.73 1.56 1.10 1.12 1.25 0.94 0.74 0.62 0.52 0.51 0.48 0.57 0.54 0.67 0.99 1.10 0.86 0.82 0.66 0.59 0.54 0.49 0.48 0.47 0.40 0.33 0.34
0.00 0.01 0.01 0.02 0.05 0.09 0.14 0.25 0.36 0.44 0.54 0.59 0.66 0.86 1.02 1.28 1.32 1.45 1.71 2.23 2.34 1.99 1.60 1.32 1.22 1.14 1.28 1.24 1.12 1.00 0.94 1.00 1.00 0.98 0.93 1.09 1.15 1.01 0.88 1.04 0.92 0.85 0.76 0.76 0.80 0.66 0.54 0.55 0.63
0.01 0.01 0.02 0.04 0.09 0.13 0.22 0.32 0.43 0.56 0.72 0.81 0.85 0.93 1.11 1.22 1.23 1.49 1.94 1.96 1.93 1.82 1.62 1.51 1.50 1.39 1.38 1.60 1.60 1.51 1.47 1.38 1.24 1.23 1.17 1.36 1.48 1.42 1.45 1.48 1.41 1.47 1.42 1.33 1.17 1.00 0.85 0.75 0.72
0.01 0.03 0.04 0.08 0.14 0.17 0.28 0.41 0.40 0.51 0.60 0.66 0.72 0.81 0.97 1.14 1.35 1.68 1.95 2.05 2.03 1.98 1.77 1.65 1.70 1.67 1.60 1.84 1.99 1.82 1.79 1.61 1.45 1.41 1.43 1.52 1.59 1.65 1.79 1.78 1.88 1.83 1.71 1.51 1.35 1.14 1.13 1.04 0.93
0.02 0.05 0.08 0.10 0.16 0.24 0.23 0.28 0.28 0.41 0.47 0.58 0.61 0.74 0.92 1.09 1.41 1.70 1.90 2.05 2.15 2.28 2.02 1.76 1.75 1.66 1.63 1.74 1.88 1.88 1.82 1.86 1.82 1.75 1.68 1.68 1.80 1.98 2.02 2.04 2.00 1.88 1.71 1.65 1.61 1.46 1.43 1.35 1.26
0.04 0.06 0.12 0.14 0.16 0.23 0.20 0.25 0.31 0.32 0.42 0.48 0.52 0.70 0.96 1.28 1.37 1.56 1.76 2.07 2.28 2.49 2.40 2.11 1.98 1.92 1.88 1.81 1.80 1.78 1.85 2.07 2.03 2.07 2.10 1.94 1.87 1.97 2.05 2.16 2.10 1.99 1.89 1.84 1.75 1.74 1.69 1.58 1.49
0.08 0.08 0.11 0.16 0.17 0.16 0.19 0.35 0.41 0.40 0.38 0.41 0.44 0.54 0.84 1.24 1.20 1.23 1.51 2.01 2.68 2.97 2.84 2.29 1.93 2.07 2.15 2.19 2.15 2.22 2.26 2.39 2.32 2.16 2.24 2.18 2.17 2.09 2.09 2.10 2.00 1.92 1.86 2.02 2.08 2.04 1.99 1.86 1.77
0.12 0.10 0.10 0.12 0.15 0.15 0.17 0.42 0.56 0.51 0.48 0.43 0.47 0.61 0.76 0.87 0.93 1.09 1.45 2.10 2.88 3.52 3.24 2.56 2.23 2.28 2.38 2.46 2.64 2.84 2.92 2.90 2.80 2.63 2.58 2.46 2.51 2.45 2.41 2.46 2.35 2.21 2.25 2.28 2.13 2.17 2.21 2.22 2.10
0.12 0.10 0.15 0.12 0.11 0.14 0.18 0.31 0.49 0.64 0.58 0.58 0.55 0.68 0.69 0.73 0.82 1.04 1.52 2.24 2.93 3.61 3.43 2.92 2.63 2.74 2.71 2.70 2.91 3.06 3.13 3.13 3.17 3.19 3.14 2.94 2.83 2.84 2.91 2.98 2.91 2.70 2.66 2.68 2.69 2.60 2.36 2.20 2.09
0.12 0.14 0.13 0.13 0.12 0.17 0.21 0.30 0.44 0.59 0.54 0.60 0.70 0.75 0.69 0.70 0.80 1.13 1.65 2.28 2.75 2.92 2.90 2.94 2.92 2.96 3.01 2.98 3.04 3.27 3.46 3.48 3.43 3.53 3.58 3.43 3.34 3.37 3.48 3.48 3.42 3.18 2.99 2.88 2.82 2.71 2.51 2.27 2.06
0.15 0.16 0.17 0.20 0.17 0.19 0.30 0.40 0.52 0.61 0.59 0.64 0.76 0.76 0.70 0.70 0.81 1.20 1.58 1.98 2.36 2.66 2.80 2.90 2.84 3.05 3.29 3.59 3.98 4.30 4.52 4.47 4.31 4.22 4.13 3.98 3.86 3.78 3.70 3.69 3.52 3.29 3.15 2.94 2.75 2.66 2.54 2.36 2.20
0.14 0.11 0.16 0.24 0.26 0.23 0.34 0.60 0.67 0.68 0.76 0.80 0.79 0.85 0.87 0.77 0.85 1.14 1.35 1.63 1.96 2.31 2.58 2.74 2.94 3.35 3.79 4.26 4.94 5.40 5.31 4.98 4.83 4.56 4.44 4.19 3.90 3.83 3.84 3.62 3.43 3.23 3.04 2.89 2.69 2.61 2.55 2.36 2.25
0.10 0.07 0.11 0.16 0.21 0.26 0.28 0.61 0.85 0.87 1.01 1.07 0.96 0.89 0.89 0.86 0.83 0.98 1.20 1.42 1.67 2.09 2.47 2.77 3.13 3.65 4.25 4.69 5.14 5.45 5.48 5.28 5.05 4.60 4.22 3.82 3.47 3.29 3.21 3.14 2.95 2.83 2.71 2.57 2.42 2.39 2.34 2.23 2.08
0.06 0.06 0.09 0.11 0.15 0.21 0.26 0.44 0.84 1.03 1.09 1.15 1.03 0.96 0.82 0.78 0.78 0.85 0.98 1.18 1.48 1.90 2.33 2.69 3.02 3.60 4.16 4.66 5.00 5.20 5.31 5.21 4.88 4.26 3.67 3.30 3.00 2.78 2.58 2.40 2.32 2.30 2.22 2.03 1.87 1.83 1.80 1.75 1.69
0.06 0.06 0.10 0.14 0.17 0.26 0.24 0.40 0.92 1.22 1.21 1.14 1.13 1.09 0.92 0.80 0.79 0.83 0.93 1.07 1.36 1.68 2.04 2.36 2.68 3.34 3.98 4.51 4.88 5.12 5.16 4.90 4.35 3.76 3.25 2.94 2.68 2.45 2.25 2.12 1.96 1.85 1.73 1.57 1.42 1.34 1.34 1.39 1.41
0.07 0.09 0.20 0.29 0.32 0.36 0.26 0.43 0.89 1.00 1.02 1.13 1.09 1.01 0.91 0.81 0.77 0.79 0.93 1.02 1.25 1.54 1.81 2.12 2.48 2.92 3.41 3.81 4.04 4.19 4.23 4.04 3.73 3.37 2.95 2.60 2.38 2.17 1.94 1.69 1.53 1.43 1.36 1.27 1.20 1.11 1.09 1.15 1.20
0.05 0.10 0.26 0.37 0.38 0.40 0.46 0.79 1.17 1.06 1.02 1.05 1.05 0.90 0.83 0.82 0.83 0.85 0.96 1.02 1.09 1.29 1.55 1.89 2.20 2.49 2.72 2.89 3.08 3.07 3.03 2.97 2.82 2.49 2.14 1.88 1.65 1.52 1.36 1.18 1.11 1.05 1.03 1.02 1.00 0.95 0.90 0.93 1.04
0.04 0.08 0.10 0.16 0.18 0.39 0.71 0.97 1.32 1.27 1.26 1.11 1.02 0.94 0.86 0.84 0.86 0.89 0.96 0.99 1.06 1.17 1.36 1.56 1.71 1.89 1.95 1.89 1.91 1.97 1.99 1.95 1.83 1.67 1.43 1.18 0.99 0.89 0.82 0.75 0.75 0.69 0.71 0.76 0.80 0.82 0.84 0.85 0.87
0.05 0.06 0.09 0.21 0.32 0.49 0.74 1.13 1.59 1.64 1.50 1.22 0.99 0.87 0.75 0.76 0.87 0.93 0.97 1.03 1.10 1.12 1.29 1.38 1.36 1.34 1.36 1.37 1.36 1.34 1.35 1.35 1.32 1.24 1.13 0.99 0.84 0.72 0.63 0.60 0.59 0.53 0.51 0.54 0.60 0.65 0.70 0.78 0.79
0.09 0.09 0.11 0.21 0.29 0.51 0.84 1.39 1.52 1.67 1.56 1.40 1.27 0.97 0.84 0.82 0.87 0.96 0.95 0.93 0.93 0.92 0.96 1.00 1.02 1.05 1.05 1.03 1.04 1.05 0.99 0.94 0.91 0.94 0.92 0.83 0.73 0.65 0.58 0.51 0.50 0.49 0.45 0.45 0.49 0.51 0.54 0.62 0.67
0.10 0.12 0.15 0.30 0.37 0.42 0.74 1.49 1.42 1.73 1.71 1.51 1.37 1.07 0.98 0.94 0.92 0.89 0.85 0.77 0.76 0.79 0.82 0.81 0.83 0.84 0.87 0.87 0.84 0.85 0.77 0.71 0.70 0.69 0.68 0.64 0.61 0.61 0.58 0.55 0.53 0.48 0.43 0.41 0.42 0.43 0.42 0.46 0.51

GEFSSGP_prec_meanprecacc_180.txt.gz
Total_Precipitation_Accumulation
0.00 0.00 0.00 0.00 0.00 0.01 0.04 0.10 0.16 0.32 0.37 0.30 0.29 0.33 0.35 0.40 0.61 1.13 0.74 0.43 0.24 0.14 0.10 0.08 0.10 0.10 0.11 0.11 0.11 0.11 0.13 0.16 0.17 0.16 0.14 0.13 0.12 0.12 0.13 0.14 0.18 0.25 0.29 0.28 0.25 0.24 0.25 0.25 0.20
0.00 0.00 0.00 0.00 0.00 0.02 0.08 0.13 0.21 0.30 0.32 0.33 0.34 0.39 0.38 0.31 0.26 0.31 0.41 0.34 0.21 0.15 0.14 0.10 0.10 0.12 0.13 0.14 0.16 0.17 0.18 0.19 0.22 0.22 0.20 0.16 0.13 0.13 0.14 0.15 0.18 0.24 0.28 0.25 0.21 0.18 0.17 0.15 0.11
0.00 0.00 0.00 0.00 0.00 0.02 0.12 0.20 0.26 0.31 0.33 0.36 0.46 0.49 0.50 0.51 0.38 0.40 0.43 0.32 0.22 0.19 0.16 0.11 0.09 0.12 0.16 0.19 0.21 0.23 0.23 0.26 0.27 0.29 0.29 0.23 0.16 0.14 0.18 0.20 0.21 0.22 0.27 0.28 0.23 0.17 0.13 0.10 0.10
0.00 0.00 0.00 0.00 0.00 0.01 0.07 0.20 0.29 0.31 0.35 0.33 0.35 0.50 0.62 0.60 0.51 0.47 0.43 0.36 0.26 0.25 0.25 0.19 0.18 0.18 0.21 0.21 0.23 0.28 0.29 0.32 0.36 0.38 0.35 0.28 0.21 0.19 0.22 0.26 0.28 0.28 0.31 0.36 0.31 0.27 0.19 0.14 0.12
0.00 0.00 0.00 0.00 0.01 0.02 0.09 0.23 0.32 0.30 0.28 0.28 0.34 0.55 0.68 0.75 0.66 0.55 0.49 0.46 0.38 0.37 0.36 0.30 0.26 0.22 0.23 0.22 0.22 0.26 0.30 0.33 0.40 0.44 0.39 0.32 0.25 0.23 0.25 0.31 0.32 0.35 0.37 0.37 0.33 0.28 0.22 0.20 0.20
0.00 0.00 0.00 0.01 0.03 0.05 0.10 0.19 0.26 0.31 0.29 0.27 0.39 0.60 0.90 1.03 0.86 0.74 0.61 0.55 0.45 0.40 0.37 0.30 0.27 0.24 0.29 0.33 0.30 0.29 0.31 0.36 0.43 0.48 0.44 0.35 0.29 0.31 0.36 0.37 0.40 0.43 0.39 0.34 0.32 0.28 0.24 0.26 0.31
0.00 0.00 0.00 0.01 0.04 0.09 0.14 0.22 0.33 0.33 0.37 0.39 0.49 0.68 1.01 1.11 0.87 0.75 0.72 0.64 0.51 0.48 0.45 0.41 0.41 0.37 0.36 0.35 0.32 0.34 0.33 0.36 0.42 0.46 0.49 0.42 0.36 0.43 0.49 0.48 0.48 0.51 0.44 0.38 0.36 0.36 0.31 0.34 0.40
0.00 0.00 0.00 0.01 0.03 0.08 0.16 0.26 0.38 0.43 0.53 0.60 0.71 0.74 1.09 1.25 1.04 0.94 0.87 0.92 0.93 0.99 1.03 0.82 0.76 0.66 0.49 0.38 0.35 0.36 0.36 0.38 0.41 0.42 0.43 0.42 0.42 0.46 0.50 0.46 0.48 0.47 0.40 0.36 0.36 0.37 0.35 0.32 0.31
0.00 0.00 0.00 0.01 0.04 0.10 0.17 0.22 0.26 0.35 0.55 0.66 0.73 0.75 1.03 1.09 1.15 1.29 1.29 1.49 1.47 1.51 1.60 1.27 0.91 0.75 0.74 0.58 0.44 0.45 0.39 0.41 0.41 0.40 0.42 0.49 0.66 0.78 0.77 0.57 0.55 0.50 0.43 0.40 0.40 0.37 0.32 0.27 0.27
0.00 0.00 0.01 0.01 0.04 0.10 0.18 0.25 0.31 0.32 0.49 0.59 0.63 0.69 0.91 1.14 1.28 1.46 1.63 2.21 2.06 1.82 1.75 1.59 1.15 1.18 1.31 1.00 0.80 0.69 0.59 0.57 0.53 0.63 0.61 0.75 1.10 1.18 0.93 0.90 0.72 0.63 0.57 0.52 0.50 0.49 0.42 0.35 0.39
0.00 0.01 0.01 0.04 0.07 0.12 0.18 0.28 0.37 0.46 0.57 0.64 0.68 0.87 1.03 1.31 1.35 1.49 1.75 2.27 2.37 2.01 1.62 1.35 1.25 1.16 1.31 1.29 1.17 1.06 1.01 1.09 1.08 1.07 1.03 1.21 1.30 1.12 0.97 1.15 1.02 0.92 0.81 0.83 0.87 0.71 0.58 0.60 0.69
0.01 0.01 0.03 0.07 0.14 0.18 0.27 0.38 0.46 0.59 0.76 0.86 0.90 0.95 1.14 1.27 1.27 1.53 1.99 2.00 1.98 1.86 1.65 1.54 1.53 1.42 1.42 1.65 1.66 1.57 1.54 1.45 1.33 1.33 1.27 1.48 1.61 1.54 1.56 1.60 1.51 1.56 1.51 1.44 1.28 1.08 0.90 0.81 0.77
0.02 0.03 0.05 0.10 0.21 0.22 0.32 0.45 0.43 0.54 0.62 0.68 0.74 0.84 1.00 1.18 1.39 1.73 2.00 2.10 2.09 2.03 1.81 1.69 1.74 1.72 1.65 1.91 2.07 1.90 1.88 1.70 1.55 1.52 1.53 1.63 1.70 1.77 1.92 1.91 1.99 1.92 1.79 1.60 1.45 1.21 1.19 1.10 0.98
0.02 0.05 0.09 0.11 0.21 0.28 0.25 0.30 0.31 0.44 0.49 0.60 0.63 0.76 0.94 1.12 1.45 1.73 1.93 2.09 2.20 2.32 2.05 1.79 1.78 1.71 1.69 1.82 1.99 2.00 1.92 1.96 1.93 1.86 1.79 1.78 1.91 2.09 2.13 2.14 2.10 1.97 1.79 1.74 1.70 1.54 1.50 1.41 1.32
0.04 0.06 0.13 0.15 0.17 0.25 0.21 0.26 0.32 0.34 0.43 0.49 0.54 0.73 0.98 1.31 1.41 1.60 1.81 2.11 2.34 2.54 2.45 2.16 2.02 1.97 1.94 1.88 1.88 1.87 1.94 2.14 2.11 2.15 2.18 2.01 1.94 2.05 2.14 2.24 2.18 2.07 1.97 1.94 1.84 1.83 1.77 1.64 1.54
0.09 0.08 0.12 0.16 0.18 0.18 0.20 0.37 0.43 0.42 0.39 0.43 0.45 0.56 0.87 1.28 1.23 1.27 1.56 2.05 2.72 3.02 2.89 2.35 1.98 2.12 2.21 2.25 2.22 2.29 2.33 2.46 2.38 2.22 2.30 2.24 2.23 2.15 2.16 2.16 2.07 1.99 1.94 2.10 2.18 2.13 2.08 1.94 1.84
0.12 0.10 0.11 0.13 0.16 0.16 0.19 0.44 0.59 0.54 0.52 0.47 0.51 0.65 0.80 0.92 0.97 1.13 1.48 2.14 2.92 3.56 3.29 2.60 2.28 2.34 2.44 2.52 2.69 2.90 2.98 2.96 2.86 2.68 2.64 2.51 2.54 2.49 2.45 2.50 2.40 2.28 2.32 2.35 2.20 2.25 2.31 2.32 2.18
0.12 0.11 0.17 0.15 0.14 0.16 0.20 0.33 0.52 0.68 0.65 0.65 0.61 0.75 0.78 0.81 0.87 1.07 1.55 2.28 2.98 3.67 3.48 2.97 2.68 2.79 2.76 2.74 2.95 3.11 3.17 3.18 3.22 3.24 3.20 2.99 2.87 2.88 2.96 3.02 2.95 2.75 2.71 2.73 2.75 2.68 2.45 2.28 2.16
0.13 0.16 0.17 0.17 0.15 0.19 0.24 0.33 0.47 0.62 0.58 0.64 0.75 0.83 0.79 0.77 0.85 1.17 1.69 2.36 2.82 2.98 2.96 3.00 2.97 3.00 3.05 3.02 3.07 3.31 3.50 3.53 3.48 3.57 3.61 3.46 3.36 3.40 3.52 3.53 3.48 3.24 3.05 2.93 2.87 2.78 2.59 2.33 2.13
0.17 0.18 0.19 0.21 0.18 0.20 0.30 0.41 0.53 0.63 0.61 0.67 0.79 0.81 0.77 0.77 0.87 1.24 1.65 2.07 2.44 2.74 2.87 2.96 2.90 3.09 3.32 3.63 4.02 4.34 4.57 4.53 4.37 4.28 4.20 4.04 3.92 3.84 3.77 3.76 3.57 3.34 3.20 2.99 2.80 2.72 2.60 2.41 2.25
0.15 0.13 0.17 0.25 0.27 0.24 0.35 0.62 0.69 0.70 0.79 0.85 0.87 0.93 0.95 0.84 0.92 1.20 1.45 1.72 2.03 2.38 2.63 2.79 3.00 3.40 3.83 4.30 4.98 5.44 5.35 5.03 4.88 4.62 4.51 4.27 3.97 3.88 3.87 3.65 3.46 3.26 3.08 2.94 2.75 2.66 2.60 2.41 2.30
0.12 0.09 0.12 0.18 0.23 0.27 0.29 0.64 0.87 0.89 1.06 1.14 1.02 0.96 0.98 0.94 0.96 1.09 1.29 1.52 1.74 2.14 2.54 2.85 3.21 3.72 4.32 4.75 5.19 5.50 5.53 5.32 5.10 4.67 4.31 3.92 3.55 3.32 3.23 3.16 2.97 2.86 2.74 2.62 2.47 2.44 2.40 2.29 2.13
0.08 0.08 0.10 0.13 0.17 0.23 0.28 0.48 0.89 1.08 1.15 1.24 1.11 1.04 0.90 0.82 0.85 0.96 1.08 1.27 1.57 1.96 2.41 2.77 3.11 3.69 4.24 4.75 5.09 5.28 5.38 5.28 4.96 4.33 3.75 3.37 3.05 2.81 2.59 2.41 2.33 2.32 2.25 2.07 1.90 1.87 1.86 1.81 1.76
0.08 0.08 0.11 0.15 0.19 0.29 0.27 0.45 0.98 1.28 1.27 1.20 1.20 1.17 0.98 0.84 0.82 0.86 0.98 1.12 1.43 1.76 2.17 2.47 2.77 3.46 4.11 4.67 5.05 5.26 5.27 5.00 4.43 3.82 3.30 2.97 2.72 2.49 2.28 2.14 1.98 1.88 1.76 1.61 1.45 1.37 1.39 1.45 1.48
0.09 0.12 0.26 0.33 0.37 0.39 0.29 0.47 0.95 1.05 1.05 1.14 1.11 1.05 0.96 0.85 0.79 0.81 0.96 1.04 1.28 1.59 1.87 2.19 2.55 3.02 3.53 3.97 4.23 4.38 4.38 4.16 3.84 3.47 3.04 2.68 2.46 2.24 1.99 1.72 1.56 1.46 1.39 1.31 1.24 1.15 1.13 1.20 1.25
0.07 0.13 0.32 0.44 0.45 0.44 0.49 0.84 1.22 1.08 1.03 1.06 1.06 0.93 0.87 0.85 0.85 0.87 0.98 1.04 1.11 1.31 1.58 1.93 2.26 2.57 2.81 3.00 3.21 3.20 3.15 3.09 2.94 2.62 2.28 2.01 1.75 1.59 1.41 1.22 1.15 1.10 1.08 1.06 1.05 0.99 0.94 0.98 1.09
0.06 0.10 0.13 0.22 0.26 0.48 0.76 1.01 1.36 1.29 1.28 1.13 1.03 0.96 0.89 0.87 0.87 0.90 0.98 0.99 1.07 1.19 1.39 1.60 1.75 1.94 2.00 1.97 1.99 2.05 2.09 2.08 1.97 1.81 1.55 1.27 1.06 0.94 0.85 0.79 0.79 0.73 0.75 0.80 0.84 0.87 0.88 0.91 0.92
0.06 0.08 0.12 0.27 0.40 0.57 0.79 1.21 1.66 1.69 1.53 1.24 1.00 0.88 0.77 0.79 0.88 0.94 0.99 1.05 1.12 1.15 1.32 1.43 1.41 1.39 1.41 1.43 1.42 1.41 1.44 1.46 1.45 1.35 1.21 1.06 0.90 0.76 0.66 0.63 0.61 0.55 0.54 0.57 0.64 0.70 0.76 0.85 0.85
0.10 0.11 0.14 0.25 0.33 0.57 0.92 1.50 1.60 1.73 1.59 1.42 1.29 0.97 0.85 0.85 0.89 0.99 0.98 0.95 0.96 0.95 0.99 1.03 1.06 1.10 1.09 1.07 1.09 1.10 1.07 1.03 1.00 1.03 1.00 0.90 0.78 0.68 0.61 0.54 0.53 0.52 0.49 0.48 0.52 0.55 0.59 0.68 0.72
0.12 0.12 0.17 0.34 0.41 0.46 0.80 1.56 1.47 1.77 1.74 1.53 1.38 1.08 0.99 0.96 0.95 0.93 0.88 0.81 0.79 0.82 0.85 0.84 0.85 0.87 0.90 0.91 0.88 0.90 0.83 0.77 0.76 0.76 0.75 0.69 0.66 0.64 0.61 0.57 0.56 0.52 0.47 0.45 0.46 0.47 0.46 0.51 0.56

GEFSSGP_prec_meanprecacc_186.txt.gz
Total_Precipitation_Accumulation
0.00 0.00 0.00 0.00 0.01 0.02 0.05 0.12 0.22 0.39 0.46 0.35 0.35 0.37 0.37 0.42 0.63 1.16 0.76 0.45 0.26 0.17 0.13 0.10 0.11 0.11 0.11 0.11 0.11 0.12 0.14 0.17 0.18 0.17 0.15 0.13 0.12 0.12 0.13 0.14 0.18 0.25 0.30 0.28 0.25 0.24 0.25 0.25 0.20
0.00 0.00 0.00 0.00 0.01 0.03 0.10 0.15 0.28 0.38 0.39 0.37 0.37 0.44 0.41 0.32 0.27 0.32 0.42 0.36 0.22 0.17 0.17 0.11 0.10 0.12 0.13 0.14 0.16 0.17 0.18 0.19 0.22 0.22 0.20 0.17 0.13 0.13 0.15 0.15 0.18 0.24 0.28 0.25 0.21 0.19 0.17 0.15 0.12
0.00 0.00 0.00 0.00 0.00 0.02 0.15 0.26 0.34 0.38 0.38 0.41 0.47 0.51 0.52 0.52 0.40 0.40 0.44 0.33 0.23 0.20 0.17 0.12 0.10 0.12 0.16 0.19 0.21 0.24 0.24 0.26 0.28 0.30 0.30 0.24 0.17 0.15 0.18 0.20 0.21 0.23 0.27 0.28 0.24 0.17 0.13 0.10 0.10
0.00 0.00 0.00 0.00 0.00 0.02 0.13 0.30 0.36 0.37 0.39 0.38 0.40 0.53 0.65 0.64 0.53 0.48 0.44 0.37 0.26 0.26 0.26 0.20 0.19 0.18 0.21 0.21 0.23 0.28 0.30 0.33 0.37 0.40 0.37 0.29 0.22 0.20 0.23 0.27 0.28 0.29 0.32 0.36 0.31 0.27 0.19 0.14 0.12
0.00 0.00 0.00 0.00 0.01 0.04 0.13 0.31 0.39 0.37 0.34 0.35 0.46 0.63 0.74 0.83 0.71 0.58 0.51 0.47 0.39 0.38 0.37 0.31 0.26 0.22 0.23 0.22 0.22 0.27 0.31 0.34 0.41 0.45 0.40 0.34 0.27 0.24 0.26 0.32 0.33 0.36 0.38 0.37 0.33 0.29 0.22 0.20 0.20
0.00 0.00 0.00 0.01 0.04 0.11 0.16 0.23 0.32 0.41 0.43 0.42 0.52 0.68 0.97 1.11 0.92 0.76 0.63 0.56 0.46 0.42 0.38 0.31 0.28 0.24 0.29 0.33 0.30 0.30 0.32 0.37 0.44 0.49 0.45 0.37 0.31 0.32 0.37 0.38 0.41 0.44 0.40 0.35 0.33 0.29 0.25 0.27 0.31
0.00 0.00 0.00 0.01 0.05 0.13 0.18 0.25 0.38 0.44 0.52 0.54 0.62 0.81 1.10 1.18 0.93 0.78 0.73 0.64 0.53 0.49 0.46 0.41 0.41 0.38 0.36 0.35 0.33 0.35 0.34 0.37 0.43 0.48 0.52 0.44 0.37 0.44 0.50 0.49 0.50 0.52 0.46 0.40 0.38 0.37 0.32 0.35 0.41
0.00 0.00 0.00 0.03 0.05 0.10 0.19 0.31 0.46 0.52 0.60 0.67 0.81 0.89 1.29 1.34 1.10 0.97 0.88 0.92 0.94 1.00 1.04 0.83 0.77 0.66 0.50 0.39 0.36 0.38 0.38 0.41 0.44 0.45 0.46 0.44 0.44 0.48 0.52 0.49 0.50 0.50 0.44 0.39 0.39 0.40 0.36 0.33 0.32
0.00 0.00 0.00 0.02 0.06 0.12 0.22 0.35 0.42 0.46 0.64 0.73 0.78 0.82 1.11 1.13 1.19 1.31 1.30 1.51 1.48 1.52 1.61 1.28 0.92 0.76 0.75 0.60 0.46 0.48 0.42 0.43 0.44 0.43 0.45 0.51 0.68 0.80 0.80 0.60 0.59 0.55 0.50 0.46 0.45 0.40 0.34 0.29 0.28
0.00 0.00 0.01 0.02 0.04 0.12 0.26 0.38 0.42 0.40 0.58 0.69 0.70 0.76 0.93 1.17 1.30 1.48 1.64 2.23 2.08 1.84 1.76 1.60 1.15 1.19 1.32 1.01 0.82 0.73 0.61 0.59 0.57 0.67 0.64 0.78 1.15 1.25 0.98 0.95 0.79 0.73 0.64 0.58 0.55 0.53 0.45 0.37 0.40
0.00 0.01 0.02 0.04 0.08 0.16 0.29 0.40 0.52 0.62 0.70 0.74 0.78 0.97 1.11 1.39 1.39 1.52 1.78 2.29 2.39 2.02 1.64 1.37 1.27 1.18 1.33 1.31 1.18 1.07 1.02 1.11 1.11 1.12 1.10 1.28 1.39 1.22 1.02 1.18 1.05 0.96 0.85 0.87 0.91 0.74 0.60 0.62 0.71
0.01 0.01 0.03 0.08 0.16 0.21 0.33 0.47 0.59 0.79 0.94 0.96 0.96 1.01 1.24 1.37 1.34 1.58 2.02 2.02 1.99 1.87 1.67 1.56 1.55 1.45 1.47 1.68 1.67 1.58 1.55 1.47 1.35 1.35 1.29 1.52 1.66 1.60 1.60 1.63 1.54 1.59 1.53 1.47 1.31 1.11 0.94 0.85 0.82
0.02 0.04 0.06 0.12 0.24 0.26 0.37 0.54 0.53 0.70 0.82 0.81 0.82 0.91 1.09 1.27 1.47 1.80 2.05 2.14 2.11 2.06 1.83 1.71 1.76 1.76 1.70 1.95 2.09 1.93 1.90 1.73 1.58 1.55 1.57 1.68 1.75 1.82 1.97 1.95 2.04 1.97 1.85 1.65 1.49 1.27 1.24 1.14 1.03
0.03 0.06 0.10 0.15 0.27 0.33 0.30 0.37 0.38 0.55 0.62 0.71 0.81 0.87 1.00 1.19 1.53 1.82 2.00 2.15 2.25 2.35 2.07 1.81 1.81 1.74 1.72 1.86 2.02 2.03 1.96 2.01 1.98 1.89 1.83 1.83 1.95 2.13 2.16 2.18 2.14 2.01 1.84 1.79 1.74 1.59 1.56 1.47 1.38
0.05 0.07 0.14 0.19 0.22 0.27 0.24 0.29 0.36 0.40 0.50 0.58 0.72 0.91 1.11 1.44 1.53 1.69 1.88 2.19 2.39 2.58 2.49 2.20 2.07 2.01 1.99 1.95 1.92 1.90 1.98 2.19 2.15 2.19 2.21 2.03 1.97 2.07 2.16 2.29 2.24 2.12 2.01 1.97 1.87 1.87 1.83 1.70 1.60
0.10 0.09 0.15 0.19 0.21 0.21 0.22 0.39 0.47 0.49 0.47 0.52 0.56 0.74 1.13 1.47 1.38 1.40 1.66 2.14 2.78 3.08 2.95 2.40 2.02 2.16 2.26 2.31 2.27 2.34 2.38 2.50 2.42 2.25 2.34 2.27 2.27 2.20 2.22 2.24 2.14 2.06 2.00 2.14 2.22 2.18 2.13 2.00 1.91
0.13 0.12 0.16 0.21 0.20 0.22 0.25 0.48 0.64 0.61 0.62 0.57 0.61 0.79 1.06 1.11 1.09 1.25 1.62 2.28 3.05 3.67 3.37 2.67 2.35 2.39 2.49 2.57 2.74 2.94 3.03 3.01 2.89 2.71 2.68 2.54 2.60 2.56 2.54 2.59 2.49 2.35 2.38 2.39 2.23 2.28 2.34 2.36 2.24
0.13 0.12 0.20 0.20 0.20 0.21 0.24 0.38 0.58 0.73 0.69 0.71 0.69 0.87 0.98 1.04 1.05 1.22 1.72 2.47 3.13 3.78 3.58 3.05 2.77 2.88 2.82 2.78 2.99 3.15 3.22 3.21 3.25 3.27 3.23 3.03 2.93 2.96 3.04 3.10 3.01 2.80 2.75 2.76 2.77 2.70 2.47 2.30 2.20
0.14 0.17 0.20 0.20 0.19 0.22 0.26 0.36 0.51 0.66 0.64 0.69 0.80 0.88 0.85 0.90 1.00 1.30 1.82 2.50 2.96 3.09 3.07 3.12 3.07 3.10 3.11 3.05 3.10 3.33 3.52 3.56 3.51 3.61 3.65 3.49 3.40 3.43 3.56 3.58 3.53 3.29 3.10 2.96 2.88 2.80 2.60 2.34 2.15
0.18 0.19 0.21 0.24 0.21 0.22 0.31 0.44 0.57 0.66 0.66 0.72 0.85 0.86 0.82 0.82 0.94 1.34 1.75 2.18 2.57 2.88 2.98 3.07 3.01 3.17 3.38 3.67 4.06 4.37 4.60 4.56 4.41 4.33 4.23 4.07 3.94 3.87 3.80 3.79 3.62 3.37 3.23 3.02 2.82 2.75 2.62 2.42 2.27
0.16 0.15 0.20 0.28 0.29 0.26 0.36 0.64 0.73 0.75 0.84 0.96 1.01 1.03 1.03 0.91 1.01 1.31 1.54 1.86 2.19 2.51 2.75 2.89 3.10 3.51 3.90 4.36 5.04 5.49 5.40 5.08 4.92 4.66 4.54 4.30 4.02 3.94 3.93 3.69 3.49 3.28 3.09 2.96 2.77 2.68 2.62 2.43 2.31
0.13 0.11 0.16 0.23 0.26 0.29 0.30 0.66 0.91 0.95 1.12 1.27 1.15 1.06 1.06 1.07 1.08 1.18 1.37 1.63 1.88 2.25 2.62 2.93 3.30 3.82 4.40 4.83 5.27 5.56 5.58 5.37 5.15 4.73 4.37 3.99 3.63 3.43 3.30 3.19 2.99 2.87 2.75 2.62 2.48 2.46 2.42 2.31 2.16
0.09 0.10 0.12 0.16 0.19 0.25 0.30 0.50 0.93 1.13 1.21 1.32 1.18 1.10 0.97 0.91 0.97 1.05 1.14 1.33 1.67 2.08 2.50 2.86 3.20 3.77 4.33 4.84 5.19 5.36 5.46 5.35 5.03 4.41 3.83 3.45 3.13 2.88 2.64 2.45 2.35 2.33 2.25 2.07 1.91 1.88 1.87 1.83 1.79
0.09 0.09 0.12 0.18 0.22 0.31 0.29 0.48 1.01 1.32 1.33 1.25 1.23 1.21 1.07 0.93 0.90 0.91 1.01 1.16 1.50 1.87 2.32 2.63 2.90 3.54 4.20 4.77 5.17 5.38 5.40 5.13 4.55 3.94 3.40 3.08 2.82 2.57 2.35 2.19 2.01 1.90 1.78 1.62 1.46 1.38 1.40 1.46 1.50
0.10 0.13 0.27 0.36 0.39 0.41 0.33 0.52 1.00 1.10 1.10 1.18 1.14 1.08 1.05 0.92 0.83 0.85 0.99 1.07 1.33 1.67 2.00 2.31 2.64 3.10 3.60 4.04 4.30 4.49 4.52 4.30 3.97 3.60 3.15 2.79 2.56 2.32 2.05 1.77 1.59 1.49 1.41 1.32 1.25 1.16 1.14 1.21 1.26
0.08 0.14 0.35 0.47 0.48 0.48 0.52 0.89 1.29 1.15 1.09 1.11 1.11 0.98 0.93 0.93 0.90 0.91 1.02 1.09 1.17 1.39 1.66 2.02 2.34 2.63 2.86 3.04 3.25 3.26 3.22 3.16 3.02 2.70 2.35 2.07 1.81 1.64 1.45 1.26 1.18 1.12 1.10 1.08 1.06 1.01 0.95 0.99 1.10
0.06 0.11 0.15 0.25 0.29 0.50 0.79 1.07 1.44 1.37 1.35 1.20 1.10 1.02 0.95 0.95 0.92 0.93 1.03 1.06 1.12 1.23 1.44 1.66 1.82 2.00 2.05 2.01 2.03 2.10 2.13 2.13 2.04 1.88 1.62 1.33 1.12 0.99 0.91 0.84 0.82 0.75 0.77 0.82 0.86 0.88 0.89 0.93 0.95
0.07 0.11 0.16 0.32 0.45 0.63 0.84 1.28 1.76 1.82 1.66 1.37 1.08 0.94 0.83 0.87 0.94 0.99 1.03 1.10 1.15 1.18 1.35 1.46 1.44 1.43 1.46 1.48 1.47 1.45 1.48 1.52 1.52 1.44 1.31 1.15 0.97 0.82 0.72 0.68 0.64 0.57 0.56 0.59 0.65 0.71 0.77 0.86 0.87
0.12 0.14 0.17 0.29 0.38 0.67 1.00 1.56 1.66 1.82 1.70 1.55 1.35 1.02 0.89 0.90 0.95 1.04 1.03 1.00 0.99 0.98 1.02 1.05 1.08 1.13 1.13 1.12 1.14 1.16 1.13 1.09 1.07 1.10 1.10 1.00 0.86 0.74 0.65 0.57 0.55 0.54 0.50 0.50 0.54 0.56 0.61 0.70 0.74
0.13 0.15 0.21 0.39 0.48 0.54 0.87 1.62 1.52 1.84 1.82 1.61 1.45 1.13 1.04 1.00 0.99 0.97 0.93 0.84 0.81 0.84 0.87 0.86 0.88 0.91 0.94 0.95 0.93 0.95 0.88 0.84 0.83 0.81 0.82 0.77 0.74 0.71 0.65 0.60 0.59 0.54 0.48 0.47 0.48 0.48 0.47 0.52 0.58

GEFSSGP_prec_meanprecacc_192.txt.gz
Total_Precipitation_Accumulation
0.00 0.00 0.00 0.00 0.01 0.02 0.05 0.12 0.23 0.41 0.49 0.40 0.39 0.39 0.39 0.45 0.68 1.25 0.81 0.46 0.27 0.18 0.19 0.18 0.16 0.13 0.12 0.12 0.12 0.13 0.14 0.17 0.18 0.17 0.15 0.13 0.13 0.13 0.13 0.15 0.19 0.26 0.30 0.29 0.26 0.25 0.25 0.26 0.21
0.00 0.00 0.00 0.00 0.01 0.03 0.10 0.15 0.29 0.40 0.43 0.43 0.42 0.50 0.50 0.44 0.37 0.38 0.45 0.37 0.23 0.19 0.23 0.17 0.15 0.14 0.14 0.15 0.17 0.18 0.19 0.20 0.23 0.22 0.20 0.17 0.14 0.13 0.15 0.16 0.19 0.25 0.29 0.27 0.23 0.20 0.19 0.17 0.13
0.00 0.00 0.00 0.00 0.00 0.02 0.16 0.26 0.35 0.42 0.42 0.46 0.54 0.57 0.57 0.58 0.45 0.43 0.45 0.34 0.26 0.24 0.21 0.17 0.12 0.13 0.17 0.19 0.22 0.24 0.24 0.27 0.28 0.31 0.30 0.25 0.18 0.16 0.19 0.22 0.22 0.25 0.30 0.31 0.26 0.19 0.14 0.12 0.12
0.00 0.00 0.00 0.00 0.01 0.02 0.14 0.31 0.38 0.42 0.43 0.41 0.44 0.58 0.68 0.66 0.55 0.50 0.45 0.37 0.28 0.30 0.29 0.22 0.20 0.19 0.22 0.22 0.24 0.29 0.31 0.33 0.38 0.40 0.37 0.30 0.23 0.21 0.24 0.28 0.30 0.31 0.35 0.39 0.33 0.29 0.20 0.16 0.14
0.00 0.00 0.00 0.00 0.02 0.05 0.14 0.32 0.41 0.42 0.38 0.38 0.49 0.67 0.78 0.87 0.74 0.59 0.51 0.48 0.40 0.40 0.39 0.33 0.28 0.25 0.25 0.23 0.23 0.27 0.31 0.34 0.41 0.46 0.41 0.34 0.27 0.25 0.28 0.35 0.36 0.39 0.41 0.40 0.35 0.31 0.24 0.22 0.21
0.00 0.00 0.00 0.01 0.05 0.12 0.18 0.25 0.36 0.45 0.46 0.44 0.55 0.74 1.03 1.15 0.96 0.78 0.63 0.57 0.47 0.43 0.40 0.33 0.30 0.27 0.32 0.35 0.31 0.30 0.33 0.37 0.44 0.49 0.46 0.38 0.32 0.34 0.40 0.41 0.45 0.47 0.43 0.38 0.35 0.32 0.28 0.29 0.33
0.00 0.00 0.00 0.02 0.06 0.14 0.19 0.27 0.42 0.48 0.54 0.56 0.65 0.86 1.17 1.23 0.98 0.81 0.74 0.65 0.54 0.50 0.47 0.43 0.44 0.40 0.38 0.36 0.33 0.35 0.34 0.38 0.43 0.49 0.52 0.46 0.39 0.47 0.53 0.52 0.54 0.56 0.49 0.42 0.40 0.39 0.34 0.37 0.43
0.00 0.00 0.00 0.03 0.05 0.11 0.21 0.33 0.49 0.55 0.63 0.69 0.83 0.93 1.37 1.39 1.13 0.98 0.89 0.93 0.94 1.01 1.05 0.84 0.78 0.67 0.51 0.41 0.38 0.39 0.39 0.41 0.46 0.46 0.48 0.47 0.46 0.50 0.54 0.51 0.53 0.52 0.46 0.42 0.42 0.42 0.38 0.34 0.34
0.00 0.00 0.00 0.02 0.06 0.12 0.23 0.36 0.45 0.50 0.68 0.76 0.82 0.86 1.15 1.17 1.21 1.32 1.31 1.52 1.49 1.53 1.62 1.28 0.93 0.77 0.76 0.61 0.48 0.52 0.45 0.45 0.46 0.45 0.48 0.54 0.70 0.82 0.82 0.62 0.61 0.58 0.53 0.50 0.48 0.43 0.37 0.32 0.31
0.00 0.00 0.01 0.02 0.05 0.13 0.26 0.40 0.47 0.48 0.68 0.77 0.77 0.82 0.98 1.19 1.32 1.50 1.66 2.25 2.09 1.85 1.78 1.61 1.17 1.20 1.33 1.02 0.84 0.75 0.63 0.61 0.58 0.68 0.66 0.79 1.15 1.25 1.00 0.97 0.82 0.77 0.69 0.63 0.61 0.59 0.51 0.42 0.43
0.00 0.01 0.02 0.04 0.08 0.16 0.30 0.43 0.55 0.67 0.78 0.83 0.90 1.03 1.15 1.42 1.42 1.55 1.81 2.32 2.41 2.04 1.66 1.39 1.28 1.20 1.34 1.32 1.19 1.08 1.04 1.12 1.13 1.14 1.12 1.30 1.40 1.23 1.03 1.19 1.07 0.98 0.88 0.90 0.95 0.79 0.65 0.67 0.75
0.01 0.01 0.03 0.08 0.16 0.22 0.35 0.50 0.64 0.87 1.01 1.02 1.02 1.06 1.28 1.40 1.39 1.62 2.05 2.03 2.01 1.90 1.70 1.58 1.56 1.46 1.48 1.69 1.68 1.59 1.56 1.48 1.37 1.37 1.32 1.54 1.69 1.61 1.61 1.64 1.56 1.61 1.56 1.50 1.34 1.16 0.99 0.90 0.87
0.02 0.04 0.06 0.12 0.25 0.27 0.38 0.56 0.55 0.74 0.88 0.90 0.89 0.96 1.14 1.33 1.53 1.84 2.08 2.16 2.16 2.10 1.87 1.74 1.79 1.78 1.72 1.97 2.10 1.94 1.91 1.74 1.59 1.56 1.60 1.71 1.78 1.84 2.00 2.00 2.07 1.99 1.88 1.68 1.53 1.31 1.29 1.19 1.08
0.03 0.06 0.11 0.16 0.28 0.33 0.31 0.38 0.39 0.57 0.67 0.78 0.91 0.96 1.07 1.26 1.59 1.85 2.03 2.19 2.32 2.44 2.13 1.88 1.87 1.78 1.75 1.89 2.04 2.06 1.98 2.03 1.99 1.92 1.86 1.86 1.98 2.16 2.20 2.22 2.18 2.05 1.87 1.83 1.79 1.64 1.61 1.51 1.41
0.05 0.08 0.15 0.19 0.23 0.28 0.24 0.30 0.37 0.41 0.52 0.61 0.80 1.04 1.20 1.52 1.59 1.73 1.91 2.22 2.43 2.64 2.55 2.27 2.14 2.08 2.08 2.04 2.00 1.97 2.03 2.24 2.19 2.23 2.25 2.08 2.01 2.10 2.19 2.32 2.27 2.15 2.05 2.01 1.91 1.90 1.86 1.73 1.64
0.10 0.10 0.15 0.20 0.22 0.21 0.23 0.40 0.48 0.50 0.50 0.56 0.62 0.86 1.26 1.56 1.44 1.43 1.68 2.16 2.81 3.12 3.00 2.48 2.13 2.25 2.37 2.45 2.41 2.44 2.44 2.56 2.48 2.31 2.39 2.33 2.32 2.25 2.27 2.27 2.18 2.10 2.04 2.19 2.25 2.21 2.16 2.03 1.94
0.14 0.13 0.17 0.21 0.21 0.23 0.25 0.48 0.65 0.62 0.65 0.61 0.65 0.85 1.16 1.18 1.14 1.30 1.67 2.33 3.12 3.73 3.44 2.74 2.43 2.48 2.59 2.65 2.82 3.01 3.08 3.05 2.93 2.76 2.73 2.61 2.67 2.62 2.60 2.65 2.55 2.41 2.43 2.43 2.26 2.31 2.37 2.39 2.26
0.13 0.13 0.20 0.20 0.21 0.22 0.24 0.38 0.58 0.75 0.71 0.74 0.72 0.90 1.02 1.10 1.11 1.29 1.79 2.54 3.23 3.91 3.70 3.15 2.88 2.99 2.93 2.88 3.07 3.23 3.28 3.27 3.31 3.33 3.30 3.11 3.00 3.03 3.11 3.16 3.08 2.87 2.81 2.80 2.81 2.73 2.49 2.33 2.22
0.14 0.17 0.20 0.20 0.19 0.23 0.27 0.37 0.52 0.68 0.66 0.71 0.82 0.90 0.88 0.94 1.05 1.35 1.88 2.57 3.05 3.18 3.16 3.22 3.19 3.23 3.26 3.18 3.21 3.43 3.61 3.65 3.59 3.68 3.72 3.57 3.47 3.49 3.63 3.64 3.60 3.36 3.16 3.00 2.92 2.83 2.62 2.36 2.16
0.18 0.20 0.22 0.24 0.22 0.22 0.32 0.44 0.58 0.68 0.68 0.74 0.87 0.88 0.85 0.85 0.96 1.36 1.79 2.22 2.64 2.95 3.06 3.17 3.11 3.30 3.53 3.83 4.21 4.51 4.71 4.66 4.49 4.42 4.31 4.14 4.02 3.93 3.86 3.86 3.68 3.43 3.27 3.06 2.87 2.78 2.64 2.43 2.29
0.16 0.15 0.21 0.29 0.30 0.26 0.36 0.64 0.73 0.76 0.86 0.97 1.02 1.04 1.05 0.93 1.03 1.33 1.58 1.92 2.27 2.59 2.81 2.96 3.20 3.63 4.03 4.52 5.22 5.63 5.51 5.17 5.00 4.73 4.62 4.39 4.11 4.01 3.99 3.74 3.54 3.33 3.13 3.00 2.81 2.71 2.64 2.44 2.33
0.13 0.11 0.16 0.23 0.27 0.30 0.31 0.67 0.92 0.96 1.13 1.29 1.16 1.07 1.07 1.08 1.10 1.20 1.40 1.69 1.95 2.30 2.68 3.00 3.40 3.95 4.53 4.97 5.42 5.71 5.70 5.47 5.24 4.82 4.44 4.06 3.71 3.48 3.35 3.24 3.03 2.91 2.78 2.65 2.50 2.47 2.42 2.32 2.16
0.09 0.10 0.12 0.17 0.20 0.27 0.31 0.51 0.93 1.13 1.22 1.33 1.19 1.11 0.97 0.92 0.98 1.07 1.17 1.38 1.72 2.15 2.56 2.93 3.32 3.94 4.48 4.97 5.31 5.53 5.59 5.46 5.13 4.51 3.91 3.52 3.20 2.94 2.69 2.48 2.38 2.36 2.28 2.10 1.93 1.89 1.87 1.84 1.79
0.09 0.09 0.13 0.19 0.22 0.32 0.29 0.48 1.01 1.32 1.33 1.26 1.24 1.22 1.09 0.94 0.92 0.93 1.04 1.19 1.55 1.93 2.41 2.74 3.05 3.70 4.35 4.90 5.27 5.51 5.53 5.25 4.66 4.03 3.49 3.15 2.89 2.62 2.38 2.22 2.05 1.95 1.83 1.68 1.51 1.40 1.41 1.47 1.50
0.11 0.14 0.28 0.37 0.40 0.41 0.33 0.52 1.01 1.10 1.11 1.19 1.15 1.09 1.06 0.94 0.85 0.87 1.03 1.09 1.36 1.72 2.08 2.43 2.77 3.23 3.71 4.14 4.41 4.60 4.63 4.39 4.05 3.68 3.22 2.84 2.60 2.35 2.08 1.81 1.63 1.54 1.45 1.35 1.28 1.17 1.14 1.21 1.27
0.09 0.16 0.36 0.48 0.50 0.49 0.53 0.90 1.30 1.17 1.11 1.13 1.12 0.99 0.94 0.94 0.92 0.93 1.05 1.11 1.20 1.43 1.72 2.10 2.43 2.72 2.96 3.15 3.36 3.35 3.30 3.24 3.08 2.76 2.40 2.11 1.85 1.68 1.49 1.28 1.20 1.14 1.12 1.10 1.07 1.01 0.95 1.00 1.10
0.07 0.13 0.16 0.26 0.30 0.52 0.81 1.09 1.46 1.40 1.37 1.22 1.11 1.03 0.96 0.97 0.94 0.96 1.06 1.10 1.16 1.28 1.48 1.71 1.87 2.06 2.12 2.08 2.10 2.16 2.19 2.18 2.10 1.93 1.67 1.38 1.16 1.03 0.94 0.87 0.84 0.77 0.80 0.84 0.87 0.89 0.89 0.93 0.95
0.09 0.12 0.16 0.32 0.46 0.64 0.85 1.30 1.79 1.84 1.68 1.39 1.09 0.96 0.84 0.89 0.96 1.02 1.08 1.15 1.20 1.22 1.40 1.50 1.48 1.47 1.50 1.52 1.51 1.49 1.54 1.58 1.57 1.50 1.37 1.20 1.01 0.86 0.76 0.73 0.68 0.59 0.57 0.62 0.67 0.73 0.78 0.86 0.88
0.14 0.16 0.18 0.30 0.39 0.68 1.00 1.58 1.69 1.86 1.72 1.57 1.40 1.06 0.92 0.93 0.99 1.08 1.07 1.04 1.03 1.02 1.06 1.09 1.13 1.18 1.18 1.16 1.17 1.20 1.16 1.13 1.11 1.14 1.14 1.03 0.90 0.77 0.69 0.63 0.61 0.58 0.53 0.52 0.56 0.58 0.62 0.71 0.75
0.15 0.16 0.22 0.40 0.48 0.55 0.88 1.63 1.53 1.86 1.85 1.63 1.48 1.17 1.07 1.04 1.04 1.02 0.97 0.88 0.84 0.87 0.90 0.90 0.92 0.95 0.99 1.00 0.98 0.99 0.91 0.86 0.85 0.84 0.84 0.80 0.78 0.75 0.70 0.65 0.64 0.58 0.52 0.49 0.50 0.50 0.49 0.54 0.59

GEFSSGP_prec_meanprecacc_198.txt.gz
Total_Precipitation_Accumulation
0.00 0.00 0.00 0.00 0.01 0.02 0.05 0.12 0.23 0.42 0.50 0.40 0.40 0.40 0.40 0.46 0.69 1.27 0.81 0.46 0.27 0.19 0.20 0.21 0.18 0.17 0.16 0.14 0.14 0.14 0.15 0.18 0.19 0.18 0.16 0.14 0.13 0.13 0.14 0.15 0.20 0.27 0.31 0.30 0.27 0.25 0.26 0.26 0.22
0.00 0.00 0.00 0.00 0.01 0.03 0.10 0.15 0.29 0.40 0.43 0.43 0.42 0.51 0.51 0.44 0.37 0.38 0.45 0.37 0.24 0.21 0.25 0.20 0.20 0.20 0.19 0.17 0.19 0.20 0.20 0.20 0.23 0.23 0.21 0.18 0.15 0.14 0.16 0.18 0.21 0.28 0.32 0.29 0.24 0.21 0.20 0.18 0.14
0.00 0.00 0.00 0.00 0.00 0.02 0.16 0.26 0.35 0.42 0.42 0.46 0.55 0.58 0.59 0.59 0.45 0.44 0.46 0.34 0.27 0.27 0.25 0.20 0.17 0.20 0.23 0.24 0.25 0.26 0.25 0.27 0.29 0.32 0.32 0.26 0.19 0.17 0.21 0.23 0.24 0.28 0.33 0.34 0.28 0.21 0.16 0.13 0.13
0.00 0.00 0.00 0.00 0.01 0.02 0.14 0.31 0.38 0.42 0.44 0.41 0.45 0.59 0.69 0.67 0.56 0.51 0.45 0.38 0.29 0.33 0.34 0.26 0.24 0.26 0.31 0.31 0.30 0.31 0.32 0.34 0.38 0.41 0.38 0.31 0.24 0.22 0.26 0.30 0.32 0.34 0.37 0.41 0.35 0.31 0.22 0.17 0.15
0.00 0.00 0.00 0.00 0.02 0.05 0.14 0.32 0.42 0.42 0.39 0.39 0.51 0.69 0.79 0.88 0.74 0.60 0.52 0.50 0.42 0.42 0.44 0.38 0.33 0.31 0.33 0.33 0.33 0.33 0.33 0.35 0.42 0.46 0.41 0.34 0.28 0.26 0.29 0.36 0.38 0.42 0.45 0.44 0.39 0.34 0.27 0.25 0.23
0.00 0.00 0.00 0.01 0.05 0.12 0.18 0.26 0.36 0.45 0.47 0.45 0.56 0.75 1.04 1.17 0.97 0.79 0.65 0.59 0.49 0.45 0.43 0.37 0.34 0.31 0.36 0.40 0.35 0.34 0.36 0.39 0.47 0.51 0.46 0.38 0.32 0.35 0.41 0.44 0.48 0.52 0.48 0.42 0.40 0.36 0.32 0.33 0.35
0.00 0.00 0.00 0.02 0.06 0.15 0.20 0.27 0.42 0.48 0.55 0.56 0.65 0.86 1.18 1.25 1.00 0.83 0.76 0.66 0.55 0.53 0.50 0.48 0.49 0.44 0.42 0.42 0.39 0.40 0.40 0.44 0.49 0.52 0.56 0.48 0.41 0.48 0.55 0.56 0.57 0.60 0.53 0.46 0.44 0.43 0.38 0.41 0.47
0.00 0.00 0.00 0.03 0.05 0.11 0.21 0.33 0.49 0.56 0.64 0.69 0.83 0.93 1.37 1.40 1.14 1.00 0.90 0.94 0.96 1.03 1.08 0.88 0.82 0.72 0.56 0.45 0.44 0.45 0.45 0.49 0.55 0.53 0.52 0.51 0.49 0.53 0.56 0.54 0.55 0.54 0.48 0.44 0.45 0.46 0.41 0.39 0.39
0.00 0.00 0.00 0.02 0.06 0.12 0.23 0.37 0.45 0.50 0.68 0.76 0.83 0.86 1.15 1.17 1.22 1.33 1.32 1.53 1.51 1.55 1.64 1.31 0.96 0.80 0.80 0.65 0.52 0.56 0.50 0.50 0.52 0.51 0.51 0.57 0.72 0.84 0.84 0.64 0.62 0.59 0.54 0.52 0.52 0.47 0.40 0.36 0.36
0.00 0.00 0.01 0.02 0.05 0.13 0.26 0.40 0.47 0.49 0.69 0.78 0.77 0.82 1.00 1.21 1.33 1.51 1.67 2.26 2.11 1.87 1.80 1.64 1.20 1.23 1.35 1.04 0.86 0.78 0.67 0.64 0.61 0.71 0.68 0.82 1.18 1.28 1.02 0.99 0.84 0.79 0.72 0.68 0.67 0.66 0.56 0.47 0.49
0.00 0.01 0.02 0.04 0.08 0.16 0.31 0.43 0.55 0.67 0.79 0.84 0.92 1.06 1.21 1.46 1.45 1.57 1.83 2.34 2.43 2.06 1.67 1.40 1.30 1.22 1.36 1.33 1.21 1.11 1.06 1.14 1.15 1.17 1.16 1.33 1.42 1.26 1.06 1.22 1.10 1.03 0.93 0.96 1.01 0.86 0.73 0.74 0.82
0.01 0.01 0.03 0.08 0.16 0.22 0.35 0.51 0.65 0.87 1.02 1.03 1.03 1.07 1.32 1.44 1.41 1.64 2.07 2.06 2.03 1.92 1.72 1.59 1.58 1.48 1.50 1.71 1.71 1.61 1.59 1.51 1.40 1.41 1.36 1.59 1.72 1.64 1.64 1.69 1.60 1.66 1.61 1.55 1.39 1.21 1.05 0.98 0.93
0.02 0.04 0.06 0.12 0.25 0.27 0.38 0.56 0.55 0.74 0.88 0.90 0.90 0.97 1.15 1.34 1.55 1.87 2.12 2.20 2.19 2.13 1.89 1.76 1.83 1.82 1.75 2.01 2.14 1.97 1.94 1.77 1.64 1.61 1.64 1.74 1.80 1.87 2.03 2.04 2.13 2.04 1.92 1.72 1.57 1.35 1.34 1.24 1.12
0.03 0.06 0.11 0.16 0.29 0.34 0.31 0.38 0.39 0.57 0.67 0.78 0.92 0.98 1.09 1.28 1.62 1.88 2.06 2.21 2.35 2.46 2.16 1.91 1.91 1.82 1.80 1.93 2.08 2.10 2.02 2.06 2.02 1.95 1.89 1.90 2.02 2.20 2.24 2.27 2.23 2.09 1.92 1.88 1.83 1.67 1.65 1.55 1.45
0.05 0.08 0.16 0.20 0.23 0.28 0.25 0.30 0.38 0.41 0.53 0.62 0.81 1.07 1.24 1.56 1.64 1.76 1.94 2.24 2.46 2.67 2.59 2.30 2.18 2.12 2.12 2.07 2.04 2.01 2.07 2.26 2.22 2.26 2.29 2.13 2.06 2.16 2.25 2.37 2.32 2.20 2.10 2.05 1.95 1.94 1.89 1.76 1.68
0.10 0.11 0.16 0.21 0.22 0.22 0.23 0.40 0.48 0.50 0.50 0.57 0.63 0.88 1.31 1.61 1.50 1.48 1.72 2.19 2.84 3.14 3.03 2.52 2.16 2.30 2.41 2.50 2.48 2.50 2.48 2.60 2.53 2.35 2.47 2.40 2.40 2.33 2.34 2.33 2.23 2.15 2.09 2.23 2.29 2.24 2.20 2.07 1.98
0.14 0.13 0.17 0.22 0.21 0.23 0.26 0.49 0.65 0.62 0.66 0.62 0.66 0.88 1.23 1.27 1.20 1.35 1.70 2.35 3.14 3.76 3.47 2.78 2.48 2.53 2.65 2.70 2.86 3.05 3.11 3.08 2.97 2.81 2.81 2.69 2.74 2.69 2.65 2.71 2.61 2.46 2.48 2.48 2.29 2.34 2.41 2.44 2.30
0.14 0.13 0.21 0.21 0.21 0.22 0.26 0.39 0.59 0.75 0.72 0.75 0.75 0.93 1.09 1.21 1.19 1.33 1.82 2.57 3.26 3.94 3.73 3.20 2.93 3.07 3.00 2.94 3.13 3.28 3.32 3.30 3.35 3.38 3.37 3.17 3.06 3.10 3.17 3.22 3.12 2.91 2.85 2.85 2.85 2.78 2.55 2.38 2.27
0.14 0.17 0.20 0.21 0.20 0.24 0.27 0.37 0.52 0.68 0.67 0.72 0.83 0.91 0.90 1.01 1.15 1.41 1.90 2.59 3.07 3.21 3.20 3.26 3.24 3.29 3.34 3.27 3.30 3.50 3.67 3.71 3.65 3.74 3.79 3.64 3.54 3.58 3.72 3.72 3.66 3.41 3.21 3.05 2.98 2.90 2.69 2.43 2.23
0.18 0.20 0.22 0.25 0.22 0.23 0.32 0.44 0.58 0.68 0.68 0.75 0.89 0.89 0.86 0.88 1.04 1.42 1.81 2.24 2.66 2.98 3.10 3.21 3.16 3.35 3.59 3.92 4.33 4.63 4.81 4.74 4.59 4.53 4.43 4.25 4.12 4.05 4.00 3.99 3.79 3.51 3.34 3.11 2.92 2.83 2.69 2.48 2.34
0.16 0.15 0.21 0.29 0.30 0.27 0.37 0.65 0.74 0.76 0.86 0.98 1.03 1.06 1.06 0.94 1.05 1.36 1.60 1.94 2.29 2.61 2.84 3.00 3.24 3.68 4.12 4.64 5.36 5.76 5.61 5.26 5.08 4.81 4.70 4.49 4.22 4.12 4.07 3.83 3.63 3.40 3.19 3.04 2.85 2.76 2.68 2.47 2.36
0.13 0.11 0.17 0.24 0.28 0.31 0.32 0.67 0.92 0.96 1.13 1.29 1.17 1.08 1.08 1.09 1.10 1.21 1.41 1.71 1.96 2.33 2.71 3.03 3.43 4.00 4.59 5.06 5.56 5.84 5.80 5.56 5.31 4.88 4.51 4.15 3.80 3.57 3.43 3.32 3.10 2.98 2.84 2.71 2.54 2.51 2.46 2.35 2.18
0.09 0.10 0.12 0.17 0.21 0.27 0.31 0.51 0.93 1.14 1.23 1.35 1.20 1.11 0.98 0.93 0.99 1.08 1.18 1.39 1.74 2.17 2.58 2.97 3.36 3.97 4.52 5.03 5.41 5.65 5.70 5.55 5.21 4.57 3.97 3.59 3.26 2.99 2.73 2.52 2.41 2.39 2.31 2.13 1.97 1.93 1.91 1.87 1.82
0.09 0.09 0.13 0.19 0.23 0.32 0.30 0.48 1.01 1.32 1.37 1.30 1.24 1.22 1.09 0.95 0.93 0.94 1.04 1.20 1.56 1.94 2.42 2.77 3.07 3.73 4.40 4.96 5.34 5.59 5.61 5.31 4.72 4.09 3.55 3.20 2.94 2.67 2.41 2.24 2.06 1.97 1.85 1.70 1.54 1.45 1.44 1.50 1.53
0.11 0.15 0.29 0.37 0.41 0.42 0.33 0.53 1.01 1.11 1.12 1.20 1.15 1.09 1.06 0.94 0.85 0.88 1.04 1.11 1.38 1.73 2.10 2.45 2.79 3.26 3.74 4.17 4.44 4.64 4.70 4.48 4.12 3.74 3.27 2.90 2.66 2.42 2.16 1.85 1.66 1.55 1.46 1.37 1.30 1.19 1.17 1.23 1.28
0.10 0.17 0.37 0.49 0.50 0.50 0.53 0.90 1.31 1.17 1.11 1.14 1.13 0.99 0.94 0.95 0.92 0.93 1.06 1.13 1.22 1.45 1.74 2.12 2.45 2.74 2.98 3.17 3.38 3.38 3.35 3.31 3.17 2.84 2.46 2.18 1.92 1.76 1.61 1.41 1.26 1.17 1.14 1.11 1.09 1.02 0.97 1.01 1.11
0.08 0.14 0.16 0.26 0.31 0.52 0.81 1.09 1.46 1.40 1.38 1.22 1.12 1.03 0.97 0.97 0.94 0.97 1.08 1.13 1.19 1.31 1.51 1.74 1.89 2.08 2.13 2.09 2.12 2.19 2.22 2.22 2.14 2.00 1.75 1.47 1.25 1.11 1.01 0.96 0.92 0.80 0.82 0.86 0.89 0.90 0.91 0.95 0.96
0.09 0.13 0.17 0.34 0.48 0.66 0.86 1.30 1.80 1.85 1.69 1.40 1.10 0.96 0.85 0.90 0.97 1.03 1.09 1.17 1.22 1.24 1.42 1.53 1.51 1.50 1.53 1.54 1.53 1.50 1.55 1.60 1.60 1.54 1.41 1.24 1.07 0.94 0.84 0.79 0.73 0.64 0.60 0.64 0.69 0.75 0.80 0.89 0.89
0.15 0.17 0.19 0.32 0.41 0.71 1.03 1.59 1.71 1.87 1.74 1.59 1.42 1.07 0.93 0.94 1.01 1.10 1.10 1.06 1.05 1.04 1.08 1.12 1.15 1.20 1.20 1.17 1.19 1.21 1.18 1.14 1.12 1.16 1.16 1.06 0.94 0.82 0.74 0.67 0.65 0.63 0.57 0.55 0.59 0.60 0.64 0.73 0.77
0.16 0.18 0.24 0.43 0.51 0.58 0.90 1.65 1.55 1.88 1.87 1.65 1.51 1.19 1.09 1.05 1.07 1.05 1.00 0.90 0.86 0.89 0.92 0.91 0.94 0.97 1.01 1.02 1.00 1.00 0.93 0.87 0.87 0.86 0.86 0.82 0.82 0.79 0.73 0.69 0.67 0.61 0.54 0.52 0.53 0.52 0.51 0.56 0.61

GEFSSGP_prec_meanprecacc_204.txt.gz
Total_Precipitation_Accumulation
0.00 0.00 0.00 0.00 0.01 0.02 0.06 0.13 0.23 0.42 0.50 0.40 0.40 0.40 0.41 0.48 0.72 1.32 0.83 0.46 0.27 0.20 0.22 0.22 0.20 0.20 0.20 0.18 0.18 0.15 0.17 0.19 0.20 0.18 0.16 0.15 0.14 0.14 0.15 0.16 0.20 0.28 0.32 0.31 0.27 0.26 0.27 0.27 0.23
0.00 0.00 0.00 0.00 0.01 0.03 0.11 0.16 0.30 0.41 0.43 0.43 0.42 0.51 0.52 0.45 0.38 0.39 0.45 0.37 0.24 0.22 0.27 0.21 0.21 0.23 0.24 0.21 0.22 0.22 0.23 0.22 0.25 0.25 0.23 0.19 0.16 0.15 0.17 0.18 0.22 0.28 0.33 0.30 0.25 0.23 0.21 0.19 0.15
0.00 0.00 0.00 0.00 0.01 0.04 0.17 0.27 0.35 0.42 0.42 0.46 0.55 0.58 0.59 0.60 0.46 0.44 0.46 0.35 0.27 0.28 0.27 0.22 0.18 0.23 0.30 0.29 0.29 0.30 0.29 0.31 0.32 0.34 0.34 0.29 0.21 0.18 0.21 0.24 0.25 0.28 0.33 0.35 0.29 0.23 0.18 0.15 0.14
0.00 0.00 0.00 0.00 0.02 0.04 0.15 0.32 0.38 0.42 0.44 0.41 0.45 0.60 0.69 0.67 0.56 0.51 0.46 0.38 0.30 0.33 0.36 0.28 0.26 0.29 0.39 0.36 0.35 0.37 0.37 0.39 0.43 0.44 0.41 0.33 0.25 0.23 0.26 0.31 0.33 0.35 0.38 0.42 0.37 0.33 0.24 0.19 0.18
0.00 0.00 0.00 0.01 0.03 0.06 0.14 0.34 0.42 0.42 0.39 0.39 0.51 0.69 0.80 0.88 0.74 0.60 0.52 0.50 0.43 0.43 0.46 0.40 0.34 0.35 0.44 0.40 0.38 0.38 0.38 0.39 0.48 0.50 0.45 0.38 0.30 0.27 0.30 0.38 0.40 0.44 0.47 0.46 0.41 0.36 0.30 0.28 0.26
0.00 0.00 0.00 0.02 0.06 0.13 0.20 0.27 0.37 0.45 0.47 0.45 0.57 0.76 1.05 1.18 0.98 0.79 0.65 0.61 0.51 0.47 0.45 0.39 0.37 0.36 0.45 0.47 0.41 0.41 0.41 0.43 0.53 0.56 0.51 0.43 0.36 0.38 0.44 0.47 0.51 0.56 0.51 0.45 0.42 0.39 0.35 0.35 0.38
0.00 0.00 0.00 0.02 0.06 0.15 0.21 0.29 0.42 0.48 0.55 0.57 0.67 0.89 1.19 1.26 1.01 0.84 0.77 0.69 0.58 0.54 0.53 0.51 0.54 0.51 0.48 0.48 0.46 0.51 0.47 0.51 0.57 0.56 0.60 0.53 0.46 0.54 0.61 0.61 0.62 0.64 0.56 0.47 0.45 0.45 0.39 0.43 0.49
0.00 0.00 0.01 0.03 0.06 0.11 0.21 0.33 0.49 0.56 0.64 0.69 0.84 0.98 1.41 1.42 1.16 1.01 0.92 0.97 0.99 1.05 1.11 0.93 0.90 0.80 0.61 0.50 0.49 0.51 0.50 0.56 0.61 0.60 0.57 0.58 0.57 0.60 0.63 0.59 0.60 0.58 0.50 0.46 0.46 0.48 0.43 0.40 0.41
0.00 0.00 0.01 0.03 0.06 0.13 0.25 0.39 0.46 0.50 0.68 0.77 0.83 0.88 1.19 1.21 1.24 1.35 1.34 1.56 1.55 1.58 1.68 1.37 1.02 0.87 0.87 0.72 0.57 0.61 0.55 0.54 0.55 0.59 0.60 0.66 0.86 0.96 0.94 0.70 0.68 0.64 0.58 0.56 0.55 0.50 0.43 0.38 0.38
0.00 0.00 0.01 0.02 0.05 0.13 0.27 0.42 0.48 0.49 0.69 0.78 0.77 0.83 1.00 1.22 1.35 1.53 1.69 2.29 2.14 1.91 1.86 1.69 1.27 1.29 1.42 1.11 0.95 0.86 0.73 0.69 0.65 0.76 0.78 0.89 1.32 1.41 1.14 1.07 0.89 0.83 0.76 0.71 0.70 0.69 0.59 0.49 0.51
0.00 0.01 0.02 0.04 0.09 0.17 0.31 0.43 0.55 0.68 0.81 0.88 0.93 1.07 1.23 1.50 1.48 1.58 1.85 2.36 2.46 2.09 1.71 1.44 1.36 1.30 1.44 1.42 1.32 1.21 1.15 1.23 1.21 1.23 1.21 1.41 1.51 1.36 1.17 1.30 1.16 1.07 0.97 1.00 1.07 0.92 0.76 0.77 0.85
0.01 0.01 0.03 0.09 0.16 0.22 0.35 0.51 0.65 0.88 1.04 1.08 1.05 1.08 1.35 1.48 1.44 1.66 2.10 2.09 2.06 1.95 1.76 1.62 1.62 1.54 1.57 1.80 1.81 1.71 1.67 1.60 1.49 1.51 1.43 1.67 1.82 1.72 1.72 1.76 1.67 1.74 1.69 1.63 1.48 1.29 1.10 1.03 0.97
0.02 0.04 0.06 0.12 0.25 0.27 0.38 0.56 0.56 0.74 0.89 0.91 0.90 0.97 1.17 1.39 1.58 1.90 2.15 2.23 2.22 2.16 1.92 1.80 1.88 1.86 1.82 2.09 2.22 2.05 2.04 1.87 1.72 1.70 1.71 1.81 1.88 1.95 2.11 2.12 2.22 2.14 2.01 1.82 1.66 1.43 1.41 1.31 1.17
0.04 0.06 0.11 0.16 0.29 0.34 0.31 0.38 0.39 0.57 0.67 0.78 0.92 0.98 1.09 1.29 1.65 1.91 2.09 2.26 2.39 2.49 2.19 1.95 1.96 1.86 1.84 1.98 2.14 2.16 2.09 2.12 2.07 1.98 1.93 1.95 2.07 2.26 2.31 2.36 2.34 2.18 1.99 1.97 1.93 1.77 1.74 1.63 1.51
0.05 0.08 0.16 0.20 0.23 0.28 0.25 0.31 0.38 0.42 0.53 0.62 0.82 1.08 1.24 1.57 1.65 1.78 1.98 2.30 2.52 2.72 2.63 2.34 2.22 2.16 2.16 2.11 2.08 2.06 2.11 2.31 2.26 2.29 2.33 2.18 2.12 2.25 2.34 2.46 2.42 2.31 2.21 2.16 2.05 2.04 2.01 1.88 1.78
0.10 0.11 0.16 0.21 0.22 0.22 0.24 0.42 0.50 0.51 0.51 0.57 0.63 0.89 1.31 1.62 1.50 1.51 1.79 2.25 2.90 3.22 3.11 2.57 2.21 2.35 2.46 2.55 2.53 2.55 2.50 2.63 2.56 2.40 2.53 2.46 2.46 2.41 2.42 2.40 2.30 2.23 2.18 2.32 2.39 2.34 2.29 2.17 2.09
0.15 0.14 0.17 0.22 0.21 0.23 0.27 0.53 0.69 0.66 0.67 0.63 0.67 0.88 1.23 1.28 1.22 1.38 1.75 2.41 3.21 3.86 3.58 2.86 2.54 2.58 2.71 2.76 2.91 3.09 3.15 3.12 3.01 2.85 2.85 2.72 2.78 2.73 2.70 2.75 2.66 2.52 2.55 2.54 2.37 2.43 2.50 2.53 2.40
0.15 0.13 0.21 0.21 0.21 0.23 0.27 0.42 0.63 0.81 0.76 0.77 0.75 0.93 1.10 1.21 1.20 1.37 1.87 2.63 3.33 4.01 3.82 3.28 2.99 3.12 3.06 2.99 3.18 3.32 3.36 3.35 3.39 3.41 3.39 3.21 3.11 3.14 3.24 3.27 3.18 2.97 2.92 2.92 2.93 2.86 2.63 2.47 2.37
0.14 0.18 0.20 0.21 0.20 0.25 0.28 0.39 0.55 0.72 0.70 0.74 0.83 0.91 0.90 1.03 1.17 1.45 1.96 2.64 3.11 3.26 3.25 3.32 3.28 3.33 3.38 3.32 3.36 3.57 3.73 3.76 3.70 3.78 3.83 3.69 3.58 3.63 3.78 3.78 3.72 3.48 3.28 3.13 3.05 2.97 2.76 2.50 2.30
0.18 0.20 0.22 0.25 0.22 0.23 0.33 0.46 0.61 0.71 0.70 0.76 0.89 0.90 0.86 0.89 1.07 1.46 1.85 2.27 2.69 3.02 3.14 3.25 3.19 3.39 3.64 3.99 4.42 4.71 4.88 4.81 4.66 4.59 4.49 4.32 4.17 4.10 4.05 4.06 3.85 3.59 3.43 3.20 2.99 2.90 2.75 2.53 2.39
0.17 0.15 0.21 0.29 0.31 0.27 0.38 0.66 0.75 0.79 0.89 1.00 1.05 1.08 1.07 0.96 1.08 1.41 1.64 1.97 2.32 2.66 2.89 3.04 3.28 3.73 4.17 4.71 5.45 5.84 5.68 5.33 5.16 4.88 4.78 4.57 4.29 4.17 4.13 3.89 3.68 3.47 3.26 3.12 2.92 2.82 2.74 2.53 2.40
0.13 0.12 0.17 0.24 0.29 0.32 0.33 0.70 0.95 0.99 1.16 1.32 1.19 1.09 1.09 1.10 1.12 1.26 1.48 1.75 1.99 2.36 2.74 3.06 3.47 4.04 4.64 5.12 5.62 5.92 5.87 5.63 5.39 4.97 4.60 4.23 3.89 3.66 3.49 3.36 3.14 3.02 2.88 2.76 2.59 2.55 2.51 2.40 2.23
0.09 0.10 0.12 0.17 0.21 0.28 0.32 0.53 0.98 1.18 1.26 1.37 1.22 1.13 0.99 0.93 1.00 1.10 1.24 1.46 1.78 2.20 2.62 3.00 3.39 4.01 4.57 5.08 5.45 5.69 5.76 5.64 5.29 4.66 4.07 3.69 3.36 3.09 2.80 2.57 2.44 2.42 2.34 2.17 2.00 1.97 1.95 1.91 1.86
0.09 0.10 0.13 0.20 0.23 0.33 0.31 0.51 1.06 1.38 1.42 1.35 1.29 1.25 1.10 0.96 0.94 0.95 1.06 1.26 1.63 1.98 2.46 2.80 3.11 3.77 4.43 4.99 5.37 5.63 5.65 5.37 4.78 4.17 3.65 3.31 3.04 2.76 2.49 2.30 2.11 2.00 1.89 1.75 1.59 1.49 1.49 1.54 1.57
0.11 0.16 0.31 0.39 0.44 0.45 0.35 0.56 1.07 1.17 1.19 1.27 1.21 1.12 1.10 0.99 0.87 0.89 1.06 1.14 1.43 1.78 2.15 2.48 2.83 3.30 3.77 4.21 4.48 4.67 4.74 4.52 4.15 3.78 3.34 2.99 2.75 2.50 2.23 1.92 1.73 1.61 1.51 1.41 1.34 1.24 1.21 1.27 1.32
0.10 0.17 0.40 0.54 0.55 0.54 0.56 0.94 1.36 1.21 1.17 1.19 1.17 1.01 0.99 1.00 0.95 0.96 1.08 1.16 1.25 1.49 1.80 2.18 2.50 2.79 3.02 3.21 3.42 3.41 3.38 3.35 3.22 2.88 2.50 2.23 2.00 1.86 1.70 1.50 1.38 1.29 1.23 1.18 1.15 1.09 1.02 1.06 1.16
0.08 0.14 0.17 0.29 0.35 0.57 0.85 1.13 1.50 1.42 1.41 1.26 1.14 1.05 0.98 0.99 0.96 1.00 1.11 1.15 1.22 1.36 1.56 1.79 1.94 2.11 2.17 2.12 2.15 2.21 2.24 2.24 2.18 2.05 1.79 1.50 1.31 1.21 1.14 1.11 1.09 0.94 0.93 0.97 0.99 0.98 0.97 1.01 1.01
0.09 0.13 0.18 0.38 0.55 0.75 0.93 1.38 1.85 1.90 1.76 1.50 1.19 1.02 0.87 0.92 0.99 1.05 1.13 1.22 1.26 1.28 1.46 1.56 1.54 1.53 1.56 1.58 1.56 1.53 1.57 1.61 1.63 1.57 1.44 1.27 1.09 0.96 0.88 0.86 0.83 0.74 0.69 0.72 0.78 0.83 0.87 0.96 0.94
0.15 0.18 0.21 0.35 0.46 0.79 1.12 1.67 1.77 1.95 1.88 1.69 1.51 1.14 0.97 0.96 1.02 1.12 1.13 1.11 1.10 1.09 1.14 1.17 1.20 1.24 1.24 1.21 1.22 1.23 1.20 1.16 1.16 1.20 1.20 1.09 0.95 0.83 0.75 0.69 0.68 0.67 0.62 0.61 0.66 0.66 0.69 0.78 0.82
0.17 0.20 0.26 0.47 0.56 0.63 0.98 1.73 1.61 1.94 1.99 1.76 1.58 1.25 1.11 1.06 1.11 1.13 1.06 0.94 0.91 0.95 0.98 0.97 0.98 1.00 1.04 1.05 1.03 1.03 0.95 0.91 0.91 0.90 0.90 0.85 0.84 0.81 0.75 0.71 0.69 0.62 0.56 0.56 0.57 0.57 0.55 0.60 0.66

GEFSSGP_prec_meanprecacc_210.txt.gz
Total_Precipitation_Accumulation
0.00 0.00 0.00 0.01 0.02 0.04 0.08 0.14 0.25 0.43 0.51 0.41 0.41 0.42 0.44 0.51 0.75 1.36 0.86 0.47 0.28 0.22 0.23 0.22 0.21 0.22 0.22 0.19 0.19 0.16 0.17 0.20 0.20 0.18 0.16 0.15 0.14 0.14 0.15 0.16 0.21 0.28 0.33 0.32 0.28 0.27 0.28 0.28 0.24
0.00 0.00 0.00 0.01 0.01 0.04 0.13 0.17 0.31 0.43 0.45 0.44 0.44 0.52 0.53 0.47 0.40 0.41 0.48 0.39 0.25 0.23 0.27 0.23 0.24 0.27 0.26 0.22 0.23 0.22 0.23 0.23 0.25 0.26 0.23 0.20 0.16 0.16 0.17 0.18 0.22 0.29 0.33 0.30 0.26 0.24 0.22 0.20 0.16
0.00 0.01 0.01 0.01 0.01 0.06 0.21 0.28 0.37 0.44 0.44 0.49 0.57 0.60 0.61 0.62 0.47 0.48 0.50 0.36 0.28 0.28 0.28 0.25 0.21 0.27 0.32 0.31 0.32 0.32 0.30 0.32 0.33 0.36 0.35 0.29 0.22 0.19 0.21 0.24 0.25 0.29 0.34 0.36 0.30 0.24 0.19 0.16 0.16
0.01 0.01 0.01 0.01 0.03 0.06 0.17 0.33 0.40 0.46 0.48 0.45 0.48 0.62 0.71 0.69 0.57 0.53 0.48 0.39 0.30 0.34 0.37 0.30 0.29 0.32 0.43 0.41 0.38 0.40 0.39 0.39 0.44 0.45 0.43 0.36 0.27 0.25 0.28 0.32 0.34 0.36 0.40 0.44 0.38 0.34 0.26 0.21 0.19
0.00 0.00 0.00 0.01 0.05 0.09 0.16 0.35 0.44 0.46 0.46 0.44 0.55 0.71 0.81 0.90 0.77 0.64 0.54 0.51 0.44 0.44 0.47 0.41 0.38 0.39 0.49 0.47 0.44 0.41 0.42 0.42 0.50 0.52 0.48 0.42 0.34 0.31 0.33 0.39 0.42 0.47 0.50 0.48 0.43 0.38 0.33 0.30 0.28
0.00 0.00 0.01 0.03 0.08 0.16 0.22 0.30 0.39 0.46 0.51 0.51 0.61 0.79 1.07 1.20 1.05 0.85 0.67 0.62 0.52 0.47 0.46 0.40 0.40 0.41 0.53 0.56 0.49 0.45 0.45 0.48 0.57 0.60 0.55 0.45 0.40 0.41 0.47 0.49 0.53 0.58 0.54 0.47 0.44 0.42 0.38 0.38 0.40
0.00 0.00 0.01 0.03 0.08 0.17 0.23 0.33 0.45 0.50 0.58 0.61 0.69 0.91 1.24 1.32 1.07 0.87 0.79 0.71 0.59 0.55 0.54 0.52 0.55 0.54 0.55 0.54 0.51 0.56 0.52 0.57 0.66 0.63 0.64 0.55 0.48 0.57 0.64 0.63 0.64 0.66 0.58 0.49 0.47 0.47 0.41 0.44 0.50
0.00 0.00 0.01 0.05 0.07 0.13 0.23 0.35 0.53 0.61 0.69 0.76 0.91 1.00 1.44 1.47 1.20 1.05 0.94 1.00 1.01 1.07 1.12 0.95 0.91 0.82 0.64 0.55 0.55 0.58 0.58 0.66 0.77 0.70 0.63 0.61 0.60 0.62 0.66 0.63 0.63 0.61 0.53 0.48 0.50 0.51 0.45 0.43 0.44
0.00 0.00 0.01 0.05 0.08 0.14 0.26 0.40 0.48 0.61 0.81 0.88 0.93 0.93 1.21 1.23 1.26 1.38 1.37 1.59 1.58 1.61 1.70 1.39 1.04 0.89 0.89 0.76 0.63 0.68 0.64 0.66 0.72 0.72 0.68 0.71 0.89 0.98 0.95 0.72 0.72 0.67 0.61 0.58 0.58 0.54 0.47 0.41 0.40
0.00 0.00 0.01 0.04 0.06 0.15 0.29 0.45 0.51 0.51 0.74 0.82 0.86 0.91 1.06 1.26 1.38 1.56 1.73 2.33 2.18 1.95 1.89 1.72 1.30 1.32 1.43 1.13 0.99 0.93 0.85 0.81 0.78 0.87 0.87 0.95 1.35 1.43 1.16 1.09 0.94 0.90 0.81 0.74 0.74 0.73 0.62 0.52 0.52
0.00 0.01 0.02 0.05 0.09 0.18 0.33 0.44 0.56 0.69 0.84 0.92 1.00 1.12 1.27 1.54 1.52 1.62 1.88 2.40 2.50 2.14 1.76 1.49 1.41 1.35 1.48 1.45 1.36 1.28 1.25 1.32 1.31 1.32 1.28 1.45 1.54 1.40 1.21 1.36 1.21 1.13 1.04 1.05 1.11 0.95 0.79 0.81 0.88
0.01 0.01 0.03 0.09 0.16 0.22 0.38 0.53 0.67 0.91 1.07 1.12 1.09 1.11 1.38 1.51 1.48 1.70 2.12 2.12 2.11 2.02 1.85 1.74 1.71 1.62 1.63 1.85 1.85 1.77 1.76 1.67 1.55 1.56 1.47 1.74 1.89 1.77 1.78 1.81 1.71 1.78 1.76 1.72 1.53 1.33 1.13 1.06 1.01
0.02 0.04 0.06 0.12 0.25 0.28 0.40 0.63 0.61 0.76 0.91 0.95 0.94 1.01 1.20 1.40 1.59 1.92 2.17 2.26 2.26 2.22 2.02 1.94 1.98 1.95 1.89 2.15 2.27 2.11 2.10 1.92 1.76 1.73 1.74 1.85 1.92 1.97 2.15 2.17 2.27 2.18 2.07 1.92 1.76 1.49 1.45 1.34 1.20
0.04 0.06 0.11 0.16 0.29 0.34 0.32 0.41 0.43 0.60 0.70 0.83 0.95 1.01 1.11 1.30 1.67 1.93 2.12 2.29 2.43 2.56 2.28 2.05 2.05 1.96 1.92 2.07 2.24 2.22 2.14 2.16 2.10 2.00 1.95 1.98 2.10 2.29 2.35 2.41 2.39 2.23 2.03 2.02 1.99 1.82 1.78 1.68 1.56
0.05 0.08 0.16 0.20 0.23 0.29 0.26 0.32 0.40 0.46 0.56 0.64 0.84 1.09 1.25 1.58 1.67 1.81 2.03 2.37 2.59 2.81 2.75 2.49 2.32 2.27 2.24 2.17 2.15 2.14 2.17 2.35 2.28 2.31 2.35 2.21 2.16 2.28 2.38 2.50 2.46 2.34 2.24 2.20 2.09 2.08 2.04 1.92 1.82
0.10 0.11 0.16 0.21 0.22 0.23 0.26 0.44 0.54 0.57 0.56 0.64 0.66 0.91 1.33 1.64 1.52 1.52 1.83 2.34 2.99 3.32 3.22 2.72 2.34 2.45 2.55 2.60 2.58 2.62 2.59 2.68 2.59 2.42 2.55 2.49 2.50 2.44 2.45 2.43 2.33 2.27 2.22 2.36 2.43 2.37 2.32 2.20 2.12
0.15 0.14 0.18 0.22 0.22 0.24 0.29 0.56 0.73 0.73 0.73 0.72 0.72 0.93 1.27 1.31 1.24 1.39 1.78 2.46 3.27 3.93 3.68 2.97 2.65 2.67 2.77 2.82 2.97 3.14 3.21 3.18 3.06 2.89 2.89 2.76 2.81 2.76 2.73 2.79 2.70 2.56 2.59 2.58 2.40 2.46 2.55 2.57 2.44
0.15 0.14 0.21 0.22 0.22 0.24 0.28 0.44 0.66 0.87 0.83 0.85 0.82 1.01 1.16 1.27 1.23 1.39 1.89 2.66 3.38 4.09 3.95 3.42 3.11 3.21 3.09 3.03 3.22 3.36 3.40 3.40 3.44 3.46 3.44 3.25 3.14 3.18 3.27 3.31 3.22 3.01 2.97 2.97 2.98 2.91 2.68 2.52 2.41
0.15 0.18 0.21 0.22 0.21 0.26 0.29 0.40 0.57 0.75 0.75 0.78 0.89 0.99 0.97 1.09 1.20 1.48 1.99 2.68 3.17 3.33 3.36 3.49 3.41 3.43 3.44 3.35 3.39 3.59 3.76 3.78 3.73 3.82 3.88 3.73 3.62 3.67 3.82 3.82 3.76 3.53 3.34 3.19 3.11 3.03 2.81 2.55 2.35
0.18 0.20 0.23 0.25 0.23 0.23 0.33 0.47 0.63 0.74 0.75 0.81 0.94 0.95 0.92 0.95 1.12 1.51 1.89 2.32 2.74 3.09 3.21 3.34 3.28 3.48 3.73 4.04 4.45 4.74 4.90 4.83 4.69 4.63 4.52 4.36 4.21 4.15 4.10 4.11 3.91 3.66 3.49 3.26 3.05 2.96 2.80 2.57 2.42
0.18 0.16 0.22 0.30 0.31 0.28 0.38 0.68 0.77 0.82 0.93 1.05 1.10 1.15 1.16 1.05 1.19 1.49 1.69 2.01 2.35 2.70 2.93 3.07 3.32 3.77 4.22 4.76 5.50 5.88 5.72 5.36 5.19 4.92 4.82 4.60 4.33 4.23 4.21 3.97 3.76 3.55 3.35 3.21 2.99 2.86 2.77 2.55 2.42
0.13 0.12 0.17 0.24 0.29 0.33 0.34 0.71 0.96 1.02 1.20 1.37 1.25 1.17 1.20 1.23 1.27 1.39 1.55 1.80 2.04 2.40 2.79 3.11 3.52 4.09 4.68 5.17 5.67 5.95 5.90 5.66 5.42 5.00 4.63 4.27 3.94 3.71 3.57 3.46 3.24 3.11 2.98 2.85 2.66 2.61 2.55 2.43 2.25
0.09 0.10 0.13 0.17 0.22 0.29 0.33 0.55 1.02 1.25 1.34 1.47 1.34 1.26 1.16 1.18 1.16 1.24 1.34 1.52 1.83 2.25 2.70 3.10 3.51 4.10 4.63 5.14 5.50 5.74 5.80 5.68 5.33 4.70 4.11 3.74 3.43 3.17 2.90 2.66 2.56 2.55 2.47 2.28 2.10 2.03 2.00 1.96 1.90
0.09 0.10 0.13 0.20 0.23 0.35 0.33 0.54 1.13 1.49 1.57 1.51 1.44 1.40 1.24 1.13 1.10 1.08 1.16 1.32 1.68 2.02 2.51 2.89 3.21 3.88 4.57 5.10 5.46 5.69 5.70 5.42 4.83 4.22 3.69 3.37 3.10 2.82 2.58 2.39 2.20 2.12 2.02 1.86 1.67 1.55 1.53 1.57 1.60
0.12 0.17 0.32 0.40 0.45 0.48 0.38 0.59 1.13 1.26 1.28 1.36 1.30 1.22 1.18 1.08 0.98 1.00 1.14 1.20 1.49 1.86 2.22 2.57 2.94 3.41 3.91 4.34 4.59 4.73 4.78 4.56 4.19 3.83 3.40 3.05 2.79 2.54 2.27 1.98 1.78 1.67 1.59 1.50 1.43 1.31 1.25 1.30 1.35
0.11 0.18 0.41 0.55 0.57 0.56 0.59 1.01 1.43 1.28 1.23 1.27 1.29 1.13 1.09 1.10 1.05 1.06 1.18 1.22 1.31 1.57 1.89 2.28 2.59 2.89 3.14 3.32 3.50 3.46 3.42 3.39 3.27 2.94 2.55 2.27 2.04 1.89 1.73 1.53 1.41 1.33 1.29 1.25 1.22 1.15 1.07 1.10 1.19
0.09 0.15 0.18 0.30 0.36 0.59 0.88 1.18 1.56 1.49 1.49 1.33 1.25 1.18 1.14 1.10 1.07 1.12 1.22 1.23 1.29 1.43 1.66 1.89 2.03 2.22 2.27 2.21 2.23 2.29 2.33 2.32 2.25 2.11 1.85 1.54 1.33 1.23 1.16 1.13 1.12 1.00 0.99 1.02 1.05 1.03 1.02 1.04 1.04
0.10 0.14 0.20 0.40 0.59 0.79 0.99 1.47 1.96 1.99 1.83 1.57 1.31 1.17 1.04 1.04 1.08 1.14 1.22 1.32 1.36 1.37 1.55 1.66 1.63 1.62 1.67 1.70 1.67 1.63 1.66 1.69 1.69 1.62 1.47 1.29 1.12 0.98 0.89 0.87 0.84 0.76 0.73 0.78 0.83 0.87 0.91 0.99 0.97
0.16 0.19 0.23 0.38 0.50 0.86 1.19 1.77 1.89 2.05 1.97 1.82 1.68 1.32 1.09 1.06 1.10 1.20 1.21 1.21 1.19 1.17 1.19 1.23 1.28 1.33 1.34 1.31 1.32 1.32 1.26 1.22 1.21 1.25 1.22 1.11 0.98 0.86 0.77 0.70 0.70 0.69 0.64 0.64 0.70 0.71 0.73 0.82 0.85
0.17 0.21 0.27 0.50 0.60 0.67 1.04 1.80 1.67 2.02 2.09 1.88 1.71 1.42 1.25 1.15 1.17 1.19 1.19 1.11 1.07 1.05 1.05 1.04 1.05 1.07 1.12 1.13 1.11 1.11 1.01 0.97 0.96 0.95 0.94 0.90 0.89 0.85 0.79 0.74 0.71 0.64 0.59 0.59 0.61 0.61 0.60 0.64 0.69

GEFSSGP_prec_meanprecacc_216.txt.gz
Total_Precipitation_Accumulation
0.00 0.00 0.01 0.03 0.03 0.04 0.08 0.14 0.25 0.44 0.52 0.43 0.42 0.44 0.46 0.52 0.76 1.37 0.87 0.48 0.29 0.22 0.24 0.25 0.25 0.23 0.23 0.21 0.21 0.19 0.19 0.22 0.22 0.21 0.20 0.18 0.15 0.15 0.15 0.17 0.21 0.29 0.35 0.34 0.30 0.29 0.30 0.31 0.25
0.00 0.01 0.02 0.02 0.02 0.05 0.13 0.18 0.33 0.45 0.46 0.45 0.45 0.54 0.55 0.48 0.40 0.42 0.49 0.40 0.25 0.23 0.28 0.27 0.28 0.30 0.28 0.25 0.25 0.24 0.25 0.25 0.27 0.27 0.26 0.23 0.19 0.16 0.17 0.19 0.23 0.30 0.34 0.32 0.29 0.26 0.25 0.23 0.19
0.02 0.03 0.02 0.01 0.01 0.06 0.21 0.29 0.38 0.45 0.45 0.49 0.58 0.62 0.62 0.63 0.48 0.49 0.51 0.37 0.28 0.28 0.29 0.27 0.24 0.31 0.37 0.36 0.35 0.34 0.32 0.33 0.35 0.38 0.38 0.35 0.27 0.20 0.22 0.25 0.26 0.31 0.36 0.37 0.32 0.26 0.22 0.20 0.20
0.02 0.02 0.01 0.01 0.03 0.07 0.18 0.34 0.41 0.47 0.49 0.46 0.48 0.63 0.72 0.70 0.58 0.53 0.49 0.40 0.30 0.34 0.37 0.31 0.31 0.35 0.48 0.47 0.43 0.43 0.42 0.42 0.46 0.48 0.44 0.41 0.32 0.27 0.29 0.33 0.35 0.37 0.42 0.46 0.40 0.36 0.28 0.24 0.23
0.00 0.00 0.00 0.01 0.05 0.09 0.17 0.36 0.45 0.47 0.47 0.46 0.56 0.74 0.83 0.91 0.78 0.65 0.55 0.53 0.46 0.45 0.48 0.42 0.40 0.41 0.53 0.52 0.49 0.46 0.46 0.45 0.53 0.55 0.49 0.44 0.37 0.33 0.35 0.41 0.42 0.47 0.51 0.50 0.45 0.41 0.36 0.33 0.32
0.00 0.00 0.01 0.03 0.08 0.16 0.22 0.31 0.40 0.48 0.53 0.53 0.63 0.82 1.10 1.22 1.06 0.86 0.68 0.63 0.54 0.49 0.48 0.43 0.43 0.45 0.58 0.62 0.54 0.50 0.49 0.52 0.61 0.62 0.56 0.47 0.42 0.44 0.49 0.51 0.54 0.59 0.55 0.49 0.46 0.45 0.41 0.41 0.42
0.00 0.00 0.01 0.03 0.08 0.17 0.23 0.34 0.47 0.52 0.62 0.63 0.72 0.94 1.27 1.36 1.08 0.89 0.81 0.72 0.60 0.56 0.55 0.54 0.58 0.59 0.61 0.61 0.57 0.62 0.57 0.60 0.69 0.65 0.67 0.57 0.50 0.60 0.67 0.66 0.67 0.69 0.60 0.50 0.49 0.50 0.44 0.47 0.53
0.00 0.00 0.01 0.05 0.07 0.13 0.24 0.36 0.54 0.63 0.72 0.78 0.94 1.05 1.49 1.50 1.22 1.06 0.96 1.01 1.02 1.08 1.13 0.95 0.92 0.85 0.70 0.61 0.62 0.63 0.62 0.69 0.80 0.73 0.65 0.64 0.62 0.65 0.70 0.68 0.68 0.64 0.55 0.50 0.52 0.54 0.49 0.47 0.47
0.00 0.00 0.01 0.05 0.08 0.15 0.27 0.42 0.50 0.63 0.82 0.89 0.95 0.96 1.24 1.25 1.27 1.38 1.38 1.60 1.59 1.62 1.72 1.43 1.06 0.90 0.91 0.80 0.69 0.74 0.69 0.71 0.77 0.76 0.72 0.74 0.93 1.03 1.01 0.78 0.78 0.71 0.65 0.61 0.62 0.58 0.52 0.46 0.44
0.00 0.00 0.01 0.04 0.06 0.15 0.30 0.47 0.54 0.55 0.77 0.85 0.87 0.92 1.07 1.27 1.38 1.57 1.73 2.35 2.20 1.96 1.91 1.76 1.34 1.34 1.46 1.17 1.05 0.98 0.90 0.87 0.85 0.92 0.90 0.98 1.39 1.48 1.21 1.15 1.00 0.96 0.86 0.79 0.78 0.77 0.66 0.56 0.55
0.00 0.01 0.02 0.05 0.09 0.18 0.34 0.48 0.60 0.73 0.87 0.94 1.02 1.13 1.29 1.56 1.54 1.63 1.88 2.41 2.51 2.15 1.77 1.51 1.44 1.41 1.53 1.49 1.41 1.33 1.31 1.38 1.37 1.36 1.31 1.48 1.57 1.43 1.23 1.39 1.26 1.18 1.09 1.09 1.16 1.00 0.83 0.84 0.92
0.01 0.02 0.03 0.09 0.16 0.23 0.40 0.58 0.70 0.93 1.09 1.14 1.11 1.13 1.40 1.54 1.50 1.72 2.14 2.14 2.13 2.03 1.86 1.75 1.73 1.66 1.70 1.94 1.91 1.82 1.82 1.75 1.63 1.61 1.51 1.76 1.91 1.80 1.80 1.83 1.74 1.82 1.81 1.77 1.59 1.38 1.16 1.08 1.03
0.02 0.04 0.07 0.13 0.26 0.28 0.41 0.65 0.62 0.77 0.91 0.96 0.95 1.02 1.21 1.42 1.62 1.94 2.20 2.29 2.29 2.25 2.04 1.97 2.03 1.98 1.93 2.25 2.37 2.18 2.18 2.03 1.86 1.79 1.78 1.88 1.95 2.00 2.17 2.20 2.30 2.21 2.09 1.95 1.82 1.56 1.50 1.37 1.22
0.04 0.06 0.11 0.17 0.29 0.35 0.32 0.41 0.44 0.61 0.70 0.83 0.96 1.02 1.12 1.32 1.69 1.96 2.15 2.32 2.46 2.59 2.32 2.10 2.12 2.03 1.99 2.14 2.32 2.31 2.22 2.25 2.20 2.07 2.00 2.02 2.13 2.31 2.37 2.44 2.41 2.24 2.05 2.04 2.03 1.88 1.83 1.72 1.58
0.05 0.09 0.16 0.20 0.24 0.29 0.26 0.32 0.41 0.48 0.58 0.66 0.85 1.10 1.26 1.60 1.70 1.84 2.06 2.40 2.63 2.86 2.81 2.56 2.42 2.36 2.33 2.24 2.23 2.23 2.25 2.42 2.37 2.39 2.43 2.27 2.20 2.32 2.41 2.52 2.49 2.37 2.27 2.23 2.13 2.12 2.09 1.97 1.86
0.11 0.11 0.17 0.22 0.23 0.24 0.26 0.45 0.55 0.58 0.61 0.67 0.68 0.92 1.35 1.67 1.56 1.57 1.87 2.39 3.06 3.39 3.30 2.82 2.47 2.61 2.66 2.68 2.64 2.69 2.65 2.73 2.67 2.50 2.63 2.55 2.54 2.48 2.48 2.46 2.37 2.32 2.26 2.40 2.47 2.43 2.38 2.25 2.16
0.15 0.14 0.18 0.23 0.22 0.25 0.29 0.56 0.74 0.75 0.78 0.76 0.74 0.95 1.29 1.35 1.30 1.45 1.83 2.53 3.35 4.00 3.77 3.08 2.77 2.86 2.96 2.92 3.05 3.23 3.29 3.25 3.12 2.95 2.95 2.82 2.87 2.80 2.75 2.82 2.74 2.61 2.64 2.63 2.47 2.53 2.61 2.62 2.49
0.15 0.15 0.21 0.22 0.22 0.24 0.29 0.44 0.67 0.88 0.86 0.89 0.87 1.05 1.19 1.31 1.27 1.45 1.94 2.72 3.44 4.14 4.02 3.54 3.27 3.37 3.29 3.18 3.33 3.46 3.48 3.45 3.50 3.51 3.49 3.30 3.19 3.23 3.31 3.36 3.28 3.07 3.03 3.04 3.06 2.98 2.74 2.57 2.46
0.15 0.18 0.21 0.22 0.21 0.26 0.29 0.41 0.58 0.77 0.78 0.82 0.95 1.04 1.02 1.12 1.26 1.55 2.06 2.75 3.23 3.41 3.45 3.61 3.56 3.57 3.57 3.49 3.51 3.70 3.82 3.84 3.79 3.89 3.93 3.79 3.69 3.74 3.91 3.91 3.85 3.60 3.41 3.28 3.20 3.09 2.86 2.59 2.39
0.18 0.21 0.23 0.25 0.23 0.24 0.33 0.47 0.64 0.75 0.77 0.84 0.98 0.99 0.97 0.99 1.18 1.58 1.99 2.41 2.82 3.17 3.30 3.44 3.43 3.63 3.87 4.19 4.62 4.87 4.99 4.91 4.78 4.72 4.61 4.44 4.32 4.27 4.24 4.24 4.02 3.75 3.59 3.36 3.13 3.02 2.85 2.61 2.47
0.18 0.16 0.22 0.30 0.32 0.28 0.39 0.68 0.78 0.84 0.95 1.07 1.14 1.20 1.21 1.09 1.25 1.58 1.79 2.10 2.42 2.78 3.02 3.18 3.43 3.88 4.37 4.95 5.69 6.05 5.84 5.47 5.28 5.00 4.90 4.70 4.45 4.37 4.36 4.11 3.89 3.67 3.45 3.27 3.04 2.94 2.85 2.61 2.47
0.14 0.12 0.17 0.24 0.30 0.33 0.34 0.72 0.97 1.03 1.23 1.39 1.29 1.23 1.26 1.27 1.32 1.47 1.64 1.86 2.09 2.47 2.87 3.20 3.61 4.18 4.81 5.32 5.82 6.11 6.05 5.78 5.51 5.07 4.69 4.33 4.01 3.82 3.69 3.57 3.37 3.24 3.09 2.90 2.71 2.67 2.63 2.52 2.34
0.09 0.10 0.13 0.18 0.22 0.29 0.33 0.56 1.03 1.26 1.36 1.49 1.36 1.29 1.22 1.24 1.19 1.29 1.41 1.60 1.91 2.33 2.77 3.20 3.59 4.18 4.74 5.25 5.64 5.88 5.92 5.78 5.41 4.76 4.17 3.80 3.48 3.23 2.96 2.73 2.64 2.64 2.55 2.34 2.16 2.10 2.08 2.04 1.99
0.09 0.10 0.14 0.20 0.24 0.35 0.34 0.54 1.14 1.50 1.58 1.53 1.46 1.42 1.28 1.20 1.17 1.16 1.28 1.43 1.81 2.14 2.60 2.96 3.28 3.96 4.67 5.20 5.56 5.80 5.81 5.53 4.92 4.28 3.75 3.43 3.16 2.90 2.64 2.46 2.27 2.19 2.08 1.93 1.75 1.64 1.63 1.66 1.68
0.12 0.17 0.32 0.40 0.46 0.48 0.38 0.60 1.13 1.27 1.30 1.37 1.32 1.24 1.20 1.14 1.07 1.11 1.28 1.33 1.61 1.96 2.30 2.63 2.99 3.46 3.97 4.40 4.65 4.82 4.88 4.65 4.28 3.92 3.49 3.14 2.91 2.64 2.34 2.04 1.84 1.73 1.65 1.56 1.49 1.37 1.32 1.37 1.41
0.11 0.18 0.41 0.56 0.58 0.57 0.60 1.02 1.43 1.29 1.24 1.28 1.30 1.15 1.12 1.16 1.10 1.13 1.27 1.32 1.40 1.64 1.94 2.33 2.62 2.92 3.18 3.36 3.53 3.50 3.49 3.47 3.36 3.04 2.65 2.35 2.10 1.94 1.77 1.56 1.44 1.37 1.34 1.30 1.27 1.18 1.11 1.14 1.23
0.09 0.16 0.18 0.31 0.37 0.59 0.88 1.18 1.57 1.50 1.49 1.33 1.25 1.20 1.17 1.13 1.11 1.17 1.27 1.29 1.34 1.47 1.70 1.93 2.06 2.25 2.29 2.24 2.27 2.33 2.37 2.37 2.31 2.18 1.91 1.59 1.37 1.26 1.19 1.15 1.14 1.02 1.02 1.06 1.08 1.06 1.04 1.06 1.06
0.10 0.15 0.21 0.42 0.61 0.80 0.99 1.48 1.98 2.00 1.84 1.58 1.32 1.19 1.07 1.07 1.12 1.18 1.26 1.37 1.41 1.42 1.60 1.72 1.68 1.66 1.71 1.75 1.72 1.68 1.70 1.73 1.73 1.67 1.52 1.33 1.14 1.00 0.91 0.89 0.86 0.78 0.74 0.79 0.85 0.88 0.92 1.00 0.98
0.16 0.19 0.23 0.39 0.52 0.87 1.20 1.79 1.90 2.06 1.98 1.83 1.70 1.35 1.11 1.08 1.11 1.23 1.25 1.25 1.24 1.22 1.26 1.30 1.35 1.39 1.39 1.36 1.38 1.37 1.30 1.27 1.27 1.31 1.27 1.15 1.02 0.89 0.79 0.72 0.72 0.71 0.66 0.65 0.71 0.71 0.74 0.82 0.86
0.18 0.21 0.28 0.51 0.61 0.68 1.06 1.82 1.69 2.03 2.11 1.90 1.75 1.45 1.28 1.17 1.19 1.21 1.21 1.14 1.10 1.10 1.12 1.11 1.14 1.15 1.17 1.17 1.17 1.16 1.06 1.02 1.01 0.99 1.00 0.95 0.93 0.89 0.82 0.76 0.73 0.67 0.61 0.61 0.63 0.62 0.61 0.65 0.70

GEFSSGP_prec_meanprecacc_222.txt.gz
Total_Precipitation_Accumulation
0.04 0.03 0.03 0.05 0.04 0.05 0.08 0.15 0.26 0.44 0.53 0.43 0.42 0.44 0.46 0.52 0.76 1.38 0.88 0.49 0.30 0.23 0.28 0.32 0.32 0.29 0.27 0.25 0.27 0.22 0.21 0.24 0.26 0.25 0.29 0.32 0.23 0.19 0.19 0.20 0.23 0.31 0.37 0.37 0.34 0.32 0.33 0.34 0.30
0.04 0.04 0.04 0.03 0.02 0.05 0.13 0.18 0.33 0.46 0.46 0.46 0.45 0.54 0.55 0.48 0.41 0.42 0.49 0.40 0.25 0.24 0.30 0.31 0.32 0.34 0.31 0.28 0.28 0.26 0.26 0.27 0.30 0.32 0.34 0.38 0.27 0.21 0.22 0.23 0.25 0.32 0.36 0.35 0.32 0.30 0.29 0.27 0.24
0.04 0.05 0.03 0.01 0.01 0.07 0.21 0.30 0.39 0.46 0.46 0.51 0.59 0.62 0.63 0.63 0.48 0.50 0.52 0.38 0.28 0.29 0.30 0.29 0.28 0.34 0.39 0.39 0.38 0.36 0.34 0.36 0.38 0.42 0.45 0.48 0.34 0.24 0.26 0.28 0.28 0.33 0.39 0.42 0.37 0.30 0.26 0.25 0.24
0.03 0.02 0.02 0.01 0.03 0.07 0.18 0.35 0.41 0.47 0.49 0.47 0.49 0.63 0.72 0.70 0.58 0.54 0.50 0.41 0.31 0.35 0.38 0.32 0.33 0.37 0.51 0.52 0.48 0.46 0.44 0.45 0.50 0.52 0.49 0.50 0.40 0.31 0.33 0.35 0.37 0.39 0.44 0.50 0.47 0.43 0.33 0.29 0.31
0.01 0.01 0.01 0.02 0.05 0.09 0.17 0.37 0.45 0.47 0.47 0.46 0.56 0.74 0.83 0.91 0.78 0.66 0.55 0.53 0.46 0.46 0.49 0.44 0.42 0.44 0.56 0.55 0.53 0.50 0.50 0.50 0.57 0.59 0.54 0.52 0.46 0.39 0.39 0.44 0.45 0.49 0.53 0.52 0.48 0.47 0.40 0.35 0.40
0.00 0.00 0.01 0.03 0.08 0.16 0.22 0.31 0.40 0.49 0.53 0.53 0.64 0.82 1.10 1.22 1.06 0.87 0.69 0.63 0.54 0.50 0.49 0.44 0.44 0.46 0.59 0.64 0.58 0.54 0.52 0.56 0.67 0.69 0.64 0.55 0.52 0.52 0.55 0.56 0.58 0.62 0.57 0.51 0.49 0.47 0.44 0.46 0.48
0.00 0.00 0.01 0.03 0.09 0.18 0.24 0.34 0.47 0.53 0.63 0.64 0.72 0.94 1.28 1.36 1.08 0.89 0.81 0.73 0.61 0.57 0.55 0.55 0.60 0.61 0.63 0.64 0.66 0.70 0.62 0.67 0.76 0.74 0.75 0.65 0.59 0.68 0.74 0.73 0.72 0.72 0.63 0.53 0.51 0.51 0.46 0.50 0.56
0.00 0.00 0.01 0.05 0.07 0.13 0.24 0.37 0.55 0.65 0.75 0.79 0.94 1.05 1.49 1.51 1.23 1.06 0.96 1.02 1.03 1.09 1.14 0.96 0.94 0.86 0.71 0.63 0.64 0.66 0.68 0.78 0.86 0.78 0.71 0.70 0.68 0.70 0.78 0.76 0.74 0.68 0.58 0.54 0.56 0.58 0.53 0.50 0.49
0.00 0.00 0.01 0.05 0.08 0.15 0.27 0.42 0.51 0.65 0.85 0.90 0.95 0.96 1.24 1.25 1.27 1.39 1.39 1.61 1.60 1.63 1.74 1.44 1.07 0.91 0.92 0.81 0.70 0.76 0.72 0.75 0.81 0.80 0.76 0.80 0.98 1.09 1.07 0.84 0.85 0.78 0.71 0.67 0.68 0.63 0.56 0.50 0.48
0.00 0.01 0.01 0.04 0.06 0.15 0.30 0.47 0.55 0.57 0.78 0.85 0.88 0.92 1.07 1.27 1.39 1.57 1.74 2.35 2.20 1.97 1.92 1.77 1.35 1.35 1.47 1.18 1.06 1.00 0.92 0.90 0.89 0.98 0.96 1.05 1.45 1.53 1.26 1.22 1.08 1.05 0.95 0.86 0.85 0.83 0.71 0.60 0.59
0.00 0.01 0.02 0.05 0.09 0.18 0.34 0.49 0.61 0.74 0.88 0.94 1.02 1.13 1.29 1.57 1.55 1.64 1.89 2.42 2.52 2.15 1.78 1.51 1.45 1.43 1.55 1.51 1.43 1.36 1.34 1.41 1.41 1.41 1.36 1.54 1.63 1.47 1.28 1.45 1.36 1.35 1.24 1.20 1.24 1.07 0.88 0.89 0.97
0.01 0.02 0.03 0.09 0.16 0.23 0.41 0.59 0.71 0.94 1.09 1.14 1.12 1.13 1.42 1.56 1.53 1.74 2.16 2.15 2.14 2.04 1.87 1.76 1.74 1.67 1.73 1.99 1.98 1.87 1.86 1.79 1.66 1.65 1.54 1.80 1.96 1.84 1.84 1.88 1.79 1.90 1.98 1.96 1.70 1.45 1.21 1.12 1.07
0.02 0.04 0.07 0.13 0.26 0.28 0.41 0.65 0.62 0.77 0.91 0.96 0.95 1.03 1.23 1.45 1.64 1.97 2.22 2.30 2.30 2.26 2.05 1.98 2.03 2.00 1.96 2.31 2.51 2.32 2.27 2.09 1.91 1.84 1.82 1.91 1.99 2.03 2.20 2.23 2.35 2.25 2.14 2.06 1.96 1.66 1.57 1.42 1.26
0.04 0.07 0.11 0.17 0.30 0.35 0.33 0.42 0.44 0.62 0.71 0.83 0.97 1.03 1.14 1.35 1.71 1.98 2.16 2.33 2.47 2.60 2.33 2.11 2.13 2.05 2.02 2.17 2.41 2.49 2.40 2.39 2.31 2.16 2.07 2.08 2.19 2.35 2.40 2.47 2.45 2.28 2.08 2.08 2.09 1.94 1.90 1.78 1.64
0.05 0.09 0.16 0.21 0.25 0.30 0.27 0.33 0.41 0.48 0.58 0.67 0.86 1.12 1.28 1.62 1.72 1.86 2.08 2.43 2.66 2.88 2.84 2.58 2.44 2.39 2.36 2.27 2.28 2.35 2.44 2.62 2.56 2.56 2.55 2.37 2.28 2.38 2.45 2.57 2.53 2.40 2.30 2.26 2.17 2.16 2.14 2.02 1.91
0.11 0.11 0.17 0.22 0.23 0.24 0.27 0.46 0.56 0.60 0.62 0.68 0.69 0.95 1.37 1.69 1.59 1.60 1.92 2.45 3.10 3.43 3.33 2.85 2.51 2.64 2.70 2.73 2.71 2.78 2.78 2.88 2.81 2.63 2.72 2.64 2.63 2.56 2.55 2.51 2.41 2.35 2.28 2.43 2.50 2.46 2.42 2.29 2.21
0.15 0.14 0.18 0.23 0.22 0.25 0.30 0.57 0.75 0.76 0.79 0.77 0.77 0.99 1.32 1.39 1.34 1.51 1.90 2.60 3.39 4.04 3.80 3.12 2.81 2.90 3.02 2.99 3.12 3.31 3.40 3.36 3.21 3.05 3.04 2.89 2.94 2.87 2.82 2.88 2.79 2.65 2.66 2.66 2.51 2.57 2.65 2.67 2.55
0.15 0.15 0.21 0.22 0.22 0.24 0.29 0.45 0.68 0.89 0.88 0.91 0.91 1.11 1.24 1.35 1.32 1.49 2.00 2.76 3.48 4.18 4.06 3.58 3.31 3.43 3.37 3.26 3.40 3.53 3.57 3.56 3.58 3.59 3.57 3.36 3.26 3.30 3.39 3.43 3.35 3.12 3.07 3.08 3.12 3.06 2.82 2.65 2.55
0.15 0.18 0.22 0.22 0.21 0.26 0.29 0.41 0.58 0.77 0.79 0.85 0.98 1.12 1.07 1.16 1.29 1.59 2.10 2.78 3.27 3.44 3.49 3.66 3.64 3.66 3.66 3.57 3.59 3.76 3.89 3.92 3.88 3.97 4.00 3.84 3.74 3.80 3.98 3.98 3.93 3.67 3.47 3.35 3.30 3.20 2.97 2.70 2.50
0.18 0.21 0.23 0.26 0.23 0.24 0.33 0.47 0.64 0.76 0.78 0.86 1.00 1.03 1.00 1.02 1.21 1.62 2.02 2.44 2.84 3.20 3.34 3.49 3.49 3.70 3.96 4.30 4.73 4.96 5.06 4.99 4.85 4.78 4.67 4.50 4.36 4.32 4.30 4.32 4.12 3.85 3.68 3.47 3.23 3.13 2.96 2.72 2.57
0.18 0.16 0.22 0.30 0.32 0.28 0.39 0.69 0.79 0.84 0.96 1.09 1.16 1.23 1.24 1.12 1.28 1.61 1.81 2.12 2.44 2.80 3.05 3.22 3.47 3.94 4.45 5.06 5.82 6.17 5.93 5.53 5.34 5.05 4.96 4.75 4.50 4.43 4.43 4.21 3.99 3.76 3.55 3.36 3.13 3.04 2.95 2.70 2.56
0.14 0.12 0.17 0.24 0.30 0.33 0.35 0.73 0.98 1.03 1.23 1.41 1.31 1.27 1.30 1.30 1.34 1.48 1.66 1.89 2.12 2.50 2.90 3.26 3.66 4.24 4.90 5.44 5.93 6.22 6.12 5.84 5.57 5.13 4.75 4.38 4.06 3.87 3.77 3.67 3.45 3.30 3.15 2.96 2.77 2.73 2.70 2.58 2.40
0.09 0.10 0.13 0.18 0.22 0.29 0.34 0.56 1.03 1.27 1.37 1.50 1.37 1.31 1.25 1.26 1.21 1.31 1.45 1.65 1.96 2.36 2.80 3.24 3.64 4.25 4.83 5.34 5.72 5.96 5.99 5.84 5.47 4.81 4.21 3.83 3.51 3.27 3.00 2.78 2.68 2.67 2.59 2.39 2.20 2.15 2.12 2.09 2.03
0.09 0.10 0.14 0.20 0.24 0.36 0.34 0.55 1.14 1.51 1.59 1.54 1.48 1.43 1.30 1.23 1.19 1.18 1.31 1.50 1.89 2.20 2.64 3.00 3.32 4.01 4.73 5.27 5.64 5.87 5.87 5.59 4.97 4.31 3.78 3.45 3.18 2.92 2.66 2.49 2.30 2.21 2.11 1.96 1.79 1.68 1.67 1.70 1.72
0.12 0.17 0.32 0.41 0.47 0.50 0.39 0.61 1.14 1.28 1.30 1.38 1.34 1.26 1.24 1.19 1.11 1.13 1.30 1.37 1.68 2.03 2.36 2.68 3.04 3.51 4.03 4.46 4.71 4.89 4.95 4.71 4.31 3.94 3.51 3.16 2.93 2.66 2.37 2.07 1.86 1.74 1.66 1.59 1.53 1.42 1.36 1.41 1.45
0.11 0.18 0.42 0.56 0.59 0.58 0.61 1.03 1.44 1.30 1.25 1.28 1.32 1.19 1.16 1.19 1.15 1.16 1.30 1.35 1.43 1.69 2.00 2.37 2.66 2.96 3.22 3.41 3.58 3.56 3.56 3.53 3.39 3.06 2.67 2.37 2.12 1.97 1.79 1.59 1.47 1.39 1.36 1.32 1.30 1.22 1.15 1.19 1.29
0.09 0.16 0.19 0.31 0.38 0.61 0.90 1.20 1.60 1.52 1.52 1.35 1.27 1.23 1.22 1.17 1.14 1.20 1.30 1.33 1.38 1.51 1.74 1.98 2.10 2.29 2.35 2.30 2.32 2.38 2.40 2.40 2.33 2.20 1.94 1.63 1.40 1.29 1.21 1.16 1.15 1.04 1.05 1.09 1.11 1.09 1.08 1.11 1.11
0.10 0.15 0.21 0.43 0.62 0.82 1.02 1.52 2.01 2.03 1.87 1.61 1.35 1.22 1.10 1.11 1.15 1.21 1.29 1.42 1.45 1.46 1.64 1.77 1.73 1.71 1.75 1.80 1.78 1.72 1.73 1.75 1.75 1.69 1.55 1.36 1.17 1.04 0.95 0.92 0.89 0.80 0.76 0.81 0.89 0.92 0.97 1.05 1.03
0.16 0.20 0.24 0.41 0.54 0.91 1.25 1.84 1.94 2.10 2.02 1.87 1.75 1.40 1.15 1.12 1.15 1.26 1.28 1.29 1.28 1.28 1.31 1.36 1.40 1.42 1.42 1.40 1.42 1.39 1.33 1.29 1.30 1.34 1.30 1.17 1.05 0.92 0.83 0.76 0.75 0.73 0.67 0.67 0.74 0.75 0.78 0.87 0.90
0.18 0.22 0.28 0.52 0.63 0.71 1.10 1.86 1.72 2.08 2.18 1.99 1.83 1.52 1.33 1.20 1.22 1.25 1.24 1.18 1.16 1.18 1.19 1.17 1.17 1.17 1.20 1.20 1.21 1.20 1.10 1.06 1.05 1.03 1.03 0.98 0.97 0.93 0.86 0.79 0.76 0.68 0.63 0.65 0.67 0.66 0.65 0.69 0.73

GEFSSGP_prec_meanprecacc_228.txt.gz
Total_Precipitation_Accumulation
0.04 0.03 0.04 0.05 0.06 0.08 0.11 0.16 0.26 0.45 0.53 0.43 0.42 0.44 0.46 0.52 0.78 1.42 0.90 0.54 0.33 0.25 0.30 0.34 0.34 0.31 0.29 0.27 0.29 0.24 0.22 0.25 0.28 0.28 0.32 0.35 0.26 0.22 0.23 0.25 0.33 0.40 0.42 0.39 0.36 0.36 0.41 0.41 0.32
0.04 0.04 0.05 0.04 0.04 0.07 0.16 0.20 0.33 0.46 0.46 0.46 0.45 0.54 0.55 0.49 0.41 0.43 0.50 0.41 0.26 0.25 0.32 0.32 0.34 0.35 0.32 0.29 0.29 0.26 0.27 0.28 0.33 0.37 0.38 0.41 0.31 0.26 0.27 0.29 0.33 0.41 0.44 0.39 0.36 0.33 0.36 0.36 0.30
0.04 0.05 0.04 0.02 0.02 0.08 0.22 0.30 0.39 0.46 0.46 0.51 0.59 0.62 0.63 0.64 0.49 0.50 0.52 0.38 0.28 0.29 0.31 0.31 0.30 0.35 0.40 0.40 0.38 0.37 0.34 0.37 0.41 0.46 0.50 0.54 0.43 0.31 0.32 0.35 0.35 0.40 0.44 0.45 0.40 0.33 0.31 0.33 0.31
0.03 0.03 0.03 0.03 0.05 0.07 0.18 0.35 0.41 0.47 0.49 0.47 0.49 0.64 0.72 0.70 0.59 0.55 0.50 0.41 0.31 0.35 0.39 0.34 0.35 0.39 0.53 0.54 0.49 0.47 0.45 0.46 0.52 0.55 0.54 0.58 0.51 0.42 0.41 0.44 0.43 0.45 0.48 0.53 0.50 0.46 0.36 0.33 0.42
0.01 0.02 0.02 0.05 0.07 0.11 0.17 0.38 0.46 0.47 0.48 0.46 0.56 0.74 0.84 0.91 0.78 0.66 0.56 0.53 0.46 0.46 0.50 0.45 0.44 0.46 0.58 0.57 0.55 0.51 0.51 0.51 0.60 0.62 0.58 0.59 0.54 0.46 0.47 0.53 0.53 0.56 0.59 0.56 0.51 0.49 0.43 0.39 0.47
0.01 0.01 0.03 0.06 0.10 0.17 0.23 0.32 0.42 0.49 0.54 0.53 0.64 0.83 1.13 1.22 1.07 0.87 0.69 0.64 0.55 0.51 0.50 0.46 0.45 0.47 0.61 0.65 0.60 0.56 0.53 0.58 0.70 0.73 0.67 0.60 0.57 0.56 0.60 0.62 0.65 0.70 0.66 0.56 0.52 0.50 0.47 0.50 0.51
0.00 0.01 0.03 0.04 0.10 0.19 0.24 0.34 0.48 0.53 0.63 0.64 0.72 0.95 1.30 1.37 1.09 0.89 0.82 0.73 0.62 0.59 0.57 0.57 0.63 0.62 0.63 0.64 0.67 0.71 0.63 0.69 0.79 0.78 0.80 0.70 0.65 0.73 0.79 0.77 0.77 0.78 0.70 0.59 0.56 0.57 0.50 0.54 0.59
0.00 0.02 0.04 0.07 0.09 0.15 0.24 0.37 0.55 0.65 0.77 0.81 0.95 1.06 1.52 1.53 1.23 1.07 0.98 1.03 1.04 1.11 1.16 0.98 0.96 0.88 0.73 0.65 0.65 0.67 0.69 0.82 0.94 0.86 0.80 0.78 0.76 0.79 0.84 0.81 0.80 0.73 0.63 0.59 0.61 0.64 0.59 0.55 0.53
0.00 0.01 0.03 0.06 0.09 0.16 0.28 0.42 0.51 0.65 0.86 0.90 0.95 0.96 1.26 1.27 1.29 1.41 1.40 1.62 1.62 1.65 1.77 1.47 1.08 0.92 0.94 0.82 0.71 0.77 0.75 0.79 0.87 0.86 0.82 0.87 1.09 1.19 1.17 0.94 0.93 0.83 0.74 0.72 0.72 0.68 0.61 0.55 0.52
0.00 0.01 0.02 0.05 0.07 0.15 0.30 0.47 0.55 0.57 0.78 0.86 0.88 0.93 1.08 1.31 1.43 1.61 1.77 2.37 2.22 1.99 1.95 1.78 1.36 1.35 1.48 1.19 1.08 1.03 0.96 0.95 0.95 1.05 1.04 1.13 1.54 1.62 1.35 1.33 1.19 1.12 0.99 0.92 0.91 0.88 0.76 0.65 0.63
0.00 0.01 0.03 0.06 0.09 0.19 0.34 0.49 0.61 0.74 0.88 0.95 1.02 1.13 1.30 1.61 1.60 1.69 1.94 2.47 2.55 2.19 1.81 1.52 1.46 1.44 1.57 1.53 1.46 1.41 1.41 1.49 1.51 1.53 1.51 1.67 1.75 1.58 1.38 1.56 1.47 1.46 1.31 1.27 1.35 1.19 0.98 0.96 1.03
0.01 0.02 0.04 0.09 0.17 0.23 0.41 0.59 0.71 0.94 1.10 1.14 1.13 1.15 1.43 1.57 1.55 1.78 2.20 2.21 2.19 2.10 1.92 1.78 1.76 1.69 1.77 2.03 2.02 1.92 1.93 1.87 1.77 1.78 1.72 1.96 2.09 1.96 1.93 1.97 1.88 1.99 2.06 2.03 1.78 1.58 1.33 1.21 1.14
0.03 0.04 0.07 0.13 0.26 0.28 0.42 0.65 0.62 0.78 0.93 0.97 0.96 1.05 1.25 1.48 1.68 2.02 2.28 2.37 2.37 2.32 2.12 2.02 2.06 2.04 2.03 2.37 2.57 2.38 2.34 2.18 2.03 1.98 1.98 2.05 2.11 2.14 2.29 2.31 2.43 2.32 2.20 2.11 2.01 1.72 1.66 1.50 1.33
0.04 0.07 0.12 0.17 0.30 0.35 0.35 0.43 0.45 0.63 0.75 0.84 0.97 1.03 1.15 1.37 1.75 2.02 2.21 2.40 2.55 2.66 2.39 2.18 2.19 2.10 2.09 2.25 2.48 2.57 2.48 2.49 2.42 2.28 2.19 2.20 2.31 2.47 2.52 2.59 2.55 2.36 2.15 2.14 2.15 2.00 1.96 1.84 1.69
0.06 0.09 0.17 0.21 0.26 0.31 0.28 0.36 0.44 0.52 0.62 0.69 0.89 1.13 1.29 1.64 1.75 1.90 2.14 2.50 2.74 2.95 2.90 2.66 2.54 2.47 2.42 2.36 2.36 2.42 2.51 2.69 2.63 2.62 2.63 2.46 2.39 2.50 2.58 2.72 2.68 2.54 2.43 2.35 2.23 2.22 2.19 2.07 1.95
0.11 0.11 0.17 0.22 0.27 0.26 0.28 0.48 0.58 0.62 0.64 0.69 0.71 0.96 1.39 1.73 1.63 1.65 1.98 2.53 3.19 3.51 3.39 2.91 2.57 2.72 2.77 2.80 2.78 2.85 2.85 2.95 2.87 2.69 2.79 2.71 2.70 2.64 2.65 2.62 2.51 2.48 2.42 2.54 2.58 2.53 2.48 2.34 2.26
0.15 0.14 0.18 0.23 0.25 0.26 0.31 0.58 0.76 0.77 0.80 0.78 0.78 1.00 1.35 1.45 1.39 1.55 1.95 2.69 3.52 4.13 3.86 3.16 2.85 2.96 3.08 3.06 3.20 3.39 3.49 3.44 3.29 3.13 3.11 2.96 3.01 2.94 2.89 2.95 2.88 2.75 2.77 2.76 2.59 2.65 2.72 2.73 2.61
0.16 0.15 0.22 0.23 0.23 0.24 0.29 0.45 0.68 0.90 0.88 0.92 0.93 1.14 1.26 1.38 1.35 1.53 2.03 2.81 3.55 4.24 4.11 3.62 3.34 3.50 3.45 3.36 3.49 3.62 3.68 3.67 3.73 3.73 3.68 3.46 3.35 3.39 3.48 3.52 3.44 3.20 3.15 3.16 3.21 3.15 2.89 2.70 2.61
0.15 0.18 0.22 0.22 0.21 0.26 0.29 0.42 0.59 0.78 0.80 0.87 1.01 1.14 1.09 1.17 1.31 1.62 2.15 2.84 3.31 3.48 3.53 3.70 3.69 3.73 3.76 3.68 3.69 3.87 4.00 4.03 4.00 4.12 4.17 3.99 3.89 3.93 4.08 4.09 4.02 3.76 3.55 3.43 3.38 3.29 3.05 2.76 2.56
0.18 0.21 0.23 0.26 0.23 0.24 0.34 0.49 0.65 0.76 0.79 0.88 1.02 1.06 1.04 1.04 1.23 1.66 2.08 2.52 2.90 3.25 3.40 3.55 3.55 3.77 4.03 4.37 4.80 5.05 5.16 5.08 4.92 4.85 4.76 4.62 4.50 4.44 4.40 4.41 4.20 3.92 3.76 3.54 3.30 3.20 3.03 2.79 2.67
0.18 0.16 0.22 0.30 0.32 0.28 0.40 0.70 0.80 0.86 0.97 1.10 1.18 1.28 1.30 1.16 1.31 1.64 1.85 2.18 2.50 2.86 3.12 3.28 3.54 4.01 4.53 5.15 5.90 6.25 6.01 5.61 5.41 5.10 5.03 4.83 4.59 4.50 4.50 4.27 4.05 3.82 3.61 3.44 3.23 3.14 3.06 2.80 2.68
0.14 0.12 0.17 0.24 0.31 0.35 0.36 0.75 1.00 1.05 1.24 1.42 1.34 1.31 1.35 1.34 1.37 1.51 1.68 1.92 2.15 2.55 2.97 3.34 3.75 4.32 4.99 5.54 6.03 6.30 6.20 5.91 5.64 5.20 4.81 4.45 4.12 3.93 3.83 3.72 3.49 3.34 3.20 3.03 2.85 2.85 2.83 2.71 2.53
0.09 0.10 0.13 0.18 0.22 0.32 0.36 0.59 1.07 1.30 1.39 1.53 1.40 1.35 1.30 1.31 1.25 1.34 1.46 1.67 2.00 2.40 2.86 3.32 3.74 4.35 4.91 5.42 5.80 6.03 6.06 5.93 5.56 4.89 4.29 3.90 3.57 3.33 3.05 2.82 2.71 2.70 2.63 2.44 2.25 2.21 2.21 2.19 2.14
0.09 0.10 0.14 0.20 0.25 0.39 0.36 0.58 1.19 1.55 1.62 1.57 1.52 1.48 1.35 1.26 1.25 1.22 1.34 1.54 1.96 2.27 2.71 3.08 3.40 4.10 4.81 5.34 5.71 5.94 5.94 5.67 5.06 4.40 3.86 3.53 3.25 2.98 2.71 2.53 2.36 2.26 2.15 2.01 1.84 1.73 1.73 1.76 1.79
0.12 0.18 0.33 0.43 0.50 0.53 0.40 0.63 1.18 1.31 1.34 1.42 1.38 1.31 1.30 1.27 1.20 1.20 1.36 1.43 1.80 2.15 2.46 2.78 3.13 3.58 4.07 4.52 4.78 4.95 5.03 4.80 4.40 4.03 3.58 3.22 2.98 2.71 2.41 2.11 1.91 1.79 1.71 1.64 1.58 1.47 1.41 1.46 1.51
0.11 0.19 0.44 0.61 0.65 0.62 0.63 1.08 1.50 1.33 1.29 1.32 1.35 1.23 1.22 1.26 1.23 1.23 1.37 1.43 1.53 1.82 2.13 2.48 2.76 3.02 3.27 3.47 3.66 3.63 3.63 3.60 3.46 3.15 2.74 2.43 2.18 2.02 1.84 1.63 1.51 1.44 1.41 1.37 1.35 1.27 1.19 1.23 1.34
0.10 0.16 0.19 0.32 0.39 0.63 0.93 1.25 1.66 1.57 1.56 1.39 1.31 1.28 1.26 1.23 1.22 1.27 1.38 1.40 1.45 1.59 1.87 2.10 2.18 2.36 2.41 2.37 2.40 2.45 2.47 2.47 2.41 2.28 2.02 1.70 1.46 1.35 1.28 1.22 1.20 1.08 1.09 1.14 1.16 1.14 1.12 1.16 1.16
0.10 0.15 0.22 0.45 0.65 0.85 1.05 1.56 2.07 2.07 1.90 1.65 1.40 1.28 1.16 1.16 1.22 1.27 1.34 1.47 1.52 1.53 1.72 1.84 1.79 1.77 1.82 1.87 1.85 1.78 1.81 1.83 1.83 1.76 1.60 1.41 1.23 1.10 1.01 0.97 0.93 0.84 0.79 0.85 0.93 0.96 1.01 1.09 1.07
0.16 0.20 0.25 0.43 0.57 0.94 1.30 1.91 1.99 2.13 2.05 1.90 1.79 1.46 1.24 1.23 1.25 1.33 1.32 1.33 1.35 1.36 1.37 1.42 1.45 1.49 1.48 1.47 1.49 1.46 1.40 1.37 1.37 1.40 1.36 1.22 1.10 0.98 0.87 0.79 0.79 0.77 0.71 0.70 0.78 0.79 0.83 0.93 0.95
0.18 0.22 0.29 0.54 0.65 0.74 1.16 1.97 1.76 2.10 2.20 2.03 1.88 1.57 1.42 1.32 1.33 1.31 1.28 1.21 1.22 1.26 1.26 1.21 1.23 1.24 1.26 1.27 1.27 1.28 1.17 1.13 1.12 1.08 1.08 1.04 1.02 0.97 0.90 0.83 0.79 0.72 0.66 0.68 0.70 0.70 0.69 0.74 0.78

GEFSSGP_prec_meanprecacc_234.txt.gz
Total_Precipitation_Accumulation
0.04 0.03 0.04 0.06 0.09 0.12 0.15 0.19 0.28 0.46 0.54 0.44 0.43 0.45 0.46 0.53 0.78 1.44 0.91 0.55 0.38 0.28 0.32 0.35 0.35 0.31 0.30 0.27 0.29 0.24 0.23 0.26 0.29 0.29 0.34 0.37 0.27 0.24 0.24 0.26 0.34 0.44 0.45 0.42 0.38 0.37 0.44 0.45 0.35
0.04 0.04 0.05 0.06 0.08 0.11 0.19 0.22 0.34 0.46 0.47 0.47 0.46 0.55 0.55 0.49 0.41 0.43 0.50 0.42 0.29 0.26 0.33 0.33 0.34 0.35 0.33 0.29 0.29 0.27 0.27 0.28 0.34 0.38 0.41 0.44 0.35 0.29 0.30 0.31 0.35 0.45 0.47 0.42 0.38 0.35 0.38 0.39 0.32
0.04 0.05 0.05 0.04 0.07 0.12 0.25 0.31 0.40 0.47 0.46 0.52 0.60 0.63 0.64 0.65 0.50 0.51 0.54 0.39 0.29 0.30 0.32 0.32 0.30 0.35 0.41 0.40 0.39 0.37 0.35 0.38 0.41 0.47 0.52 0.57 0.48 0.38 0.37 0.37 0.37 0.45 0.48 0.48 0.42 0.36 0.35 0.36 0.34
0.03 0.03 0.03 0.05 0.09 0.10 0.20 0.36 0.43 0.48 0.50 0.48 0.51 0.65 0.74 0.71 0.60 0.56 0.52 0.43 0.34 0.37 0.41 0.35 0.35 0.39 0.53 0.54 0.50 0.47 0.46 0.47 0.53 0.55 0.56 0.60 0.54 0.49 0.51 0.49 0.47 0.52 0.55 0.56 0.53 0.49 0.41 0.38 0.46
0.01 0.02 0.03 0.08 0.11 0.14 0.18 0.39 0.48 0.49 0.49 0.48 0.59 0.76 0.87 0.94 0.80 0.68 0.57 0.54 0.52 0.54 0.53 0.47 0.45 0.46 0.58 0.57 0.55 0.52 0.51 0.52 0.60 0.63 0.59 0.60 0.55 0.49 0.56 0.66 0.62 0.66 0.69 0.60 0.55 0.54 0.47 0.44 0.52
0.01 0.02 0.05 0.09 0.15 0.20 0.24 0.33 0.44 0.51 0.55 0.56 0.68 0.86 1.16 1.26 1.11 0.93 0.71 0.65 0.57 0.57 0.54 0.48 0.47 0.48 0.61 0.66 0.61 0.57 0.53 0.58 0.70 0.73 0.68 0.61 0.59 0.58 0.63 0.72 0.78 0.81 0.78 0.62 0.57 0.56 0.53 0.56 0.57
0.00 0.02 0.04 0.07 0.14 0.21 0.25 0.36 0.49 0.54 0.66 0.72 0.82 1.03 1.34 1.41 1.14 0.97 0.88 0.76 0.64 0.61 0.61 0.60 0.64 0.63 0.64 0.65 0.69 0.73 0.64 0.69 0.80 0.79 0.81 0.72 0.68 0.78 0.84 0.83 0.84 0.86 0.80 0.67 0.61 0.63 0.57 0.59 0.63
0.00 0.03 0.06 0.10 0.13 0.18 0.25 0.38 0.56 0.66 0.79 0.88 1.07 1.12 1.55 1.57 1.28 1.14 1.08 1.09 1.08 1.13 1.19 1.03 0.99 0.90 0.74 0.65 0.66 0.69 0.70 0.83 0.95 0.87 0.82 0.81 0.81 0.88 0.98 0.93 0.87 0.79 0.70 0.66 0.66 0.70 0.64 0.58 0.56
0.00 0.01 0.05 0.09 0.13 0.18 0.28 0.43 0.52 0.67 0.87 0.92 0.99 0.98 1.28 1.31 1.35 1.47 1.50 1.71 1.70 1.71 1.81 1.51 1.12 0.94 0.96 0.84 0.73 0.79 0.77 0.81 0.89 0.88 0.86 0.92 1.14 1.28 1.31 1.10 1.08 0.94 0.80 0.77 0.77 0.72 0.66 0.58 0.54
0.00 0.01 0.03 0.07 0.11 0.17 0.31 0.48 0.56 0.59 0.80 0.87 0.89 0.95 1.11 1.36 1.51 1.66 1.84 2.47 2.34 2.08 2.02 1.84 1.41 1.40 1.53 1.23 1.11 1.07 0.99 0.98 0.97 1.09 1.09 1.18 1.59 1.68 1.42 1.42 1.28 1.21 1.06 0.98 0.96 0.92 0.80 0.68 0.65
0.01 0.01 0.04 0.08 0.13 0.21 0.37 0.51 0.62 0.76 0.90 0.97 1.04 1.16 1.33 1.65 1.65 1.72 1.97 2.55 2.72 2.31 1.92 1.61 1.52 1.50 1.63 1.58 1.51 1.46 1.46 1.54 1.55 1.58 1.55 1.72 1.81 1.64 1.45 1.65 1.56 1.54 1.39 1.34 1.41 1.23 1.01 0.98 1.05
0.01 0.02 0.06 0.12 0.19 0.25 0.44 0.63 0.73 0.96 1.11 1.16 1.14 1.17 1.46 1.60 1.58 1.81 2.25 2.26 2.31 2.23 2.01 1.89 1.85 1.78 1.86 2.11 2.08 1.97 1.98 1.94 1.83 1.83 1.78 2.04 2.20 2.07 2.04 2.07 1.96 2.08 2.12 2.09 1.84 1.62 1.36 1.23 1.16
0.03 0.05 0.08 0.14 0.26 0.29 0.43 0.68 0.66 0.80 0.94 0.97 0.97 1.07 1.30 1.52 1.72 2.09 2.34 2.43 2.44 2.44 2.22 2.12 2.20 2.18 2.16 2.48 2.65 2.45 2.40 2.23 2.08 2.03 2.03 2.14 2.25 2.30 2.44 2.43 2.54 2.44 2.31 2.19 2.08 1.77 1.69 1.53 1.35
0.04 0.07 0.12 0.18 0.31 0.36 0.36 0.48 0.52 0.68 0.77 0.86 0.98 1.05 1.19 1.45 1.89 2.16 2.30 2.47 2.63 2.74 2.49 2.32 2.38 2.29 2.25 2.40 2.61 2.66 2.58 2.58 2.49 2.33 2.25 2.27 2.39 2.56 2.60 2.67 2.65 2.48 2.28 2.27 2.25 2.07 2.01 1.88 1.73
0.06 0.09 0.17 0.22 0.27 0.31 0.31 0.40 0.53 0.59 0.69 0.74 0.92 1.17 1.34 1.75 1.99 2.07 2.22 2.56 2.81 3.03 3.00 2.84 2.76 2.81 2.65 2.55 2.62 2.58 2.60 2.79 2.73 2.70 2.69 2.53 2.44 2.55 2.63 2.77 2.75 2.63 2.54 2.49 2.37 2.34 2.28 2.13 2.01
0.11 0.11 0.17 0.23 0.27 0.27 0.30 0.51 0.60 0.66 0.70 0.75 0.76 1.00 1.43 1.80 1.77 1.75 2.05 2.60 3.27 3.59 3.50 3.06 2.74 2.94 2.93 2.90 2.93 3.00 2.94 3.04 2.98 2.78 2.86 2.77 2.76 2.68 2.68 2.65 2.55 2.52 2.50 2.67 2.74 2.64 2.59 2.46 2.35
0.16 0.14 0.18 0.23 0.26 0.27 0.33 0.61 0.77 0.79 0.83 0.82 0.83 1.06 1.40 1.52 1.47 1.61 2.05 2.78 3.59 4.21 3.96 3.32 2.99 3.04 3.12 3.10 3.27 3.49 3.58 3.53 3.37 3.21 3.20 3.05 3.07 2.98 2.93 2.99 2.91 2.78 2.83 2.86 2.71 2.76 2.82 2.85 2.75
0.16 0.15 0.22 0.23 0.23 0.25 0.33 0.53 0.70 0.93 0.95 0.97 0.97 1.19 1.31 1.46 1.43 1.61 2.13 2.86 3.62 4.35 4.22 3.74 3.43 3.54 3.48 3.39 3.55 3.71 3.76 3.75 3.81 3.83 3.77 3.54 3.41 3.44 3.54 3.58 3.51 3.26 3.19 3.20 3.27 3.25 2.97 2.78 2.70
0.15 0.18 0.22 0.23 0.22 0.26 0.32 0.48 0.61 0.80 0.83 0.91 1.04 1.18 1.14 1.23 1.38 1.71 2.22 2.90 3.37 3.57 3.65 3.79 3.75 3.77 3.78 3.70 3.72 3.93 4.08 4.09 4.06 4.20 4.25 4.06 3.95 4.02 4.22 4.23 4.14 3.83 3.59 3.46 3.42 3.35 3.12 2.84 2.64
0.19 0.21 0.23 0.26 0.24 0.25 0.35 0.52 0.68 0.79 0.82 0.91 1.04 1.09 1.08 1.08 1.31 1.75 2.16 2.61 2.97 3.33 3.49 3.63 3.60 3.81 4.06 4.40 4.84 5.10 5.22 5.15 4.99 4.91 4.82 4.67 4.56 4.58 4.62 4.61 4.30 3.97 3.80 3.58 3.34 3.24 3.08 2.84 2.73
0.18 0.16 0.22 0.30 0.33 0.31 0.42 0.73 0.82 0.89 1.01 1.14 1.21 1.31 1.33 1.19 1.35 1.71 1.93 2.30 2.59 2.93 3.19 3.35 3.59 4.06 4.58 5.21 5.98 6.32 6.07 5.69 5.47 5.15 5.08 4.89 4.67 4.62 4.63 4.36 4.09 3.85 3.65 3.49 3.28 3.18 3.10 2.85 2.74
0.14 0.12 0.17 0.24 0.31 0.37 0.39 0.79 1.04 1.10 1.31 1.47 1.36 1.34 1.37 1.37 1.41 1.58 1.80 2.05 2.24 2.61 3.04 3.41 3.82 4.41 5.07 5.62 6.12 6.36 6.25 5.98 5.70 5.25 4.87 4.51 4.20 4.01 3.89 3.77 3.52 3.38 3.25 3.09 2.92 2.92 2.89 2.77 2.58
0.09 0.10 0.13 0.18 0.23 0.33 0.39 0.63 1.13 1.37 1.46 1.58 1.44 1.38 1.33 1.35 1.32 1.44 1.62 1.85 2.13 2.51 2.94 3.40 3.85 4.46 5.00 5.52 5.89 6.11 6.13 5.99 5.61 4.94 4.33 3.96 3.63 3.39 3.12 2.89 2.78 2.77 2.70 2.50 2.31 2.28 2.28 2.25 2.20
0.10 0.10 0.14 0.20 0.25 0.41 0.41 0.64 1.26 1.63 1.70 1.64 1.57 1.53 1.42 1.42 1.46 1.45 1.52 1.69 2.11 2.44 2.86 3.19 3.55 4.22 4.92 5.44 5.78 6.02 6.00 5.72 5.10 4.43 3.89 3.56 3.29 3.03 2.76 2.59 2.42 2.34 2.23 2.06 1.89 1.79 1.77 1.81 1.84
0.12 0.18 0.34 0.44 0.51 0.54 0.43 0.68 1.23 1.37 1.39 1.46 1.40 1.35 1.38 1.39 1.38 1.39 1.57 1.69 2.15 2.44 2.62 2.90 3.24 3.70 4.20 4.62 4.87 5.02 5.07 4.83 4.43 4.06 3.60 3.25 3.02 2.76 2.45 2.16 1.96 1.85 1.78 1.70 1.64 1.52 1.45 1.50 1.54
0.11 0.19 0.45 0.62 0.67 0.64 0.67 1.15 1.56 1.39 1.35 1.35 1.37 1.25 1.25 1.33 1.32 1.34 1.55 1.72 1.81 2.01 2.28 2.60 2.86 3.14 3.38 3.56 3.73 3.69 3.66 3.62 3.48 3.17 2.76 2.45 2.21 2.06 1.89 1.69 1.57 1.51 1.50 1.44 1.40 1.31 1.22 1.26 1.37
0.10 0.16 0.19 0.33 0.40 0.65 0.96 1.29 1.71 1.64 1.63 1.44 1.35 1.31 1.30 1.27 1.29 1.37 1.53 1.61 1.60 1.69 2.00 2.21 2.28 2.45 2.49 2.45 2.45 2.48 2.50 2.49 2.43 2.31 2.04 1.72 1.49 1.39 1.33 1.28 1.26 1.15 1.15 1.18 1.19 1.16 1.15 1.19 1.19
0.11 0.15 0.22 0.45 0.66 0.87 1.07 1.59 2.10 2.11 1.95 1.71 1.47 1.33 1.19 1.19 1.26 1.33 1.44 1.57 1.59 1.60 1.80 1.92 1.85 1.82 1.88 1.94 1.89 1.81 1.83 1.85 1.86 1.80 1.63 1.44 1.27 1.15 1.06 1.02 0.99 0.89 0.84 0.88 0.96 0.99 1.04 1.13 1.11
0.16 0.20 0.25 0.43 0.57 0.96 1.33 1.94 2.02 2.16 2.08 1.94 1.84 1.49 1.28 1.26 1.30 1.39 1.37 1.38 1.40 1.41 1.41 1.46 1.49 1.52 1.52 1.50 1.51 1.48 1.42 1.40 1.41 1.44 1.40 1.26 1.15 1.03 0.91 0.84 0.84 0.82 0.76 0.75 0.82 0.83 0.87 0.97 0.99
0.18 0.22 0.30 0.55 0.66 0.75 1.17 1.98 1.77 2.12 2.23 2.09 1.92 1.60 1.45 1.37 1.40 1.42 1.36 1.26 1.27 1.34 1.31 1.25 1.26 1.27 1.28 1.30 1.30 1.30 1.20 1.16 1.15 1.13 1.13 1.08 1.06 1.01 0.93 0.87 0.83 0.76 0.71 0.73 0.75 0.74 0.72 0.78 0.82

GEFSSGP_prec_meanprecacc_240.txt.gz
Total_Precipitation_Accumulation
0.04 0.03 0.04 0.07 0.10 0.12 0.15 0.19 0.28 0.46 0.55 0.45 0.45 0.47 0.48 0.54 0.79 1.44 0.92 0.57 0.40 0.29 0.33 0.36 0.35 0.33 0.31 0.28 0.30 0.25 0.23 0.26 0.29 0.30 0.35 0.38 0.29 0.26 0.26 0.29 0.37 0.47 0.48 0.45 0.42 0.42 0.46 0.47 0.36
0.04 0.04 0.05 0.07 0.08 0.12 0.19 0.23 0.35 0.47 0.48 0.49 0.47 0.57 0.57 0.50 0.42 0.43 0.51 0.44 0.30 0.26 0.33 0.33 0.34 0.36 0.34 0.30 0.30 0.27 0.28 0.29 0.34 0.38 0.42 0.45 0.37 0.32 0.33 0.34 0.38 0.48 0.49 0.45 0.41 0.39 0.42 0.42 0.34
0.04 0.06 0.05 0.04 0.08 0.13 0.26 0.32 0.41 0.47 0.47 0.53 0.62 0.65 0.66 0.66 0.50 0.52 0.55 0.41 0.30 0.31 0.33 0.32 0.30 0.36 0.41 0.41 0.39 0.38 0.35 0.38 0.42 0.48 0.53 0.58 0.49 0.42 0.42 0.42 0.42 0.50 0.51 0.50 0.46 0.41 0.40 0.40 0.37
0.04 0.04 0.04 0.06 0.10 0.11 0.20 0.36 0.44 0.49 0.51 0.49 0.52 0.67 0.77 0.74 0.62 0.59 0.55 0.44 0.34 0.38 0.41 0.35 0.36 0.40 0.54 0.54 0.50 0.48 0.46 0.47 0.54 0.57 0.57 0.61 0.55 0.51 0.55 0.58 0.57 0.60 0.60 0.59 0.56 0.54 0.46 0.42 0.49
0.01 0.02 0.04 0.09 0.12 0.15 0.19 0.40 0.49 0.50 0.50 0.49 0.61 0.81 0.91 0.97 0.82 0.70 0.61 0.60 0.56 0.56 0.54 0.47 0.45 0.46 0.58 0.57 0.55 0.52 0.52 0.53 0.62 0.65 0.61 0.63 0.58 0.53 0.60 0.72 0.73 0.78 0.80 0.67 0.59 0.58 0.52 0.50 0.58
0.01 0.02 0.07 0.10 0.16 0.22 0.24 0.33 0.44 0.52 0.57 0.58 0.71 0.91 1.19 1.28 1.14 0.97 0.75 0.71 0.65 0.64 0.57 0.49 0.48 0.49 0.62 0.67 0.61 0.57 0.54 0.58 0.71 0.75 0.70 0.64 0.62 0.62 0.68 0.77 0.85 0.92 0.90 0.72 0.66 0.62 0.58 0.61 0.61
0.00 0.02 0.05 0.07 0.15 0.24 0.27 0.37 0.50 0.56 0.67 0.73 0.85 1.07 1.36 1.43 1.18 1.01 0.93 0.82 0.70 0.70 0.67 0.63 0.66 0.65 0.66 0.67 0.70 0.75 0.65 0.70 0.81 0.80 0.82 0.74 0.71 0.82 0.89 0.88 0.91 0.94 0.93 0.79 0.70 0.70 0.63 0.65 0.67
0.00 0.03 0.06 0.10 0.14 0.20 0.26 0.39 0.58 0.68 0.81 0.90 1.09 1.14 1.56 1.59 1.32 1.19 1.16 1.16 1.16 1.23 1.28 1.12 1.04 0.93 0.77 0.68 0.68 0.71 0.72 0.85 0.96 0.88 0.83 0.82 0.83 0.91 1.02 0.98 0.95 0.88 0.81 0.79 0.76 0.77 0.72 0.65 0.61
0.00 0.02 0.06 0.09 0.14 0.19 0.29 0.44 0.54 0.68 0.88 0.93 1.00 0.99 1.28 1.33 1.38 1.53 1.59 1.77 1.78 1.79 1.92 1.62 1.21 1.00 1.01 0.89 0.76 0.81 0.79 0.83 0.91 0.90 0.87 0.93 1.15 1.29 1.33 1.16 1.18 1.07 0.94 0.90 0.90 0.81 0.74 0.66 0.59
0.00 0.01 0.04 0.08 0.12 0.18 0.33 0.50 0.57 0.61 0.81 0.87 0.90 0.96 1.12 1.38 1.54 1.70 1.88 2.51 2.38 2.14 2.11 1.91 1.45 1.46 1.59 1.27 1.15 1.10 1.02 0.99 0.98 1.11 1.11 1.20 1.61 1.70 1.44 1.46 1.39 1.37 1.23 1.13 1.12 1.07 0.92 0.78 0.72
0.01 0.01 0.04 0.08 0.14 0.23 0.38 0.52 0.63 0.77 0.91 0.98 1.06 1.18 1.34 1.66 1.68 1.75 2.03 2.62 2.79 2.38 1.97 1.65 1.55 1.53 1.66 1.62 1.55 1.50 1.49 1.56 1.58 1.62 1.63 1.79 1.86 1.69 1.50 1.69 1.62 1.63 1.53 1.48 1.55 1.39 1.16 1.08 1.10
0.01 0.02 0.06 0.13 0.19 0.26 0.45 0.64 0.74 0.96 1.12 1.18 1.17 1.20 1.49 1.63 1.62 1.87 2.33 2.35 2.39 2.29 2.06 1.93 1.88 1.80 1.88 2.15 2.12 2.01 2.02 1.97 1.88 1.90 1.85 2.12 2.27 2.14 2.11 2.13 2.03 2.13 2.17 2.16 1.92 1.72 1.49 1.35 1.22
0.03 0.05 0.08 0.14 0.27 0.30 0.44 0.69 0.67 0.81 0.95 0.98 0.99 1.09 1.34 1.59 1.82 2.19 2.46 2.53 2.53 2.50 2.27 2.17 2.23 2.20 2.18 2.50 2.69 2.48 2.44 2.28 2.14 2.09 2.11 2.22 2.32 2.37 2.51 2.48 2.60 2.49 2.36 2.26 2.14 1.83 1.77 1.62 1.42
0.04 0.07 0.12 0.18 0.31 0.37 0.38 0.50 0.55 0.71 0.80 0.88 1.01 1.08 1.24 1.54 2.00 2.30 2.46 2.59 2.73 2.81 2.55 2.38 2.43 2.32 2.29 2.45 2.66 2.71 2.63 2.63 2.54 2.38 2.31 2.33 2.45 2.62 2.66 2.73 2.71 2.54 2.34 2.35 2.34 2.16 2.10 1.97 1.80
0.06 0.09 0.17 0.22 0.27 0.32 0.31 0.41 0.55 0.64 0.73 0.78 0.97 1.22 1.39 1.81 2.06 2.14 2.31 2.66 2.89 3.08 3.07 2.91 2.82 2.88 2.73 2.66 2.72 2.67 2.68 2.86 2.80 2.77 2.75 2.59 2.51 2.61 2.71 2.86 2.82 2.70 2.60 2.55 2.46 2.42 2.36 2.21 2.07
0.11 0.12 0.17 0.23 0.27 0.27 0.30 0.52 0.62 0.70 0.76 0.83 0.84 1.08 1.50 1.86 1.82 1.81 2.11 2.68 3.38 3.67 3.59 3.15 2.82 3.05 3.06 3.03 3.07 3.13 3.06 3.15 3.07 2.85 2.92 2.83 2.83 2.75 2.76 2.75 2.66 2.62 2.59 2.75 2.80 2.68 2.64 2.51 2.41
0.16 0.14 0.18 0.24 0.26 0.27 0.34 0.62 0.79 0.81 0.86 0.87 0.90 1.13 1.47 1.57 1.52 1.66 2.11 2.84 3.69 4.28 4.03 3.40 3.06 3.14 3.25 3.20 3.37 3.60 3.70 3.64 3.46 3.28 3.26 3.10 3.13 3.05 3.02 3.11 3.06 2.93 2.98 2.98 2.77 2.82 2.87 2.89 2.81
0.16 0.15 0.22 0.23 0.23 0.25 0.33 0.53 0.71 0.95 0.98 1.01 1.02 1.25 1.38 1.51 1.48 1.66 2.18 2.93 3.70 4.41 4.27 3.79 3.49 3.63 3.58 3.45 3.61 3.78 3.84 3.83 3.89 3.91 3.84 3.62 3.50 3.53 3.67 3.72 3.65 3.42 3.32 3.28 3.32 3.28 3.00 2.82 2.76
0.15 0.18 0.22 0.23 0.22 0.27 0.33 0.49 0.62 0.82 0.87 0.95 1.08 1.22 1.19 1.27 1.43 1.78 2.29 3.01 3.46 3.63 3.71 3.85 3.81 3.86 3.86 3.78 3.80 4.01 4.15 4.16 4.13 4.27 4.33 4.15 4.04 4.11 4.35 4.36 4.26 3.96 3.68 3.51 3.45 3.38 3.15 2.87 2.68
0.19 0.21 0.23 0.26 0.24 0.25 0.36 0.54 0.70 0.81 0.87 0.97 1.09 1.12 1.11 1.12 1.35 1.81 2.27 2.71 3.04 3.39 3.55 3.69 3.68 3.90 4.15 4.51 4.98 5.24 5.35 5.24 5.06 4.98 4.90 4.76 4.65 4.66 4.72 4.70 4.38 4.04 3.86 3.61 3.36 3.26 3.12 2.88 2.77
0.18 0.16 0.22 0.30 0.33 0.31 0.43 0.74 0.84 0.91 1.06 1.20 1.26 1.34 1.35 1.22 1.40 1.77 2.02 2.38 2.66 3.00 3.26 3.44 3.71 4.18 4.71 5.36 6.13 6.43 6.17 5.76 5.55 5.23 5.16 4.97 4.74 4.69 4.72 4.43 4.14 3.91 3.71 3.53 3.32 3.23 3.15 2.89 2.78
0.14 0.12 0.17 0.24 0.31 0.37 0.39 0.79 1.05 1.12 1.35 1.50 1.39 1.36 1.39 1.39 1.44 1.63 1.87 2.14 2.34 2.71 3.14 3.54 3.97 4.58 5.24 5.79 6.25 6.46 6.32 6.05 5.78 5.33 4.96 4.59 4.27 4.07 3.95 3.83 3.58 3.44 3.32 3.16 2.99 2.99 2.94 2.82 2.62
0.09 0.10 0.13 0.18 0.23 0.33 0.39 0.64 1.15 1.38 1.50 1.61 1.46 1.40 1.35 1.37 1.33 1.46 1.66 1.92 2.24 2.65 3.12 3.59 4.04 4.70 5.20 5.67 6.00 6.21 6.22 6.11 5.73 5.04 4.43 4.03 3.69 3.44 3.17 2.93 2.81 2.81 2.76 2.56 2.37 2.35 2.34 2.31 2.24
0.10 0.10 0.14 0.20 0.25 0.41 0.41 0.65 1.27 1.63 1.72 1.67 1.59 1.56 1.44 1.44 1.48 1.48 1.56 1.74 2.17 2.57 3.06 3.40 3.73 4.41 5.08 5.56 5.88 6.12 6.09 5.84 5.21 4.52 3.98 3.64 3.34 3.07 2.79 2.62 2.45 2.37 2.27 2.12 1.95 1.86 1.84 1.86 1.89
0.12 0.18 0.34 0.44 0.51 0.54 0.45 0.70 1.25 1.38 1.40 1.47 1.42 1.37 1.40 1.41 1.41 1.43 1.63 1.75 2.22 2.58 2.87 3.15 3.40 3.79 4.28 4.70 4.96 5.13 5.16 4.94 4.52 4.12 3.67 3.29 3.04 2.78 2.48 2.18 1.99 1.89 1.83 1.76 1.71 1.60 1.54 1.57 1.61
0.11 0.20 0.45 0.62 0.67 0.65 0.69 1.16 1.57 1.40 1.36 1.38 1.39 1.27 1.26 1.35 1.36 1.38 1.60 1.78 1.90 2.12 2.39 2.70 2.94 3.19 3.43 3.63 3.80 3.75 3.73 3.71 3.54 3.21 2.79 2.47 2.22 2.07 1.91 1.71 1.59 1.54 1.55 1.52 1.48 1.38 1.29 1.33 1.43
0.10 0.16 0.19 0.33 0.40 0.65 0.97 1.30 1.72 1.65 1.65 1.46 1.36 1.32 1.31 1.29 1.31 1.40 1.56 1.65 1.68 1.80 2.06 2.24 2.32 2.51 2.57 2.53 2.51 2.54 2.56 2.56 2.47 2.33 2.07 1.73 1.50 1.40 1.35 1.32 1.29 1.18 1.19 1.24 1.25 1.22 1.21 1.24 1.24
0.11 0.15 0.22 0.45 0.66 0.87 1.08 1.60 2.10 2.12 1.96 1.72 1.48 1.34 1.20 1.20 1.27 1.35 1.46 1.59 1.64 1.68 1.88 1.97 1.89 1.88 1.93 1.99 1.94 1.86 1.89 1.90 1.89 1.82 1.66 1.45 1.28 1.16 1.08 1.05 1.02 0.92 0.88 0.93 1.01 1.05 1.11 1.19 1.16
0.16 0.20 0.26 0.43 0.58 0.97 1.33 1.94 2.02 2.17 2.08 1.95 1.84 1.50 1.28 1.27 1.31 1.40 1.39 1.39 1.42 1.46 1.47 1.53 1.54 1.56 1.55 1.53 1.54 1.53 1.48 1.43 1.43 1.46 1.42 1.27 1.16 1.04 0.93 0.86 0.87 0.86 0.79 0.78 0.85 0.88 0.93 1.03 1.06
0.18 0.22 0.30 0.55 0.66 0.75 1.17 1.98 1.78 2.12 2.24 2.09 1.93 1.61 1.46 1.38 1.43 1.44 1.38 1.28 1.29 1.37 1.36 1.31 1.31 1.31 1.32 1.33 1.34 1.37 1.25 1.18 1.17 1.15 1.15 1.09 1.07 1.03 0.96 0.90 0.87 0.80 0.74 0.76 0.78 0.77 0.75 0.82 0.88

GEFSSGP_prec_meanprecacc_246.txt.gz
Total_Precipitation_Accumulation
0.04 0.03 0.04 0.07 0.10 0.13 0.16 0.19 0.29 0.47 0.56 0.46 0.45 0.47 0.48 0.54 0.79 1.46 0.95 0.59 0.40 0.29 0.33 0.36 0.36 0.34 0.33 0.30 0.31 0.26 0.25 0.27 0.30 0.30 0.35 0.39 0.31 0.28 0.28 0.31 0.41 0.51 0.52 0.47 0.44 0.45 0.48 0.49 0.38
0.05 0.05 0.05 0.07 0.09 0.12 0.20 0.23 0.35 0.47 0.49 0.50 0.48 0.57 0.58 0.51 0.42 0.45 0.55 0.46 0.30 0.27 0.33 0.33 0.35 0.37 0.35 0.31 0.31 0.28 0.29 0.31 0.36 0.39 0.42 0.47 0.38 0.33 0.35 0.38 0.43 0.54 0.56 0.50 0.45 0.43 0.45 0.45 0.37
0.05 0.06 0.05 0.04 0.08 0.13 0.26 0.33 0.41 0.47 0.47 0.53 0.62 0.65 0.67 0.68 0.51 0.55 0.59 0.44 0.32 0.31 0.33 0.32 0.31 0.37 0.42 0.42 0.41 0.39 0.37 0.40 0.44 0.49 0.55 0.59 0.52 0.44 0.45 0.45 0.46 0.55 0.58 0.58 0.53 0.47 0.46 0.45 0.41
0.04 0.04 0.04 0.06 0.10 0.11 0.21 0.37 0.44 0.49 0.51 0.49 0.52 0.68 0.78 0.75 0.64 0.61 0.58 0.50 0.38 0.39 0.42 0.35 0.36 0.40 0.54 0.55 0.51 0.49 0.47 0.49 0.55 0.59 0.60 0.65 0.59 0.55 0.59 0.62 0.61 0.65 0.66 0.66 0.65 0.65 0.58 0.49 0.54
0.02 0.03 0.05 0.09 0.12 0.15 0.19 0.40 0.49 0.50 0.50 0.49 0.62 0.82 0.91 0.98 0.83 0.72 0.64 0.62 0.58 0.58 0.55 0.48 0.46 0.47 0.59 0.58 0.56 0.53 0.53 0.54 0.63 0.66 0.64 0.66 0.62 0.57 0.65 0.78 0.79 0.84 0.87 0.75 0.68 0.70 0.68 0.59 0.65
0.02 0.03 0.08 0.11 0.17 0.22 0.25 0.33 0.44 0.52 0.57 0.58 0.72 0.92 1.20 1.29 1.15 0.98 0.77 0.72 0.65 0.66 0.60 0.51 0.49 0.51 0.63 0.68 0.63 0.59 0.56 0.60 0.73 0.76 0.71 0.66 0.65 0.66 0.73 0.83 0.91 0.99 0.97 0.81 0.76 0.73 0.69 0.73 0.70
0.01 0.02 0.06 0.08 0.16 0.24 0.27 0.37 0.50 0.56 0.68 0.74 0.86 1.09 1.38 1.44 1.19 1.02 0.93 0.82 0.71 0.72 0.72 0.68 0.69 0.68 0.68 0.69 0.73 0.77 0.68 0.73 0.82 0.82 0.84 0.75 0.73 0.85 0.93 0.92 0.96 1.01 1.00 0.88 0.82 0.82 0.72 0.75 0.75
0.01 0.03 0.06 0.10 0.15 0.20 0.26 0.39 0.59 0.68 0.81 0.91 1.11 1.17 1.58 1.61 1.34 1.20 1.18 1.17 1.18 1.30 1.36 1.19 1.11 0.99 0.82 0.73 0.72 0.74 0.76 0.88 0.99 0.91 0.86 0.85 0.85 0.93 1.04 1.01 1.00 0.95 0.88 0.87 0.85 0.88 0.84 0.77 0.70
0.00 0.02 0.06 0.09 0.14 0.20 0.29 0.45 0.55 0.69 0.89 0.93 1.01 1.00 1.30 1.35 1.40 1.55 1.61 1.80 1.83 1.92 2.06 1.76 1.35 1.13 1.10 0.96 0.81 0.87 0.85 0.88 0.95 0.95 0.92 0.98 1.20 1.33 1.36 1.20 1.25 1.13 1.00 0.98 0.99 0.92 0.86 0.78 0.70
0.00 0.01 0.04 0.08 0.12 0.19 0.33 0.51 0.58 0.61 0.81 0.88 0.91 0.97 1.14 1.39 1.56 1.73 1.92 2.55 2.45 2.27 2.29 2.03 1.55 1.62 1.73 1.35 1.22 1.17 1.07 1.04 1.03 1.16 1.16 1.25 1.66 1.75 1.49 1.52 1.45 1.44 1.32 1.24 1.23 1.18 1.04 0.89 0.82
0.01 0.01 0.04 0.08 0.15 0.23 0.39 0.52 0.63 0.78 0.92 0.99 1.07 1.19 1.37 1.69 1.71 1.79 2.07 2.69 2.86 2.47 2.08 1.73 1.65 1.66 1.79 1.72 1.62 1.57 1.55 1.60 1.61 1.66 1.67 1.83 1.90 1.74 1.56 1.75 1.68 1.71 1.65 1.62 1.69 1.52 1.30 1.21 1.20
0.01 0.02 0.06 0.13 0.20 0.26 0.45 0.64 0.75 0.97 1.13 1.19 1.19 1.22 1.52 1.68 1.67 1.94 2.42 2.44 2.46 2.38 2.14 2.03 2.02 1.92 1.96 2.25 2.21 2.09 2.08 2.02 1.92 1.94 1.89 2.16 2.30 2.18 2.15 2.17 2.08 2.20 2.25 2.28 2.07 1.86 1.63 1.51 1.36
0.03 0.05 0.08 0.15 0.27 0.30 0.44 0.70 0.67 0.82 0.97 1.02 1.02 1.11 1.38 1.65 1.88 2.27 2.56 2.63 2.60 2.58 2.36 2.27 2.34 2.28 2.26 2.61 2.80 2.57 2.50 2.33 2.19 2.15 2.18 2.29 2.37 2.41 2.54 2.52 2.64 2.54 2.42 2.33 2.21 1.91 1.87 1.74 1.57
0.05 0.08 0.13 0.19 0.31 0.37 0.38 0.51 0.55 0.72 0.82 0.91 1.04 1.10 1.27 1.58 2.06 2.40 2.58 2.75 2.86 2.88 2.62 2.45 2.48 2.38 2.37 2.54 2.75 2.80 2.70 2.70 2.59 2.46 2.40 2.41 2.51 2.67 2.71 2.77 2.75 2.58 2.38 2.40 2.40 2.23 2.18 2.05 1.89
0.06 0.10 0.18 0.23 0.28 0.32 0.32 0.43 0.57 0.66 0.75 0.80 0.99 1.24 1.42 1.84 2.11 2.25 2.43 2.83 3.03 3.13 3.11 2.95 2.87 2.93 2.80 2.74 2.78 2.73 2.74 2.92 2.86 2.84 2.86 2.69 2.60 2.69 2.77 2.90 2.86 2.74 2.64 2.59 2.52 2.49 2.43 2.27 2.13
0.12 0.12 0.18 0.24 0.28 0.27 0.31 0.54 0.63 0.71 0.77 0.85 0.86 1.09 1.52 1.89 1.87 1.86 2.16 2.76 3.45 3.70 3.62 3.19 2.86 3.09 3.10 3.11 3.14 3.17 3.10 3.20 3.14 2.93 3.00 2.91 2.91 2.85 2.85 2.82 2.71 2.66 2.62 2.78 2.84 2.74 2.71 2.57 2.46
0.16 0.15 0.19 0.24 0.27 0.27 0.34 0.63 0.79 0.82 0.87 0.89 0.91 1.14 1.49 1.60 1.55 1.70 2.16 2.90 3.74 4.32 4.07 3.44 3.09 3.16 3.29 3.25 3.42 3.64 3.74 3.70 3.52 3.34 3.32 3.16 3.20 3.14 3.10 3.20 3.14 3.00 3.03 3.02 2.81 2.86 2.93 2.96 2.86
0.16 0.15 0.22 0.23 0.24 0.26 0.34 0.54 0.72 0.96 0.99 1.02 1.02 1.26 1.40 1.54 1.52 1.71 2.25 2.99 3.75 4.45 4.31 3.83 3.51 3.66 3.61 3.50 3.64 3.81 3.88 3.88 3.94 3.96 3.90 3.69 3.57 3.62 3.74 3.81 3.74 3.51 3.40 3.34 3.37 3.33 3.05 2.89 2.83
0.15 0.19 0.22 0.23 0.22 0.27 0.33 0.50 0.63 0.83 0.88 0.96 1.08 1.23 1.20 1.29 1.46 1.82 2.36 3.06 3.50 3.67 3.74 3.88 3.84 3.88 3.90 3.82 3.84 4.04 4.20 4.22 4.20 4.33 4.38 4.21 4.10 4.17 4.41 4.44 4.35 4.07 3.78 3.58 3.50 3.43 3.21 2.93 2.75
0.19 0.21 0.23 0.26 0.24 0.26 0.36 0.55 0.72 0.83 0.88 0.97 1.10 1.13 1.12 1.14 1.37 1.83 2.31 2.79 3.10 3.43 3.59 3.72 3.71 3.93 4.18 4.53 5.00 5.27 5.39 5.31 5.13 5.04 4.95 4.82 4.71 4.73 4.79 4.78 4.47 4.16 3.98 3.71 3.45 3.34 3.19 2.95 2.84
0.18 0.16 0.22 0.31 0.33 0.32 0.43 0.74 0.85 0.93 1.07 1.21 1.27 1.35 1.36 1.23 1.41 1.79 2.05 2.42 2.70 3.04 3.31 3.50 3.76 4.22 4.74 5.39 6.16 6.46 6.21 5.82 5.61 5.29 5.22 5.02 4.79 4.74 4.76 4.48 4.21 3.99 3.82 3.64 3.42 3.33 3.24 2.97 2.85
0.14 0.12 0.17 0.25 0.32 0.38 0.39 0.80 1.06 1.13 1.35 1.51 1.39 1.36 1.40 1.39 1.44 1.64 1.89 2.16 2.37 2.74 3.18 3.59 4.03 4.62 5.27 5.82 6.28 6.50 6.37 6.11 5.83 5.39 5.02 4.64 4.31 4.12 4.00 3.88 3.63 3.49 3.38 3.23 3.06 3.05 3.02 2.91 2.70
0.10 0.10 0.13 0.18 0.23 0.33 0.40 0.65 1.15 1.39 1.51 1.61 1.47 1.41 1.35 1.37 1.34 1.48 1.67 1.94 2.26 2.68 3.14 3.63 4.09 4.75 5.24 5.70 6.04 6.24 6.26 6.14 5.77 5.10 4.48 4.08 3.75 3.49 3.22 2.99 2.87 2.86 2.80 2.61 2.42 2.40 2.39 2.38 2.31
0.10 0.10 0.14 0.20 0.26 0.41 0.42 0.66 1.28 1.64 1.73 1.67 1.60 1.56 1.45 1.45 1.49 1.50 1.58 1.76 2.20 2.59 3.08 3.42 3.76 4.45 5.12 5.59 5.92 6.16 6.12 5.88 5.25 4.56 4.03 3.69 3.40 3.12 2.86 2.70 2.51 2.41 2.30 2.15 1.98 1.91 1.90 1.93 1.94
0.12 0.18 0.34 0.44 0.52 0.55 0.45 0.70 1.26 1.39 1.40 1.48 1.43 1.37 1.41 1.42 1.42 1.45 1.65 1.77 2.25 2.61 2.90 3.17 3.41 3.81 4.31 4.73 5.01 5.18 5.22 5.01 4.58 4.16 3.71 3.35 3.10 2.83 2.52 2.22 2.03 1.92 1.86 1.79 1.75 1.66 1.59 1.64 1.66
0.11 0.20 0.45 0.62 0.67 0.65 0.69 1.17 1.58 1.41 1.36 1.38 1.39 1.27 1.27 1.36 1.37 1.40 1.62 1.83 1.97 2.19 2.43 2.73 2.96 3.21 3.46 3.66 3.84 3.81 3.80 3.78 3.59 3.25 2.84 2.53 2.27 2.12 1.96 1.75 1.63 1.58 1.59 1.55 1.51 1.42 1.33 1.38 1.49
0.10 0.16 0.19 0.33 0.40 0.65 0.97 1.30 1.72 1.66 1.65 1.47 1.36 1.32 1.32 1.30 1.33 1.42 1.60 1.72 1.78 1.89 2.10 2.28 2.36 2.55 2.61 2.57 2.56 2.61 2.61 2.61 2.51 2.37 2.10 1.77 1.54 1.43 1.38 1.35 1.32 1.21 1.22 1.27 1.27 1.24 1.23 1.27 1.29
0.11 0.15 0.22 0.45 0.67 0.87 1.08 1.60 2.11 2.13 1.96 1.72 1.48 1.34 1.21 1.22 1.29 1.37 1.50 1.64 1.72 1.75 1.94 2.02 1.94 1.94 1.99 2.03 1.98 1.90 1.92 1.93 1.92 1.85 1.68 1.48 1.32 1.20 1.11 1.08 1.04 0.94 0.90 0.95 1.04 1.07 1.13 1.23 1.20
0.17 0.20 0.26 0.44 0.58 0.97 1.33 1.95 2.03 2.17 2.09 1.95 1.85 1.51 1.29 1.28 1.33 1.42 1.41 1.41 1.45 1.49 1.53 1.59 1.58 1.60 1.58 1.56 1.58 1.55 1.50 1.45 1.45 1.48 1.44 1.30 1.19 1.07 0.96 0.89 0.89 0.88 0.82 0.80 0.88 0.91 0.96 1.06 1.09
0.19 0.22 0.30 0.55 0.67 0.75 1.17 1.99 1.78 2.13 2.24 2.10 1.94 1.61 1.47 1.40 1.44 1.46 1.40 1.29 1.30 1.41 1.41 1.37 1.35 1.34 1.35 1.36 1.37 1.40 1.27 1.20 1.19 1.17 1.17 1.11 1.09 1.05 0.99 0.93 0.91 0.83 0.77 0.79 0.80 0.79 0.79 0.85 0.91

GEFSSGP_prec_meanprecacc_252.txt.gz
Total_Precipitation_Accumulation
0.04 0.03 0.04 0.07 0.11 0.15 0.19 0.20 0.29 0.48 0.56 0.46 0.45 0.47 0.49 0.54 0.80 1.50 0.98 0.60 0.41 0.30 0.34 0.36 0.37 0.35 0.34 0.31 0.32 0.27 0.25 0.30 0.33 0.32 0.37 0.40 0.33 0.30 0.30 0.33 0.43 0.53 0.54 0.49 0.46 0.46 0.50 0.51 0.41
0.05 0.05 0.05 0.07 0.11 0.17 0.25 0.24 0.36 0.48 0.49 0.50 0.48 0.57 0.59 0.51 0.43 0.47 0.57 0.47 0.31 0.28 0.34 0.33 0.36 0.38 0.36 0.32 0.32 0.29 0.30 0.32 0.39 0.43 0.46 0.50 0.42 0.37 0.39 0.41 0.46 0.58 0.61 0.54 0.48 0.45 0.48 0.48 0.40
0.05 0.06 0.05 0.05 0.11 0.21 0.30 0.33 0.42 0.48 0.48 0.54 0.62 0.66 0.67 0.68 0.52 0.56 0.60 0.45 0.34 0.34 0.35 0.33 0.31 0.38 0.43 0.43 0.42 0.41 0.38 0.41 0.45 0.52 0.58 0.64 0.57 0.50 0.50 0.50 0.51 0.60 0.64 0.63 0.58 0.52 0.51 0.49 0.46
0.05 0.05 0.04 0.07 0.12 0.15 0.23 0.37 0.45 0.50 0.55 0.53 0.53 0.68 0.78 0.76 0.64 0.62 0.58 0.51 0.44 0.47 0.46 0.37 0.38 0.42 0.56 0.57 0.53 0.51 0.49 0.50 0.57 0.61 0.63 0.69 0.64 0.60 0.65 0.68 0.67 0.72 0.72 0.72 0.69 0.70 0.66 0.56 0.60
0.03 0.04 0.05 0.11 0.15 0.16 0.20 0.40 0.49 0.52 0.53 0.54 0.63 0.82 0.92 0.98 0.84 0.72 0.64 0.62 0.61 0.68 0.67 0.51 0.48 0.49 0.61 0.59 0.58 0.55 0.55 0.56 0.66 0.69 0.66 0.69 0.66 0.63 0.72 0.85 0.85 0.91 0.94 0.82 0.74 0.77 0.77 0.72 0.76
0.03 0.03 0.08 0.13 0.18 0.23 0.25 0.34 0.45 0.54 0.59 0.60 0.73 0.93 1.21 1.29 1.16 0.99 0.77 0.72 0.67 0.73 0.70 0.54 0.51 0.53 0.66 0.70 0.65 0.62 0.60 0.64 0.76 0.80 0.74 0.69 0.68 0.71 0.79 0.90 0.97 1.05 1.03 0.88 0.82 0.80 0.75 0.85 0.87
0.02 0.04 0.07 0.12 0.20 0.25 0.28 0.38 0.53 0.57 0.68 0.75 0.87 1.09 1.39 1.46 1.21 1.03 0.94 0.84 0.74 0.78 0.78 0.71 0.72 0.70 0.71 0.73 0.76 0.81 0.73 0.76 0.85 0.85 0.87 0.79 0.78 0.90 0.98 0.98 1.02 1.08 1.08 0.95 0.88 0.89 0.80 0.84 0.91
0.01 0.05 0.09 0.15 0.18 0.21 0.27 0.39 0.60 0.71 0.83 0.92 1.11 1.18 1.60 1.63 1.38 1.24 1.20 1.19 1.25 1.44 1.45 1.27 1.18 1.06 0.89 0.78 0.77 0.79 0.80 0.91 1.03 0.96 0.90 0.90 0.90 0.97 1.09 1.06 1.06 1.01 0.94 0.93 0.91 0.96 0.95 0.86 0.83
0.00 0.04 0.08 0.11 0.15 0.20 0.30 0.45 0.55 0.69 0.90 0.94 1.01 1.02 1.32 1.36 1.44 1.61 1.68 1.87 1.93 2.11 2.19 1.86 1.46 1.24 1.19 1.04 0.86 0.92 0.89 0.93 1.01 1.02 0.98 1.04 1.27 1.40 1.43 1.26 1.32 1.18 1.05 1.04 1.05 1.00 0.95 0.86 0.81
0.00 0.03 0.06 0.09 0.13 0.19 0.34 0.51 0.59 0.63 0.83 0.90 0.92 0.98 1.15 1.41 1.61 1.81 2.07 2.67 2.58 2.43 2.42 2.13 1.66 1.74 1.84 1.44 1.32 1.27 1.16 1.11 1.11 1.24 1.25 1.34 1.76 1.83 1.56 1.60 1.55 1.51 1.37 1.29 1.28 1.24 1.11 0.97 0.91
0.01 0.03 0.06 0.10 0.15 0.23 0.39 0.53 0.65 0.81 0.95 1.00 1.08 1.21 1.39 1.70 1.75 1.86 2.17 2.77 2.93 2.56 2.20 1.85 1.74 1.78 1.94 1.87 1.78 1.70 1.67 1.71 1.72 1.76 1.77 1.94 1.99 1.81 1.63 1.83 1.74 1.76 1.70 1.67 1.74 1.57 1.35 1.27 1.27
0.02 0.03 0.06 0.13 0.20 0.27 0.46 0.65 0.76 1.00 1.15 1.20 1.20 1.23 1.54 1.72 1.73 2.02 2.51 2.49 2.50 2.44 2.24 2.13 2.10 2.02 2.12 2.43 2.42 2.26 2.20 2.11 2.01 2.04 1.98 2.26 2.40 2.25 2.22 2.25 2.16 2.26 2.32 2.34 2.13 1.91 1.68 1.55 1.40
0.03 0.05 0.08 0.15 0.27 0.31 0.45 0.70 0.68 0.82 0.97 1.02 1.03 1.12 1.41 1.70 1.93 2.34 2.62 2.68 2.64 2.63 2.42 2.38 2.44 2.41 2.42 2.80 2.97 2.72 2.62 2.42 2.28 2.24 2.28 2.40 2.46 2.47 2.60 2.58 2.71 2.61 2.50 2.40 2.26 1.97 1.93 1.79 1.62
0.05 0.08 0.13 0.19 0.31 0.37 0.39 0.51 0.56 0.72 0.83 0.92 1.05 1.12 1.33 1.65 2.10 2.45 2.63 2.79 2.90 2.91 2.66 2.54 2.58 2.48 2.51 2.72 2.92 2.90 2.78 2.80 2.70 2.54 2.49 2.50 2.59 2.72 2.77 2.85 2.82 2.65 2.45 2.47 2.45 2.28 2.25 2.12 1.95
0.06 0.10 0.18 0.23 0.28 0.33 0.33 0.45 0.58 0.66 0.76 0.82 1.00 1.26 1.47 1.91 2.17 2.29 2.48 2.87 3.06 3.17 3.15 3.01 2.93 2.99 2.87 2.87 2.94 2.87 2.84 3.01 2.96 2.92 2.93 2.76 2.66 2.76 2.85 2.97 2.93 2.80 2.70 2.65 2.57 2.55 2.50 2.34 2.19
0.12 0.12 0.18 0.24 0.30 0.28 0.32 0.56 0.64 0.71 0.78 0.86 0.87 1.10 1.55 1.94 1.90 1.89 2.19 2.80 3.49 3.75 3.67 3.25 2.91 3.13 3.15 3.17 3.20 3.22 3.18 3.28 3.22 3.00 3.06 2.96 2.97 2.92 2.94 2.88 2.76 2.72 2.68 2.83 2.89 2.80 2.78 2.63 2.52
0.17 0.16 0.19 0.24 0.29 0.28 0.36 0.66 0.80 0.82 0.88 0.89 0.92 1.15 1.51 1.62 1.58 1.72 2.18 2.92 3.78 4.37 4.13 3.50 3.16 3.22 3.35 3.32 3.47 3.67 3.78 3.77 3.60 3.41 3.37 3.20 3.24 3.19 3.15 3.24 3.20 3.06 3.09 3.08 2.85 2.92 3.00 3.03 2.93
0.18 0.19 0.26 0.25 0.26 0.27 0.35 0.57 0.74 0.97 0.99 1.03 1.04 1.28 1.41 1.55 1.53 1.73 2.26 3.00 3.77 4.49 4.37 3.89 3.60 3.75 3.72 3.58 3.70 3.85 3.92 3.92 4.00 4.02 3.94 3.72 3.60 3.65 3.78 3.84 3.79 3.57 3.46 3.40 3.43 3.40 3.14 2.98 2.92
0.17 0.21 0.25 0.25 0.22 0.28 0.35 0.52 0.65 0.84 0.89 0.98 1.10 1.25 1.21 1.30 1.47 1.84 2.37 3.08 3.52 3.70 3.78 3.92 3.91 3.97 3.98 3.90 3.89 4.08 4.23 4.25 4.24 4.38 4.42 4.24 4.13 4.21 4.45 4.48 4.41 4.13 3.85 3.64 3.57 3.51 3.30 3.03 2.87
0.20 0.23 0.25 0.28 0.25 0.26 0.38 0.56 0.73 0.85 0.90 0.99 1.11 1.14 1.13 1.14 1.38 1.85 2.33 2.82 3.13 3.45 3.62 3.76 3.77 4.00 4.25 4.60 5.06 5.32 5.44 5.34 5.16 5.07 4.99 4.87 4.75 4.78 4.82 4.82 4.52 4.22 4.05 3.79 3.53 3.45 3.29 3.04 2.96
0.20 0.19 0.26 0.35 0.36 0.32 0.44 0.76 0.87 0.95 1.08 1.21 1.27 1.36 1.37 1.23 1.41 1.80 2.06 2.45 2.73 3.05 3.33 3.54 3.82 4.29 4.81 5.46 6.23 6.52 6.26 5.87 5.65 5.33 5.27 5.06 4.82 4.78 4.80 4.52 4.25 4.05 3.88 3.70 3.50 3.45 3.36 3.08 2.97
0.15 0.13 0.19 0.26 0.33 0.39 0.41 0.84 1.12 1.20 1.38 1.52 1.40 1.37 1.40 1.40 1.45 1.65 1.91 2.19 2.39 2.76 3.21 3.63 4.10 4.72 5.36 5.92 6.38 6.57 6.44 6.17 5.90 5.45 5.07 4.68 4.34 4.15 4.04 3.92 3.68 3.56 3.44 3.29 3.12 3.14 3.12 3.00 2.78
0.10 0.10 0.13 0.18 0.24 0.35 0.41 0.68 1.19 1.41 1.54 1.63 1.49 1.42 1.36 1.38 1.35 1.49 1.70 1.97 2.29 2.70 3.18 3.67 4.14 4.80 5.30 5.80 6.16 6.34 6.34 6.22 5.84 5.16 4.54 4.13 3.79 3.53 3.26 3.04 2.93 2.92 2.87 2.67 2.48 2.48 2.48 2.47 2.39
0.10 0.10 0.14 0.21 0.27 0.45 0.43 0.68 1.32 1.67 1.75 1.70 1.63 1.58 1.46 1.45 1.50 1.51 1.61 1.79 2.23 2.63 3.11 3.46 3.80 4.48 5.17 5.65 6.00 6.25 6.20 5.96 5.33 4.64 4.10 3.75 3.45 3.17 2.90 2.75 2.57 2.49 2.38 2.21 2.06 1.99 1.98 2.02 2.03
0.12 0.19 0.37 0.48 0.57 0.59 0.46 0.72 1.28 1.40 1.41 1.49 1.44 1.39 1.42 1.44 1.44 1.47 1.68 1.81 2.28 2.67 2.95 3.20 3.45 3.84 4.35 4.79 5.08 5.26 5.31 5.10 4.67 4.25 3.78 3.41 3.16 2.88 2.56 2.26 2.09 2.00 1.93 1.86 1.82 1.72 1.66 1.71 1.74
0.11 0.20 0.48 0.69 0.72 0.69 0.72 1.21 1.61 1.42 1.37 1.39 1.40 1.28 1.29 1.39 1.39 1.41 1.65 1.87 2.01 2.23 2.48 2.77 3.01 3.27 3.52 3.72 3.92 3.89 3.89 3.87 3.67 3.34 2.91 2.60 2.34 2.18 2.01 1.80 1.69 1.65 1.66 1.62 1.58 1.48 1.39 1.43 1.54
0.10 0.16 0.20 0.36 0.42 0.67 1.00 1.34 1.74 1.68 1.67 1.48 1.36 1.32 1.32 1.33 1.36 1.45 1.63 1.76 1.82 1.94 2.15 2.32 2.41 2.60 2.67 2.63 2.61 2.66 2.68 2.67 2.58 2.45 2.19 1.87 1.63 1.50 1.44 1.40 1.37 1.26 1.28 1.33 1.33 1.29 1.28 1.33 1.33
0.11 0.15 0.23 0.49 0.70 0.90 1.10 1.63 2.14 2.15 1.97 1.73 1.48 1.34 1.22 1.24 1.30 1.41 1.54 1.69 1.78 1.79 1.97 2.06 1.99 2.00 2.05 2.08 2.01 1.94 1.97 2.00 1.99 1.92 1.76 1.57 1.39 1.26 1.17 1.13 1.09 0.99 0.96 1.01 1.09 1.11 1.18 1.28 1.25
0.17 0.20 0.26 0.45 0.59 0.99 1.37 2.00 2.06 2.19 2.09 1.96 1.85 1.51 1.30 1.29 1.34 1.46 1.46 1.47 1.49 1.52 1.56 1.63 1.63 1.64 1.61 1.60 1.62 1.60 1.55 1.51 1.51 1.55 1.49 1.35 1.25 1.12 1.01 0.93 0.93 0.93 0.87 0.85 0.92 0.95 1.00 1.11 1.15
0.19 0.23 0.30 0.56 0.68 0.76 1.20 2.03 1.80 2.14 2.25 2.11 1.95 1.62 1.48 1.41 1.46 1.50 1.44 1.34 1.35 1.45 1.46 1.43 1.41 1.38 1.38 1.41 1.43 1.47 1.33 1.25 1.26 1.25 1.22 1.14 1.12 1.08 1.01 0.96 0.94 0.87 0.81 0.82 0.83 0.83 0.82 0.89 0.95